GFSNW_700_temp_057.txt.gz
Temp
-6 -8 -9 -7 -7 -7 -7 -6 -8 -8 -8 -8 -8 -8 -7 -7 -6 -4 -5 -4 -3 -4 -4 -4 -4 -4 -3 -4 -2 -3 -3 -3 -3 -4 -3 -3 -3 -3 -4 -3 -3 -3 -3 -3
-6 -8 -8 -7 -7 -7 -7 -6 -7 -8 -8 -8 -8 -7 -6 -7 -6 -4 -4 -4 -3 -3 -3 -4 -4 -3 -3 -4 -3 -3 -3 -3 -3 -4 -4 -4 -4 -3 -3 -3 -3 -4 -6 -1
-6 -7 -7 -7 -7 -7 -7 -7 -7 -7 -7 -7 -7 -6 -6 -6 -4 -4 -4 -4 -4 -4 -3 -3 -4 -4 -4 -4 -4 -3 -3 -4 -3 -4 -3 -2 -4 -3 -3 -4 -4 -4 -3 0
-6 -7 -7 -7 -7 -7 -7 -7 -7 -7 -7 -6 -6 -6 -5 -5 -4 -4 -4 -4 -4 -3 -3 -4 -4 -3 -3 -4 -4 -4 -4 -4 -4 -3 -3 -3 -3 -3 -3 -3 -3 -4 -2 -2
-7 -7 -7 -7 -6 -7 -6 -6 -6 -6 -5 -6 -6 -5 -5 -4 -4 -4 -4 -3 -3 -3 -3 -2 -3 -4 -3 -4 -4 -4 -4 -4 -4 -4 -2 -2 -3 -2 -3 -3 -3 -4 -4 -2
-7 -7 -7 -7 -6 -7 -6 -7 -6 -6 -6 -6 -5 -5 -5 -5 -4 -3 -3 -3 -3 -3 -3 -3 -3 -3 -3 -3 -3 -4 -5 -5 -5 -4 -3 -3 -2 -0 -1 -1 -1 -2 -3 1
-7 -7 -7 -7 -6 -6 -6 -6 -6 -5 -6 -6 -5 -5 -5 -4 -4 -4 -4 -3 -3 -3 -3 -3 -3 -4 -4 -4 -4 -4 -4 -4 -4 -4 -3 -5 -1 -1 -1 -1 -1 -1 -1 -1
-7 -7 -7 -7 -6 -6 -6 -6 -6 -6 -6 -6 -5 -5 -5 -5 -4 -4 -4 -3 -3 -3 -3 -3 -3 -4 -4 -5 -5 -5 -5 -4 -4 -4 -3 -2 -0 -0 -1 -1 -1 -1 -1 -1
-7 -7 -7 -7 -6 -6 -6 -7 -6 -6 -6 -6 -5 -5 -5 -4 -5 -5 -4 -4 -3 -3 -3 -4 -4 -4 -4 -5 -5 -5 -5 -5 -4 -4 -4 -4 -1 -1 -1 -2 -1 -1 -1 -1
-7 -7 -8 -7 -6 -6 -6 -7 -7 -6 -6 -6 -6 -5 -4 -4 -4 -4 -4 -4 -4 -4 -4 -5 -4 -3 -3 -3 -4 -5 -5 -5 -5 -5 -4 -2 -1 -1 -1 -1 -1 -1 -1 -1
-7 -7 -8 -8 -7 -6 -6 -6 -6 -6 -6 -6 -5 -5 -5 -5 -5 -4 -4 -4 -4 -4 -4 -4 -3 -4 -3 -3 -3 -3 -3 -5 -5 -5 -5 -4 -1 -1 -2 -1 -0 -0 -0 0
-7 -8 -8 -8 -7 -6 -6 -6 -6 -7 -6 -5 -5 -5 -5 -4 -4 -4 -4 -4 -4 -4 -4 -4 -4 -4 -4 -3 -3 -3 -3 -2 -2 -3 -2 -1 -1 -2 -1 -1 -0 0 0 1
-8 -8 -9 -9 -8 -6 -6 -7 -6 -6 -5 -5 -5 -4 -5 -4 -4 -4 -4 -4 -5 -5 -4 -4 -4 -4 -4 -4 -3 -3 -3 -3 -3 -3 -1 -0 -1 -1 -1 -0 0 1 1 1
-8 -9 -9 -9 -8 -6 -6 -6 -6 -6 -5 -5 -5 -4 -4 -4 -4 -4 -4 -5 -5 -5 -5 -5 -5 -5 -4 -4 -3 -3 -3 -3 -2 -2 -1 -1 -1 -0 -1 -0 0 1 1 1
-9 -9 -10 -9 -8 -6 -6 -6 -6 -6 -5 -5 -5 -5 -4 -4 -4 -4 -4 -5 -5 -5 -5 -5 -5 -5 -5 -4 -4 -3 -2 -2 -2 -2 -2 -1 -1 -1 -1 -0 0 1 1 1
-10 -11 -10 -9 -8 -6 -6 -6 -6 -6 -6 -5 -5 -4 -4 -5 -4 -4 -4 -5 -4 -5 -4 -4 -4 -5 -4 -3 -3 -2 -2 -2 -2 -2 -2 -1 -1 -1 -1 -0 0 0 1 1
-10 -11 -10 -9 -8 -6 -6 -6 -6 -6 -6 -6 -5 -5 -4 -4 -4 -4 -4 -4 -5 -5 -4 -5 -5 -4 -4 -4 -4 -2 -3 -2 -2 -2 -2 -1 -1 -1 -0 -1 -0 0 0 0
-11 -11 -10 -8 -7 -6 -7 -6 -5 -6 -6 -6 -4 -5 -4 -4 -4 -4 -4 -5 -5 -5 -5 -5 -5 -4 -4 -4 -3 -3 -3 -2 -2 -2 -2 -2 -1 -1 -1 -1 -1 -0 -0 -1
-10 -10 -8 -7 -7 -7 -6 -7 -5 -6 -6 -5 -5 -5 -5 -5 -5 -4 -4 -4 -4 -5 -5 -5 -4 -4 -4 -4 -3 -3 -3 -3 -3 -2 -1 -1 -1 -1 -1 -1 -1 -1 -1 -1
-9 -8 -7 -7 -7 -6 -6 -7 -6 -5 -6 -6 -5 -5 -5 -5 -5 -5 -5 -4 -4 -4 -4 -4 -4 -4 -4 -4 -4 -3 -3 -3 -2 -2 -2 -1 -1 -1 -1 -1 -1 -1 -1 -1
-9 -9 -8 -7 -6 -7 -6 -6 -5 -5 -5 -5 -5 -6 -6 -5 -5 -5 -5 -4 -4 -4 -4 -4 -4 -4 -4 -4 -4 -3 -2 -2 -1 -2 -2 -2 -2 -1 -1 -1 -1 -2 -2 -1
-8 -8 -7 -6 -6 -6 -6 -5 -5 -6 -5 -6 -6 -6 -5 -5 -6 -5 -5 -4 -4 -4 -4 -4 -4 -5 -4 -3 -3 -2 -2 -1 -1 -2 -3 -2 -2 -2 -2 -2 -2 -2 -2 -2
-8 -7 -7 -6 -6 -6 -6 -5 -6 -6 -6 -6 -6 -5 -5 -5 -5 -5 -5 -4 -4 -4 -4 -4 -4 -5 -4 -3 -3 -2 -2 -2 -1 -2 -2 -2 -2 -2 -2 -2 -2 -2 -2 -2
-7 -7 -6 -7 -6 -6 -6 -6 -6 -6 -5 -5 -5 -5 -5 -5 -5 -5 -4 -5 -4 -3 -3 -3 -4 -3 -3 -3 -2 -2 -3 -2 -2 -2 -2 -2 -2 -2 -2 -2 -2 -2 -2 -3
-8 -7 -6 -6 -6 -5 -6 -6 -6 -6 -6 -5 -5 -6 -5 -5 -5 -5 -5 -5 -4 -3 -3 -4 -3 -3 -3 -3 -2 -2 -2 -2 -3 -2 -2 -2 -2 -2 -2 -2 -2 -2 -2 -2
-8 -7 -6 -6 -5 -5 -5 -5 -6 -6 -6 -6 -6 -5 -5 -6 -6 -5 -5 -5 -4 -4 -4 -4 -3 -3 -3 -3 -2 -2 -2 -2 -1 -1 -1 -1 -2 -2 -2 -2 -2 -2 -2 -2
-8 -7 -6 -6 -5 -5 -5 -5 -5 -5 -5 -6 -6 -6 -5 -5 -5 -5 -4 -4 -4 -4 -4 -3 -3 -3 -3 -3 -2 -2 -2 -2 -1 -1 -1 -1 -1 -1 -1 -1 -2 -2 -2 -2

GFSNW_700_temp_060.txt.gz
Temp
-5 -6 -6 -5 -5 -6 -6 -6 -8 -8 -8 -8 -8 -8 -8 -6 -5 -5 -5 -4 -4 -4 -4 -4 -4 -3 -3 -3 -3 -3 -2 -3 -4 -4 -4 -4 -4 -3 -3 -3 -4 -4 -4 -1
-6 -6 -6 -5 -5 -5 -5 -6 -7 -7 -7 -7 -7 -6 -5 -6 -5 -5 -4 -4 -4 -4 -3 -4 -4 -3 -3 -3 -3 -3 -3 -3 -4 -4 -4 -4 -4 -4 -4 -3 -3 -4 -5 -0
-6 -7 -7 -6 -5 -6 -6 -5 -6 -6 -6 -6 -5 -6 -6 -5 -4 -4 -5 -4 -4 -4 -3 -3 -4 -4 -3 -3 -3 -3 -3 -3 -3 -3 -3 -3 -4 -3 -3 -4 -4 -4 -3 1
-6 -7 -7 -6 -6 -5 -6 -6 -6 -7 -6 -5 -5 -6 -5 -4 -4 -4 -4 -4 -4 -4 -3 -3 -4 -4 -4 -4 -4 -4 -3 -3 -3 -3 -3 -4 -3 -3 -3 -3 -3 -4 -2 -2
-6 -7 -7 -6 -6 -6 -6 -5 -6 -6 -6 -6 -5 -6 -5 -4 -4 -4 -4 -4 -3 -3 -3 -3 -3 -3 -3 -4 -4 -3 -4 -4 -4 -3 -2 -3 -3 -3 -3 -3 -3 -3 -3 -2
-6 -7 -7 -6 -6 -7 -7 -5 -6 -6 -6 -5 -5 -5 -4 -4 -4 -4 -3 -4 -3 -3 -3 -3 -3 -3 -3 -3 -3 -4 -4 -4 -4 -3 -3 -3 -3 -1 -1 -1 -1 -2 -3 -0
-7 -7 -7 -6 -6 -7 -6 -5 -6 -6 -6 -5 -6 -5 -4 -4 -4 -4 -4 -4 -3 -3 -3 -3 -3 -3 -4 -4 -4 -4 -4 -5 -4 -4 -4 -5 -1 -1 -1 -1 -1 -2 -1 -1
-7 -7 -7 -7 -6 -6 -6 -6 -5 -5 -5 -5 -5 -5 -5 -4 -4 -4 -4 -4 -3 -3 -4 -4 -4 -4 -4 -4 -5 -5 -4 -5 -4 -4 -4 -2 -0 -0 -1 -2 -1 -1 -1 -1
-7 -7 -7 -7 -7 -6 -6 -6 -5 -5 -4 -5 -5 -5 -4 -4 -4 -4 -4 -4 -3 -3 -3 -3 -4 -4 -5 -5 -5 -5 -5 -5 -5 -5 -4 -5 -1 -1 -1 -2 -1 -1 -2 -2
-7 -8 -7 -7 -7 -6 -6 -6 -5 -5 -5 -5 -5 -5 -5 -5 -4 -4 -4 -4 -4 -4 -4 -4 -4 -3 -3 -3 -4 -5 -5 -5 -5 -5 -5 -3 -1 -1 -1 -2 -1 -1 -1 -1
-7 -7 -8 -7 -7 -7 -6 -7 -6 -5 -6 -6 -5 -5 -5 -5 -5 -5 -4 -4 -4 -4 -4 -4 -4 -4 -3 -3 -3 -3 -3 -4 -4 -5 -5 -5 -1 -2 -2 -2 -1 -1 -0 -0
-7 -7 -8 -8 -8 -8 -7 -7 -6 -7 -6 -5 -5 -5 -4 -5 -5 -5 -5 -5 -5 -5 -4 -4 -4 -4 -4 -4 -4 -3 -4 -3 -3 -3 -2 -2 -2 -2 -2 -1 -0 -0 0 0
-8 -8 -8 -8 -8 -8 -7 -7 -7 -7 -6 -5 -4 -5 -5 -5 -5 -5 -5 -5 -5 -5 -5 -5 -4 -4 -4 -4 -4 -4 -3 -3 -3 -3 -2 -1 -1 -1 -2 -2 -1 -0 0 0
-8 -8 -8 -8 -9 -8 -7 -7 -6 -6 -6 -6 -5 -5 -5 -5 -5 -5 -5 -4 -5 -5 -5 -5 -5 -5 -4 -5 -4 -4 -4 -3 -3 -2 -1 -2 -1 -1 -1 -1 -1 -1 -0 0
-9 -10 -11 -10 -11 -9 -7 -7 -6 -6 -6 -6 -5 -5 -5 -4 -4 -4 -4 -5 -5 -5 -5 -5 -5 -4 -5 -4 -5 -3 -3 -3 -3 -2 -2 -2 -2 -2 -2 -1 -1 -1 -0 0
-10 -10 -10 -12 -11 -10 -8 -7 -7 -6 -6 -6 -5 -5 -4 -4 -5 -5 -5 -5 -5 -5 -5 -5 -4 -5 -5 -4 -4 -3 -3 -3 -3 -3 -3 -2 -2 -1 -1 -1 -1 -1 -0 -0
-11 -10 -11 -11 -10 -8 -8 -7 -6 -7 -7 -6 -5 -5 -4 -4 -4 -5 -4 -5 -5 -4 -4 -4 -4 -5 -5 -5 -4 -3 -3 -3 -3 -3 -3 -2 -2 -1 -1 -1 -0 -1 -0 -0
-10 -11 -11 -11 -10 -8 -7 -7 -6 -7 -6 -6 -6 -6 -5 -5 -5 -4 -4 -5 -5 -5 -5 -5 -5 -5 -5 -4 -4 -3 -3 -3 -3 -3 -3 -2 -2 -2 -2 -1 -1 -1 -1 -1
-10 -11 -11 -9 -8 -8 -7 -7 -7 -7 -6 -6 -6 -5 -5 -5 -5 -5 -5 -5 -5 -5 -5 -5 -4 -4 -4 -5 -4 -4 -4 -3 -4 -3 -3 -2 -2 -2 -1 -1 -1 -1 -1 -1
-9 -10 -9 -8 -8 -7 -7 -7 -6 -6 -6 -6 -5 -5 -5 -5 -5 -5 -5 -5 -5 -5 -5 -5 -5 -4 -4 -4 -4 -3 -3 -3 -3 -3 -3 -3 -2 -2 -1 -1 -1 -1 -1 -1
-8 -9 -9 -8 -7 -7 -6 -6 -6 -6 -6 -5 -5 -5 -6 -5 -5 -5 -5 -5 -4 -4 -4 -4 -4 -4 -4 -4 -4 -3 -3 -2 -2 -1 -2 -2 -3 -2 -2 -2 -1 -1 -2 -2
-9 -8 -8 -7 -7 -6 -6 -6 -6 -6 -5 -6 -6 -6 -6 -6 -6 -5 -5 -5 -5 -5 -5 -4 -5 -5 -5 -4 -3 -3 -3 -2 -2 -1 -1 -2 -2 -3 -3 -2 -2 -2 -2 -2
-8 -8 -7 -7 -6 -6 -6 -6 -6 -5 -6 -5 -5 -6 -6 -6 -6 -5 -5 -5 -5 -5 -5 -5 -6 -5 -5 -5 -4 -3 -3 -3 -2 -2 -2 -2 -3 -2 -2 -2 -2 -2 -2 -2
-8 -7 -7 -7 -7 -6 -6 -5 -6 -6 -6 -6 -6 -6 -6 -5 -6 -5 -5 -5 -5 -4 -4 -5 -5 -5 -5 -5 -4 -3 -4 -3 -3 -3 -3 -3 -2 -2 -2 -2 -2 -2 -3 -2
-8 -8 -7 -7 -6 -7 -7 -7 -6 -6 -6 -7 -6 -6 -6 -6 -6 -5 -5 -5 -5 -4 -4 -4 -4 -4 -3 -3 -3 -3 -3 -3 -3 -3 -3 -3 -3 -3 -2 -2 -2 -2 -2 -3
-8 -8 -7 -7 -7 -6 -6 -6 -6 -7 -7 -6 -6 -6 -6 -6 -6 -6 -6 -5 -5 -4 -4 -4 -4 -4 -4 -3 -3 -3 -3 -3 -3 -3 -3 -3 -3 -3 -3 -2 -2 -2 -2 -2
-8 -7 -7 -7 -6 -6 -6 -7 -7 -7 -7 -7 -7 -7 -6 -6 -5 -5 -6 -4 -4 -4 -4 -4 -4 -4 -4 -4 -3 -3 -3 -3 -3 -2 -2 -2 -2 -2 -2 -2 -2 -2 -2 -2

GFSNW_700_temp_063.txt.gz
Temp
-5 -6 -6 -5 -5 -6 -7 -6 -7 -7 -6 -7 -7 -7 -6 -6 -5 -5 -5 -5 -4 -4 -3 -4 -3 -3 -3 -3 -3 -3 -3 -3 -4 -4 -4 -4 -4 -3 -3 -2 -5 -5 -4 -1
-6 -6 -6 -5 -5 -5 -6 -6 -6 -6 -6 -7 -5 -5 -5 -5 -5 -4 -4 -5 -4 -3 -4 -4 -3 -3 -3 -3 -3 -2 -3 -3 -5 -5 -4 -4 -4 -4 -4 -3 -4 -4 -6 -0
-6 -6 -6 -6 -6 -5 -6 -5 -5 -6 -6 -5 -5 -5 -5 -5 -5 -5 -4 -4 -3 -3 -3 -3 -3 -3 -3 -3 -3 -3 -3 -3 -2 -3 -3 -3 -4 -4 -4 -4 -4 -4 -2 1
-6 -6 -6 -6 -6 -6 -5 -5 -5 -5 -4 -4 -5 -5 -5 -5 -4 -5 -4 -4 -4 -3 -3 -3 -3 -4 -3 -3 -3 -4 -3 -3 -3 -3 -3 -3 -4 -3 -3 -4 -3 -3 -0 -0
-6 -6 -6 -7 -6 -6 -6 -6 -5 -5 -5 -5 -5 -4 -5 -5 -5 -4 -4 -4 -4 -4 -3 -3 -3 -3 -3 -4 -4 -4 -4 -3 -3 -3 -3 -3 -3 -3 -3 -3 -3 -3 -2 -1
-6 -6 -7 -7 -7 -6 -6 -6 -5 -6 -5 -5 -5 -5 -4 -4 -4 -4 -4 -4 -4 -4 -3 -3 -3 -4 -4 -3 -4 -4 -4 -4 -4 -3 -4 -3 -2 -1 -2 -1 -1 -1 -2 -0
-7 -6 -7 -7 -7 -6 -6 -6 -5 -6 -5 -5 -5 -5 -4 -4 -4 -4 -4 -4 -3 -4 -4 -4 -4 -4 -4 -3 -4 -4 -4 -5 -4 -4 -4 -6 -1 -1 -1 -1 -1 -1 -2 -1
-7 -7 -7 -7 -7 -6 -6 -6 -6 -5 -5 -4 -4 -4 -5 -4 -4 -4 -4 -4 -3 -4 -4 -4 -4 -4 -4 -5 -5 -4 -4 -4 -4 -4 -4 -3 -1 -0 -1 -1 -1 -1 -2 -2
-7 -7 -7 -7 -7 -6 -6 -6 -6 -6 -5 -4 -4 -4 -4 -4 -4 -4 -4 -4 -4 -4 -4 -4 -4 -4 -5 -5 -5 -5 -5 -5 -5 -4 -4 -5 -2 -2 -2 -2 -2 -2 -2 -2
-7 -7 -7 -7 -7 -7 -6 -6 -6 -5 -5 -4 -4 -5 -5 -5 -4 -4 -4 -3 -4 -3 -4 -4 -4 -4 -4 -4 -4 -5 -5 -5 -5 -5 -5 -4 -2 -2 -2 -2 -2 -2 -2 -1
-7 -7 -7 -7 -7 -7 -7 -6 -6 -5 -5 -5 -4 -5 -5 -5 -4 -4 -4 -4 -4 -4 -4 -4 -4 -4 -4 -4 -4 -4 -3 -4 -4 -5 -5 -5 -2 -2 -2 -2 -2 -2 -1 -1
-7 -7 -7 -7 -7 -7 -7 -6 -6 -5 -5 -5 -4 -5 -6 -5 -5 -5 -5 -5 -5 -4 -4 -4 -4 -4 -4 -4 -4 -3 -4 -3 -3 -3 -2 -2 -2 -2 -3 -2 -2 -1 -1 -0
-8 -8 -7 -7 -7 -7 -7 -7 -6 -6 -6 -6 -5 -5 -5 -5 -5 -5 -5 -5 -5 -5 -5 -5 -5 -4 -4 -4 -4 -4 -3 -4 -4 -3 -2 -2 -2 -2 -2 -2 -2 -1 -1 -0
-8 -8 -8 -8 -8 -9 -8 -8 -7 -7 -7 -6 -6 -5 -5 -5 -5 -5 -5 -5 -5 -5 -5 -5 -5 -5 -5 -5 -5 -4 -4 -4 -4 -3 -2 -2 -2 -2 -2 -2 -2 -1 -1 -1
-8 -9 -9 -10 -11 -11 -9 -8 -7 -7 -6 -6 -6 -5 -5 -5 -5 -5 -5 -5 -5 -5 -5 -5 -5 -5 -5 -5 -5 -4 -3 -3 -4 -3 -3 -3 -3 -2 -2 -2 -1 -1 -1 -1
-9 -10 -10 -11 -12 -12 -11 -8 -7 -7 -7 -6 -6 -5 -5 -5 -5 -5 -5 -5 -5 -5 -5 -5 -5 -5 -5 -5 -5 -4 -4 -4 -3 -3 -3 -3 -2 -2 -2 -2 -1 -1 -1 -1
-10 -10 -11 -12 -11 -12 -10 -9 -8 -7 -7 -7 -6 -5 -5 -5 -5 -5 -5 -5 -5 -5 -5 -5 -5 -5 -5 -5 -4 -4 -4 -4 -4 -4 -3 -3 -3 -2 -2 -2 -1 -1 -0 -1
-10 -11 -11 -11 -11 -11 -9 -8 -7 -7 -7 -7 -6 -6 -6 -6 -5 -5 -5 -5 -5 -5 -6 -5 -5 -5 -5 -5 -4 -5 -4 -4 -3 -3 -3 -3 -2 -2 -2 -2 -1 -1 -1 -1
-11 -11 -11 -11 -10 -9 -8 -7 -7 -7 -7 -6 -7 -6 -6 -5 -6 -5 -5 -5 -5 -5 -5 -5 -5 -5 -5 -4 -3 -4 -4 -3 -3 -4 -4 -3 -3 -2 -2 -2 -1 -1 -1 -1
-10 -10 -10 -9 -8 -8 -7 -7 -7 -7 -7 -7 -5 -6 -6 -5 -5 -5 -5 -5 -5 -5 -5 -5 -5 -5 -5 -5 -5 -5 -4 -4 -4 -3 -3 -4 -3 -3 -2 -2 -1 -1 -1 -2
-10 -9 -9 -9 -8 -7 -7 -7 -7 -7 -6 -6 -5 -5 -6 -6 -6 -6 -5 -5 -5 -5 -5 -5 -5 -5 -5 -5 -5 -4 -4 -3 -3 -2 -2 -2 -3 -3 -3 -3 -2 -2 -2 -2
-9 -9 -8 -8 -8 -7 -7 -6 -6 -6 -6 -6 -6 -5 -6 -6 -6 -6 -5 -5 -5 -5 -5 -5 -5 -5 -5 -5 -4 -4 -3 -3 -3 -2 -2 -1 -2 -3 -2 -3 -3 -2 -2 -2
-9 -8 -8 -7 -7 -7 -7 -7 -5 -6 -6 -6 -6 -6 -6 -6 -6 -5 -5 -5 -5 -5 -5 -5 -5 -6 -6 -5 -5 -4 -4 -3 -3 -3 -2 -2 -2 -2 -3 -2 -3 -3 -2 -2
-9 -8 -8 -7 -7 -7 -6 -6 -6 -6 -6 -7 -6 -6 -6 -5 -6 -6 -5 -5 -5 -5 -5 -5 -5 -5 -6 -6 -6 -5 -5 -4 -4 -3 -3 -3 -3 -3 -2 -3 -3 -3 -3 -3
-9 -8 -7 -7 -7 -7 -7 -7 -7 -7 -7 -7 -6 -6 -6 -6 -6 -5 -5 -5 -5 -4 -4 -4 -5 -5 -5 -5 -5 -5 -5 -5 -4 -3 -3 -3 -3 -3 -3 -3 -2 -3 -3 -3
-9 -8 -7 -7 -7 -7 -7 -8 -7 -7 -7 -7 -7 -6 -7 -6 -6 -6 -6 -5 -4 -4 -3 -4 -4 -5 -5 -5 -5 -5 -4 -3 -3 -3 -3 -3 -3 -3 -3 -3 -3 -2 -2 -3
-8 -7 -7 -7 -7 -8 -8 -7 -7 -7 -7 -7 -7 -7 -7 -6 -6 -6 -7 -6 -4 -4 -4 -4 -4 -4 -4 -4 -4 -4 -4 -3 -3 -3 -3 -3 -3 -3 -3 -3 -2 -2 -2 -3

GFSNW_700_temp_069.txt.gz
Temp
-7 -6 -5 -5 -4 -5 -5 -5 -5 -5 -5 -5 -6 -6 -5 -5 -5 -5 -4 -4 -3 -3 -4 -4 -3 -3 -3 -3 -2 -2 -1 -3 -4 -4 -4 -3 -3 -3 -2 -2 -4 -4 -4 -1
-7 -7 -5 -5 -5 -5 -4 -4 -5 -5 -4 -5 -5 -6 -6 -5 -5 -5 -4 -4 -4 -3 -3 -3 -3 -3 -2 -3 -2 -2 -2 -3 -4 -5 -4 -4 -4 -3 -3 -3 -2 -3 -4 -1
-7 -7 -6 -5 -5 -5 -4 -4 -5 -6 -6 -6 -5 -5 -5 -5 -5 -4 -4 -4 -3 -3 -2 -2 -3 -3 -3 -3 -3 -2 -2 -3 -3 -3 -3 -3 -4 -3 -3 -3 -3 -3 -1 -0
-7 -8 -6 -6 -5 -5 -5 -4 -5 -6 -5 -5 -5 -5 -5 -5 -4 -4 -4 -4 -3 -3 -3 -2 -3 -2 -3 -3 -3 -2 -2 -3 -3 -3 -3 -3 -3 -3 -3 -3 -3 -2 -1 -0
-7 -8 -6 -6 -6 -5 -5 -5 -5 -7 -6 -5 -5 -5 -5 -5 -5 -4 -4 -3 -3 -3 -3 -3 -3 -3 -3 -3 -3 -3 -3 -3 -3 -3 -3 -3 -3 -3 -3 -3 -3 -3 -2 -1
-7 -7 -7 -6 -6 -6 -6 -5 -5 -6 -6 -5 -5 -5 -5 -5 -5 -4 -4 -4 -4 -3 -3 -3 -4 -3 -3 -3 -3 -3 -3 -3 -3 -3 -4 -3 -3 -2 -2 -2 -2 -2 -2 -2
-7 -7 -8 -7 -7 -6 -6 -6 -5 -5 -6 -5 -4 -5 -5 -5 -4 -4 -4 -4 -4 -4 -4 -4 -4 -4 -3 -4 -4 -4 -4 -4 -4 -3 -3 -5 -3 -2 -2 -2 -2 -2 -2 -2
-7 -7 -8 -7 -7 -7 -6 -6 -5 -5 -5 -5 -5 -4 -4 -5 -4 -4 -4 -4 -4 -4 -4 -4 -4 -4 -4 -4 -4 -4 -4 -4 -4 -4 -4 -3 -3 -2 -2 -2 -2 -2 -2 -2
-7 -7 -8 -8 -7 -7 -7 -6 -6 -5 -5 -5 -5 -5 -5 -4 -4 -4 -4 -4 -4 -4 -4 -4 -4 -4 -5 -5 -5 -4 -4 -5 -4 -4 -5 -5 -3 -3 -3 -2 -2 -2 -3 -2
-7 -8 -8 -8 -8 -7 -7 -7 -6 -5 -5 -5 -5 -6 -5 -5 -5 -4 -4 -4 -4 -4 -4 -4 -4 -4 -4 -5 -5 -5 -5 -5 -5 -5 -5 -3 -3 -3 -3 -2 -2 -3 -2 -2
-7 -8 -8 -8 -8 -7 -7 -7 -7 -6 -5 -5 -5 -6 -5 -6 -5 -5 -4 -4 -4 -4 -4 -4 -4 -4 -4 -4 -4 -4 -4 -4 -5 -5 -5 -4 -3 -3 -3 -3 -3 -2 -2 -2
-8 -8 -8 -8 -8 -8 -7 -7 -7 -6 -5 -5 -5 -5 -5 -6 -6 -5 -5 -5 -5 -4 -4 -4 -4 -4 -4 -4 -4 -4 -4 -4 -4 -3 -3 -3 -3 -3 -3 -3 -3 -2 -2 -2
-8 -8 -9 -8 -8 -8 -8 -8 -8 -7 -6 -5 -5 -5 -6 -6 -6 -6 -5 -5 -5 -5 -5 -5 -5 -5 -5 -5 -5 -4 -4 -4 -4 -3 -3 -3 -3 -3 -3 -3 -2 -3 -2 -2
-9 -9 -9 -9 -8 -8 -9 -8 -9 -8 -7 -6 -6 -5 -5 -6 -6 -5 -5 -5 -5 -5 -6 -6 -6 -6 -5 -5 -5 -4 -4 -4 -4 -3 -3 -3 -3 -3 -3 -3 -3 -2 -2 -2
-9 -9 -9 -9 -9 -9 -9 -9 -9 -10 -9 -8 -7 -6 -5 -6 -6 -6 -5 -6 -5 -5 -6 -6 -6 -6 -6 -5 -5 -4 -3 -3 -4 -3 -4 -4 -3 -3 -3 -3 -3 -3 -2 -2
-9 -10 -9 -9 -10 -11 -11 -11 -11 -10 -10 -8 -8 -7 -6 -6 -5 -5 -5 -6 -5 -6 -6 -5 -6 -6 -6 -6 -6 -3 -4 -4 -4 -4 -4 -3 -3 -3 -3 -3 -2 -2 -2 -2
-10 -10 -10 -11 -11 -11 -11 -12 -11 -11 -10 -9 -7 -7 -7 -6 -6 -6 -5 -5 -6 -6 -6 -5 -5 -5 -5 -5 -5 -4 -4 -4 -4 -4 -5 -4 -4 -4 -4 -3 -3 -3 -2 -2
-10 -10 -10 -11 -11 -11 -11 -11 -12 -11 -10 -9 -7 -6 -6 -6 -6 -5 -6 -5 -6 -6 -6 -6 -6 -5 -5 -5 -5 -4 -4 -4 -4 -4 -4 -4 -4 -4 -4 -4 -3 -3 -2 -2
-9 -10 -10 -11 -11 -12 -11 -12 -11 -10 -10 -9 -7 -6 -6 -5 -6 -6 -6 -6 -6 -6 -6 -6 -6 -6 -6 -5 -5 -5 -5 -5 -4 -4 -4 -4 -5 -5 -4 -4 -4 -3 -3 -2
-9 -9 -10 -10 -10 -10 -11 -10 -10 -9 -9 -8 -7 -6 -6 -6 -6 -5 -5 -5 -6 -6 -6 -6 -6 -6 -5 -5 -5 -6 -5 -6 -5 -6 -5 -5 -5 -5 -5 -5 -5 -5 -4 -3
-9 -9 -9 -9 -9 -9 -9 -9 -9 -8 -8 -7 -6 -6 -6 -6 -5 -5 -6 -5 -6 -6 -5 -6 -6 -5 -4 -5 -6 -6 -6 -6 -6 -4 -4 -4 -3 -3 -3 -3 -3 -4 -4 -3
-9 -9 -9 -9 -8 -9 -8 -8 -8 -7 -7 -6 -6 -6 -6 -6 -6 -6 -6 -5 -5 -5 -5 -6 -5 -4 -5 -6 -6 -6 -6 -5 -5 -4 -4 -3 -2 -2 -2 -2 -3 -3 -3 -3
-9 -9 -9 -8 -8 -8 -8 -7 -7 -6 -6 -6 -6 -6 -6 -6 -6 -6 -5 -5 -5 -5 -5 -5 -5 -5 -5 -6 -6 -6 -6 -5 -5 -4 -4 -4 -3 -3 -2 -2 -3 -4 -3 -3
-9 -9 -9 -8 -8 -8 -8 -7 -7 -6 -6 -6 -6 -6 -6 -6 -6 -6 -6 -6 -5 -5 -5 -5 -4 -5 -6 -6 -6 -6 -6 -6 -5 -5 -5 -5 -5 -4 -4 -3 -4 -3 -3 -3
-10 -9 -9 -8 -8 -7 -7 -7 -7 -6 -6 -7 -6 -6 -6 -6 -6 -6 -6 -6 -5 -5 -5 -5 -5 -5 -5 -5 -5 -5 -5 -5 -5 -5 -5 -5 -4 -4 -4 -4 -4 -3 -3 -3
-11 -9 -8 -8 -8 -7 -7 -7 -7 -7 -7 -7 -7 -7 -6 -6 -6 -6 -6 -6 -5 -5 -5 -5 -5 -5 -5 -5 -5 -5 -6 -6 -5 -5 -5 -5 -5 -5 -4 -4 -4 -4 -3 -3
-10 -9 -9 -8 -8 -8 -8 -8 -7 -7 -7 -7 -7 -7 -6 -7 -7 -7 -6 -6 -5 -5 -5 -5 -5 -5 -5 -5 -5 -6 -6 -5 -6 -6 -6 -6 -5 -5 -5 -5 -5 -5 -4 -4

GFSNW_700_temp_072.txt.gz
Temp
-5 -6 -5 -5 -4 -4 -4 -4 -5 -5 -4 -4 -5 -5 -5 -5 -5 -5 -5 -4 -4 -3 -3 -3 -3 -3 -3 -2 -2 -1 -1 -3 -4 -4 -3 -3 -3 -2 -1 -1 -2 -3 -2 1
-6 -6 -5 -5 -4 -4 -4 -4 -4 -5 -4 -5 -6 -5 -5 -5 -4 -4 -4 -4 -3 -3 -2 -2 -3 -3 -2 -2 -2 -2 -1 -3 -4 -4 -4 -3 -3 -3 -2 -2 -1 -2 0 0
-5 -6 -6 -5 -5 -4 -4 -3 -4 -5 -6 -6 -5 -5 -5 -5 -4 -4 -3 -4 -3 -2 -2 -2 -2 -3 -3 -3 -2 -2 -1 -2 -3 -1 -2 -3 -3 -2 -2 -2 -2 -2 -1 -1
-6 -6 -6 -6 -5 -5 -4 -4 -5 -5 -5 -5 -5 -5 -5 -5 -5 -4 -4 -4 -3 -3 -3 -2 -2 -3 -3 -3 -2 -2 -2 -3 -2 -2 -2 -2 -3 -3 -3 -3 -2 -1 -1 -1
-5 -6 -6 -6 -6 -5 -6 -4 -5 -6 -5 -5 -5 -6 -4 -5 -4 -4 -4 -4 -3 -3 -3 -3 -3 -2 -2 -3 -3 -3 -2 -3 -3 -4 -3 -3 -3 -3 -3 -4 -3 -3 -2 -1
-6 -7 -7 -7 -6 -6 -6 -5 -5 -5 -5 -5 -5 -5 -5 -5 -5 -4 -4 -4 -3 -3 -3 -3 -3 -3 -3 -3 -3 -3 -3 -2 -3 -3 -3 -3 -2 -2 -2 -2 -2 -2 -2 -2
-5 -6 -7 -7 -7 -6 -6 -6 -5 -5 -5 -5 -5 -5 -5 -5 -5 -5 -4 -4 -4 -4 -4 -4 -4 -4 -3 -3 -3 -3 -3 -3 -3 -3 -3 -1 -2 -2 -2 -3 -3 -2 -2 -2
-6 -6 -7 -7 -7 -7 -6 -6 -6 -5 -5 -5 -5 -5 -4 -4 -5 -4 -4 -4 -4 -4 -4 -4 -4 -4 -4 -4 -4 -4 -4 -4 -4 -3 -3 -2 -2 -2 -2 -2 -2 -2 -2 -2
-6 -7 -7 -8 -7 -7 -7 -6 -6 -6 -6 -5 -5 -5 -5 -5 -5 -4 -4 -4 -4 -4 -4 -4 -4 -4 -4 -5 -5 -4 -4 -4 -4 -4 -3 -2 -3 -3 -2 -2 -3 -2 -3 -2
-6 -7 -8 -8 -8 -8 -7 -7 -6 -6 -6 -5 -5 -5 -5 -5 -5 -5 -5 -4 -4 -4 -4 -4 -4 -4 -4 -4 -5 -5 -5 -5 -5 -5 -4 -3 -3 -3 -3 -2 -2 -2 -2 -2
-7 -7 -8 -8 -8 -8 -8 -7 -7 -6 -5 -5 -5 -6 -6 -5 -5 -5 -5 -5 -5 -4 -4 -4 -4 -4 -4 -4 -4 -4 -4 -4 -6 -5 -5 -3 -3 -3 -3 -3 -2 -3 -3 -2
-7 -8 -8 -9 -9 -9 -8 -8 -8 -7 -6 -5 -6 -5 -6 -6 -5 -6 -5 -5 -5 -5 -5 -4 -4 -4 -4 -4 -4 -4 -4 -4 -4 -3 -4 -3 -4 -4 -3 -3 -3 -3 -3 -2
-8 -8 -9 -9 -9 -9 -9 -8 -8 -7 -6 -5 -4 -5 -6 -6 -6 -6 -5 -6 -5 -5 -5 -5 -5 -5 -5 -5 -4 -4 -4 -4 -4 -3 -3 -4 -3 -3 -3 -3 -3 -3 -3 -2
-8 -9 -9 -10 -10 -9 -9 -8 -9 -9 -8 -7 -5 -5 -6 -6 -6 -6 -6 -6 -6 -6 -6 -6 -6 -5 -5 -5 -5 -4 -4 -4 -3 -3 -3 -4 -3 -3 -4 -3 -3 -3 -3 -2
-9 -9 -10 -10 -9 -9 -9 -10 -10 -10 -10 -8 -6 -5 -5 -6 -6 -6 -6 -6 -5 -5 -5 -5 -5 -6 -6 -5 -5 -3 -3 -3 -4 -4 -4 -4 -4 -3 -3 -3 -3 -3 -3 -3
-9 -9 -10 -10 -10 -10 -11 -10 -10 -11 -11 -11 -8 -6 -6 -6 -6 -6 -6 -6 -5 -5 -5 -5 -5 -6 -6 -6 -6 -3 -3 -3 -4 -4 -4 -4 -4 -4 -4 -4 -3 -3 -3 -2
-9 -10 -10 -10 -11 -11 -11 -11 -11 -11 -12 -12 -9 -7 -6 -6 -6 -5 -5 -5 -5 -5 -5 -5 -5 -5 -6 -6 -6 -3 -4 -4 -4 -4 -4 -4 -5 -4 -4 -4 -4 -3 -3 -3
-9 -10 -10 -10 -10 -11 -12 -11 -11 -12 -12 -12 -9 -7 -7 -6 -6 -5 -5 -5 -5 -5 -5 -5 -6 -6 -5 -5 -4 -4 -4 -5 -4 -4 -4 -5 -4 -5 -5 -4 -4 -4 -3 -3
-9 -9 -9 -10 -10 -11 -12 -11 -12 -12 -12 -10 -9 -7 -6 -6 -5 -5 -5 -6 -6 -6 -6 -6 -6 -6 -5 -5 -5 -5 -6 -5 -5 -5 -4 -4 -4 -4 -5 -5 -5 -5 -4 -3
-9 -9 -9 -9 -10 -10 -11 -11 -11 -11 -10 -10 -8 -7 -6 -6 -5 -6 -6 -6 -6 -6 -6 -6 -6 -6 -6 -6 -6 -6 -6 -5 -6 -6 -6 -5 -5 -5 -5 -5 -5 -5 -4 -4
-9 -9 -9 -10 -9 -10 -10 -10 -10 -9 -9 -8 -7 -7 -6 -6 -6 -5 -6 -5 -6 -6 -6 -6 -6 -6 -4 -5 -5 -6 -6 -6 -6 -6 -6 -5 -5 -4 -4 -4 -3 -3 -4 -4
-9 -9 -9 -9 -9 -9 -9 -9 -8 -8 -7 -7 -6 -6 -6 -6 -6 -6 -6 -6 -6 -6 -6 -6 -5 -4 -4 -5 -6 -6 -6 -6 -6 -5 -5 -5 -4 -3 -3 -2 -2 -2 -3 -4
-9 -9 -9 -9 -9 -9 -8 -8 -7 -7 -7 -6 -6 -6 -6 -6 -6 -6 -6 -6 -6 -6 -6 -5 -5 -5 -5 -6 -6 -6 -6 -6 -6 -5 -5 -5 -5 -4 -3 -3 -2 -3 -3 -4
-9 -9 -9 -9 -8 -8 -8 -7 -7 -7 -7 -6 -6 -6 -6 -6 -6 -6 -6 -6 -6 -6 -6 -5 -5 -5 -5 -6 -6 -6 -6 -6 -6 -6 -6 -6 -5 -5 -5 -4 -4 -3 -4 -4
-10 -10 -9 -9 -8 -8 -8 -8 -7 -7 -7 -7 -7 -6 -6 -6 -6 -6 -6 -6 -6 -5 -5 -5 -5 -5 -5 -6 -6 -6 -6 -6 -6 -6 -6 -6 -5 -5 -5 -4 -4 -4 -3 -4
-10 -10 -9 -9 -8 -9 -9 -8 -7 -7 -7 -7 -7 -7 -6 -6 -6 -6 -6 -6 -5 -5 -5 -5 -5 -5 -5 -5 -5 -5 -6 -6 -6 -6 -6 -6 -5 -5 -5 -5 -5 -4 -4 -3
-10 -9 -9 -9 -9 -9 -8 -9 -8 -8 -7 -7 -7 -7 -7 -7 -7 -6 -6 -6 -5 -5 -5 -5 -5 -5 -5 -5 -5 -6 -6 -6 -6 -6 -6 -5 -6 -6 -6 -5 -5 -5 -5 -4

GFSNW_700_temp_075.txt.gz
Temp
-3 -4 -4 -5 -4 -3 -4 -4 -4 -4 -4 -3 -4 -5 -5 -5 -5 -5 -4 -4 -4 -3 -3 -2 -3 -3 -3 -2 -2 -1 -1 -2 -3 -4 -3 -3 -3 -2 -2 -1 -0 -0 -1 1
-3 -4 -4 -5 -4 -4 -4 -4 -5 -4 -4 -4 -5 -5 -5 -5 -4 -4 -4 -4 -3 -3 -3 -2 -3 -3 -2 -2 -1 -2 -2 -2 -3 -3 -3 -2 -3 -2 -2 -1 -1 -1 2 1
-3 -4 -5 -5 -5 -4 -4 -4 -5 -5 -5 -5 -4 -4 -5 -4 -4 -4 -3 -3 -3 -3 -3 -2 -2 -3 -2 -2 -1 -1 -1 -2 -1 1 -1 -2 -3 -2 -2 -2 -1 -1 1 -1
-4 -4 -5 -5 -5 -4 -4 -4 -5 -5 -6 -6 -6 -5 -5 -4 -4 -4 -4 -4 -3 -3 -2 -3 -2 -2 -2 -2 -2 -1 -2 -2 -2 -3 -3 -3 -3 -2 -3 -2 -1 -0 -0 -0
-4 -4 -4 -5 -5 -5 -5 -5 -5 -5 -6 -6 -5 -6 -5 -5 -4 -4 -4 -4 -3 -3 -3 -3 -3 -3 -3 -3 -2 -2 -2 -3 -3 -3 -2 -2 -3 -3 -3 -3 -3 -3 -2 -2
-5 -5 -5 -5 -5 -5 -5 -6 -5 -5 -5 -6 -5 -5 -5 -5 -4 -4 -4 -3 -4 -3 -3 -3 -3 -3 -3 -2 -3 -2 -2 -3 -2 -3 -3 -3 -3 -3 -3 -3 -2 -3 -2 -2
-5 -6 -6 -6 -6 -6 -6 -6 -6 -5 -5 -5 -5 -5 -5 -5 -5 -5 -4 -4 -4 -4 -4 -4 -4 -3 -3 -3 -2 -3 -3 -3 -2 -1 -3 -1 -2 -2 -2 -3 -2 -2 -2 -2
-6 -6 -7 -7 -7 -7 -7 -6 -6 -6 -5 -5 -5 -5 -5 -5 -5 -5 -4 -4 -4 -4 -4 -4 -4 -4 -4 -4 -4 -4 -4 -3 -3 -2 -1 -2 -2 -2 -2 -2 -3 -2 -2 -2
-6 -6 -6 -7 -7 -7 -7 -7 -7 -7 -6 -5 -5 -5 -5 -5 -5 -4 -5 -5 -4 -4 -4 -4 -3 -2 -3 -4 -5 -4 -4 -4 -3 -3 -1 -0 -2 -2 -2 -2 -3 -2 -2 -2
-7 -7 -7 -8 -7 -8 -8 -8 -7 -7 -6 -5 -5 -5 -5 -5 -5 -5 -5 -4 -4 -4 -4 -4 -3 -2 -4 -3 -3 -4 -4 -4 -3 -3 -2 -2 -3 -3 -2 -2 -2 -2 -2 -2
-7 -7 -7 -8 -8 -8 -8 -8 -8 -7 -6 -6 -5 -5 -5 -5 -5 -5 -4 -4 -4 -4 -5 -4 -4 -3 -4 -4 -4 -4 -4 -3 -3 -4 -3 -2 -3 -3 -3 -3 -3 -2 -3 -2
-7 -7 -7 -8 -8 -8 -9 -9 -8 -8 -7 -6 -6 -5 -5 -5 -5 -5 -5 -5 -5 -5 -5 -5 -4 -4 -4 -4 -2 -3 -3 -4 -3 -3 -3 -3 -3 -3 -3 -3 -3 -3 -3 -2
-7 -7 -8 -8 -8 -8 -9 -9 -9 -8 -7 -6 -5 -5 -5 -5 -6 -6 -6 -6 -5 -5 -5 -5 -5 -5 -4 -4 -3 -4 -3 -3 -3 -3 -3 -3 -3 -3 -3 -3 -3 -3 -3 -2
-7 -8 -8 -8 -8 -9 -9 -9 -9 -9 -9 -7 -5 -5 -5 -5 -6 -5 -6 -6 -6 -6 -6 -5 -5 -5 -5 -5 -5 -4 -4 -3 -3 -3 -3 -3 -4 -4 -3 -3 -3 -3 -3 -3
-8 -8 -8 -9 -9 -9 -9 -10 -10 -11 -11 -9 -6 -7 -6 -5 -5 -5 -6 -6 -6 -5 -5 -5 -5 -5 -5 -5 -4 -3 -3 -3 -4 -3 -3 -3 -4 -3 -3 -3 -3 -3 -3 -3
-8 -8 -9 -10 -9 -10 -10 -10 -10 -11 -12 -12 -9 -6 -6 -6 -6 -6 -6 -6 -6 -6 -5 -5 -5 -5 -6 -6 -5 -4 -3 -3 -3 -3 -3 -4 -4 -4 -4 -4 -3 -3 -3 -3
-8 -9 -9 -10 -9 -10 -11 -11 -11 -11 -12 -12 -11 -8 -7 -6 -7 -7 -6 -6 -6 -6 -5 -5 -5 -5 -5 -5 -6 -4 -4 -4 -4 -4 -4 -4 -4 -5 -4 -4 -4 -4 -3 -3
-8 -8 -9 -9 -9 -9 -11 -12 -12 -12 -12 -12 -11 -8 -7 -7 -6 -6 -6 -6 -6 -6 -5 -5 -5 -5 -5 -5 -4 -4 -4 -4 -5 -5 -4 -4 -4 -4 -4 -5 -5 -4 -4 -3
-9 -8 -8 -9 -9 -9 -10 -11 -11 -12 -12 -11 -11 -9 -7 -7 -6 -6 -5 -5 -6 -5 -5 -5 -5 -5 -5 -4 -4 -5 -5 -6 -6 -6 -6 -5 -4 -4 -4 -5 -5 -4 -5 -4
-8 -7 -9 -9 -9 -9 -10 -11 -11 -11 -11 -10 -9 -8 -8 -7 -6 -6 -5 -6 -5 -6 -5 -5 -6 -5 -4 -5 -6 -6 -6 -6 -6 -6 -6 -7 -6 -5 -5 -5 -5 -5 -6 -5
-8 -8 -8 -9 -9 -9 -10 -10 -10 -10 -9 -8 -8 -8 -7 -7 -6 -6 -6 -6 -6 -6 -6 -6 -6 -6 -3 -4 -4 -6 -6 -6 -6 -6 -6 -7 -7 -6 -5 -5 -4 -4 -4 -4
-9 -9 -8 -9 -9 -9 -10 -9 -9 -9 -8 -7 -7 -7 -6 -6 -6 -6 -6 -6 -6 -6 -6 -6 -6 -4 -4 -5 -5 -6 -7 -6 -6 -6 -6 -6 -6 -5 -5 -4 -3 -3 -2 -2
-9 -9 -9 -9 -9 -9 -9 -8 -8 -8 -7 -7 -7 -7 -7 -6 -6 -6 -6 -6 -6 -6 -6 -6 -5 -5 -5 -6 -6 -6 -6 -6 -6 -6 -5 -6 -6 -5 -5 -5 -3 -3 -2 -2
-9 -10 -9 -9 -9 -9 -9 -9 -8 -8 -8 -7 -7 -7 -6 -6 -6 -6 -6 -6 -6 -6 -6 -5 -5 -5 -5 -5 -6 -6 -6 -6 -6 -6 -6 -6 -6 -6 -6 -5 -5 -4 -4 -3
-10 -10 -9 -9 -9 -9 -9 -9 -8 -8 -8 -7 -7 -7 -6 -6 -6 -6 -6 -6 -6 -6 -5 -5 -5 -5 -5 -5 -6 -6 -6 -6 -6 -6 -6 -6 -6 -6 -6 -5 -5 -5 -5 -4
-10 -10 -9 -9 -9 -9 -9 -9 -9 -8 -8 -7 -7 -7 -6 -6 -6 -6 -6 -6 -6 -5 -5 -5 -5 -5 -5 -5 -6 -6 -6 -6 -6 -6 -6 -6 -6 -6 -6 -6 -5 -5 -5 -5
-10 -10 -10 -10 -10 -10 -9 -10 -9 -9 -8 -8 -7 -7 -7 -7 -7 -6 -6 -6 -6 -6 -6 -6 -5 -5 -5 -5 -6 -6 -6 -6 -6 -6 -6 -6 -5 -5 -5 -5 -5 -6 -5 -5

GFSNW_700_temp_078.txt.gz
Temp
-3 -3 -3 -3 -3 -3 -3 -3 -3 -4 -3 -3 -5 -5 -5 -4 -5 -4 -4 -4 -3 -3 -3 -2 -2 -3 -3 -3 -3 -3 -3 -3 -3 -4 -3 -2 -2 -2 -1 -2 -2 -1 -0 -1
-3 -3 -3 -3 -4 -3 -3 -3 -4 -4 -4 -4 -5 -5 -5 -4 -4 -4 -3 -3 -3 -3 -2 -2 -3 -2 -2 -2 -2 -2 -3 -3 -3 -4 -4 -3 -3 -2 -2 -3 -2 -1 -1 -1
-4 -4 -4 -3 -4 -4 -4 -4 -4 -4 -4 -6 -6 -6 -4 -4 -4 -4 -4 -4 -3 -2 -2 -2 -3 -2 -2 -1 -1 -1 -2 -2 -2 -2 -1 -2 -3 -2 -2 -2 -2 0 0 -0
-4 -4 -4 -4 -4 -4 -4 -4 -5 -5 -5 -6 -6 -6 -6 -4 -4 -4 -3 -4 -3 -3 -2 -2 -3 -3 -2 -2 -2 -1 -2 -3 -2 -2 -2 -2 -2 -3 -3 -3 -1 -1 -0 -0
-5 -5 -5 -4 -4 -5 -5 -4 -5 -5 -5 -5 -5 -5 -6 -5 -5 -4 -4 -4 -4 -3 -2 -3 -3 -3 -3 -3 -2 -2 -2 -3 -2 -3 -2 -2 -2 -2 -3 -2 -2 -1 -1 -1
-5 -5 -5 -5 -5 -4 -4 -5 -5 -5 -5 -5 -6 -6 -5 -5 -5 -4 -4 -4 -4 -3 -3 -3 -3 -3 -3 -3 -3 -2 -2 -2 -2 -3 -2 -2 -3 -3 -3 -3 -2 -2 -2 -2
-5 -6 -6 -6 -6 -5 -5 -5 -5 -5 -5 -5 -6 -5 -5 -5 -6 -5 -4 -4 -4 -4 -3 -4 -3 -3 -3 -3 -2 -2 -2 -2 -2 -2 -2 -4 -2 -2 -3 -3 -3 -2 -2 -2
-6 -6 -6 -6 -6 -6 -6 -6 -6 -6 -6 -5 -5 -5 -5 -5 -5 -4 -5 -4 -4 -4 -4 -3 -4 -3 -3 -4 -3 -3 -3 -3 -2 -2 -1 -2 -2 -2 -2 -3 -2 -2 -2 -2
-6 -6 -6 -6 -6 -7 -7 -7 -7 -7 -6 -6 -5 -5 -5 -5 -5 -4 -5 -4 -4 -4 -4 -4 -4 -3 -3 -3 -4 -4 -3 -3 -3 -3 -2 -2 -2 -2 -2 -3 -3 -2 -2 -2
-6 -6 -6 -6 -7 -7 -7 -7 -7 -6 -7 -6 -6 -5 -5 -6 -5 -5 -5 -4 -4 -4 -4 -4 -3 -3 -3 -3 -3 -3 -4 -4 -3 -2 -2 -2 -2 -2 -2 -2 -2 -3 -2 -2
-6 -6 -6 -7 -7 -7 -7 -7 -8 -7 -6 -6 -6 -6 -6 -5 -5 -5 -5 -5 -4 -4 -4 -4 -4 -4 -4 -3 -3 -4 -4 -3 -3 -3 -3 -3 -3 -3 -3 -3 -3 -3 -3 -2
-6 -6 -7 -7 -7 -7 -8 -8 -8 -8 -7 -7 -7 -6 -6 -5 -6 -6 -5 -5 -5 -5 -5 -5 -4 -4 -4 -4 -4 -3 -3 -3 -3 -3 -3 -3 -3 -3 -3 -3 -3 -3 -3 -2
-6 -6 -7 -7 -7 -8 -8 -9 -9 -8 -7 -6 -6 -6 -6 -5 -5 -6 -6 -6 -5 -5 -5 -5 -5 -5 -4 -4 -4 -4 -3 -3 -3 -3 -3 -3 -3 -3 -3 -3 -3 -3 -3 -3
-6 -7 -8 -8 -8 -9 -9 -9 -9 -10 -9 -8 -7 -8 -7 -6 -5 -5 -6 -6 -5 -5 -5 -5 -5 -5 -5 -5 -4 -4 -4 -4 -3 -3 -3 -3 -3 -3 -3 -3 -3 -3 -3 -3
-7 -8 -8 -8 -8 -9 -8 -9 -10 -10 -11 -11 -9 -8 -6 -6 -5 -5 -6 -6 -6 -5 -5 -5 -5 -5 -5 -5 -4 -4 -3 -3 -4 -4 -4 -4 -4 -3 -3 -3 -3 -3 -3 -3
-7 -7 -8 -8 -9 -9 -9 -8 -10 -11 -12 -11 -11 -8 -8 -7 -6 -6 -6 -6 -6 -6 -6 -6 -5 -5 -5 -5 -5 -4 -4 -4 -4 -4 -3 -4 -4 -4 -4 -4 -4 -4 -4 -3
-7 -7 -8 -8 -9 -9 -9 -9 -10 -12 -12 -12 -11 -9 -8 -7 -6 -6 -6 -7 -7 -7 -6 -6 -5 -5 -5 -5 -5 -3 -4 -4 -3 -4 -4 -4 -4 -4 -4 -4 -4 -4 -4 -4
-7 -7 -7 -7 -8 -8 -9 -9 -10 -11 -12 -12 -12 -9 -8 -7 -8 -7 -7 -7 -7 -6 -6 -6 -5 -5 -5 -5 -3 -3 -3 -4 -4 -4 -5 -5 -4 -4 -4 -4 -5 -5 -5 -4
-8 -8 -7 -7 -8 -9 -9 -10 -10 -11 -12 -12 -11 -11 -9 -7 -6 -7 -6 -6 -6 -6 -5 -6 -6 -6 -6 -4 -4 -4 -4 -5 -5 -6 -6 -6 -5 -4 -4 -4 -5 -5 -5 -5
-8 -8 -8 -8 -8 -8 -9 -10 -10 -11 -11 -12 -9 -9 -9 -8 -7 -6 -6 -6 -6 -6 -6 -5 -6 -6 -3 -3 -4 -5 -5 -5 -6 -6 -6 -6 -7 -6 -6 -5 -5 -5 -4 -4
-8 -8 -8 -8 -7 -8 -8 -10 -10 -10 -10 -9 -8 -7 -7 -7 -7 -6 -6 -6 -6 -6 -6 -6 -6 -5 -3 -4 -4 -4 -4 -4 -6 -6 -6 -7 -7 -7 -7 -7 -5 -4 -4 -4
-9 -9 -8 -7 -8 -9 -9 -9 -9 -9 -8 -8 -8 -8 -7 -7 -7 -6 -6 -6 -5 -6 -7 -6 -6 -3 -4 -4 -4 -5 -5 -7 -7 -6 -6 -6 -6 -6 -6 -6 -5 -5 -4 -3
-9 -9 -8 -8 -9 -9 -9 -9 -9 -9 -9 -9 -8 -8 -7 -7 -7 -6 -6 -6 -6 -6 -6 -6 -4 -4 -5 -5 -5 -6 -6 -6 -7 -6 -6 -6 -6 -6 -6 -6 -6 -5 -4 -3
-9 -9 -9 -9 -10 -9 -9 -9 -10 -9 -9 -8 -8 -8 -7 -7 -6 -6 -6 -6 -6 -6 -6 -6 -5 -5 -5 -6 -6 -6 -6 -6 -6 -6 -6 -6 -6 -6 -6 -6 -6 -6 -6 -5
-10 -10 -9 -9 -9 -9 -9 -10 -9 -9 -9 -8 -8 -7 -7 -7 -6 -6 -6 -6 -6 -6 -6 -5 -5 -5 -5 -5 -6 -6 -6 -6 -6 -6 -6 -6 -6 -6 -6 -6 -6 -6 -5 -6
-11 -10 -9 -9 -9 -9 -10 -10 -10 -10 -9 -8 -8 -7 -7 -7 -6 -6 -6 -6 -6 -6 -6 -6 -6 -6 -5 -6 -6 -6 -6 -6 -6 -6 -6 -6 -6 -6 -6 -5 -5 -6 -6 -5
-10 -10 -10 -10 -10 -10 -10 -10 -10 -10 -9 -9 -8 -8 -7 -7 -7 -6 -6 -6 -6 -6 -6 -6 -6 -6 -6 -6 -6 -6 -6 -6 -6 -6 -6 -6 -6 -6 -5 -5 -5 -5 -5 -5

GFSNW_700_temp_081.txt.gz
Temp
-4 -4 -4 -3 -2 -2 -3 -3 -4 -4 -4 -4 -3 -5 -5 -4 -4 -4 -4 -4 -3 -3 -3 -3 -3 -4 -3 -3 -3 -3 -3 -4 -4 -4 -3 -3 -2 -1 -1 -0 -3 -1 -1 -1
-4 -4 -4 -3 -3 -3 -3 -3 -4 -5 -4 -5 -4 -5 -4 -5 -4 -4 -4 -4 -3 -3 -2 -2 -2 -2 -2 -3 -3 -3 -3 -3 -4 -4 -3 -4 -3 -2 -1 -1 -1 -1 -3 -1
-4 -4 -3 -4 -3 -3 -3 -3 -4 -5 -5 -6 -6 -5 -4 -4 -4 -4 -4 -4 -3 -3 -3 -2 -2 -2 -2 -2 -2 -3 -2 -2 -2 -4 -2 -3 -3 -2 -2 -1 -1 -1 -1 -0
-4 -4 -4 -4 -4 -4 -4 -4 -5 -5 -5 -6 -6 -6 -5 -4 -4 -4 -4 -4 -3 -3 -3 -3 -3 -3 -2 -2 -2 -2 -2 -3 -2 -2 -2 -2 -2 -2 -2 -2 -1 -1 -0 -0
-3 -4 -5 -4 -4 -5 -5 -4 -5 -5 -5 -6 -5 -5 -5 -6 -5 -4 -4 -4 -4 -3 -3 -3 -3 -3 -3 -3 -2 -2 -2 -3 -2 -3 -2 -3 -2 -2 -2 -2 -2 -3 -1 -1
-3 -4 -5 -5 -5 -5 -5 -5 -6 -6 -5 -6 -6 -5 -6 -5 -5 -4 -5 -4 -5 -4 -4 -3 -3 -3 -3 -3 -2 -2 -2 -2 -2 -3 -3 -3 -3 -3 -2 -2 -2 -2 -1 -1
-3 -5 -5 -5 -6 -6 -5 -5 -6 -6 -6 -6 -6 -6 -6 -5 -5 -5 -4 -4 -4 -4 -4 -4 -3 -3 -3 -3 -2 -2 -2 -2 -2 -3 -3 -5 -2 -2 -3 -2 -2 -2 -2 -2
-3 -5 -5 -5 -6 -6 -6 -6 -6 -6 -6 -6 -6 -6 -6 -5 -5 -5 -4 -5 -4 -4 -4 -4 -4 -4 -4 -3 -3 -3 -3 -2 -2 -2 -2 -3 -3 -3 -3 -3 -3 -3 -3 -2
-2 -5 -6 -6 -6 -6 -6 -6 -7 -6 -7 -7 -7 -7 -6 -5 -5 -5 -5 -5 -5 -4 -4 -4 -4 -4 -3 -3 -3 -3 -3 -3 -3 -3 -2 -3 -3 -2 -3 -3 -3 -3 -3 -3
-2 -4 -6 -6 -6 -7 -7 -6 -6 -6 -7 -7 -7 -6 -7 -6 -6 -5 -5 -5 -5 -4 -4 -4 -4 -4 -4 -3 -3 -4 -4 -4 -3 -3 -3 -3 -3 -2 -3 -3 -3 -3 -3 -3
-3 -5 -6 -6 -6 -6 -7 -8 -7 -7 -6 -7 -7 -7 -6 -6 -6 -5 -5 -5 -5 -4 -4 -4 -4 -4 -4 -4 -4 -4 -4 -3 -3 -3 -3 -4 -3 -3 -3 -3 -3 -3 -3 -3
-4 -6 -6 -6 -7 -7 -8 -8 -8 -7 -8 -7 -8 -7 -6 -6 -6 -5 -5 -5 -5 -5 -5 -5 -4 -4 -4 -4 -4 -4 -4 -3 -3 -3 -3 -3 -3 -3 -3 -3 -3 -3 -3 -3
-5 -6 -7 -7 -7 -7 -8 -8 -8 -8 -8 -7 -7 -8 -8 -7 -7 -5 -5 -6 -5 -5 -5 -5 -5 -5 -5 -4 -4 -4 -4 -4 -4 -3 -3 -3 -3 -3 -3 -3 -3 -3 -3 -3
-5 -6 -7 -7 -7 -7 -8 -8 -8 -8 -8 -9 -9 -9 -8 -8 -7 -6 -5 -6 -6 -5 -5 -5 -5 -5 -5 -5 -5 -4 -4 -4 -4 -4 -4 -4 -3 -3 -3 -3 -3 -3 -3 -3
-6 -6 -7 -7 -7 -7 -8 -9 -8 -9 -9 -10 -9 -10 -9 -8 -7 -6 -6 -6 -6 -6 -6 -6 -6 -5 -5 -5 -5 -4 -4 -4 -4 -4 -4 -4 -4 -4 -4 -4 -4 -4 -4 -4
-6 -7 -7 -7 -7 -7 -8 -9 -9 -10 -12 -12 -11 -10 -10 -8 -7 -6 -6 -6 -6 -6 -6 -6 -6 -5 -5 -5 -5 -4 -4 -4 -4 -4 -4 -5 -4 -4 -4 -4 -4 -4 -4 -4
-6 -7 -7 -8 -7 -7 -8 -9 -10 -10 -12 -12 -11 -10 -9 -8 -7 -7 -6 -7 -7 -7 -7 -6 -6 -6 -6 -5 -4 -4 -4 -4 -4 -4 -4 -4 -5 -5 -5 -4 -4 -4 -4 -4
-6 -7 -7 -7 -7 -8 -9 -9 -10 -10 -11 -11 -11 -10 -9 -9 -8 -8 -8 -7 -7 -7 -7 -6 -6 -6 -6 -5 -3 -3 -4 -4 -4 -4 -5 -5 -5 -5 -5 -4 -4 -5 -5 -5
-6 -7 -7 -7 -7 -8 -8 -8 -9 -9 -10 -12 -11 -9 -9 -9 -8 -8 -7 -6 -6 -6 -6 -6 -6 -6 -6 -4 -4 -4 -5 -5 -5 -5 -5 -6 -6 -6 -6 -5 -4 -5 -5 -5
-6 -7 -7 -8 -7 -7 -7 -8 -8 -8 -9 -10 -8 -9 -8 -8 -8 -7 -7 -7 -7 -6 -6 -6 -5 -6 -4 -4 -4 -5 -5 -5 -6 -6 -6 -6 -6 -7 -6 -7 -7 -5 -5 -5
-6 -8 -8 -8 -7 -7 -8 -8 -9 -9 -9 -9 -8 -9 -9 -8 -8 -7 -6 -6 -6 -6 -6 -6 -7 -5 -3 -4 -5 -4 -4 -4 -5 -5 -6 -7 -7 -7 -7 -7 -7 -6 -5 -5
-7 -8 -8 -7 -7 -8 -8 -8 -9 -9 -9 -9 -9 -9 -9 -8 -7 -7 -6 -6 -6 -6 -7 -7 -7 -3 -4 -4 -5 -5 -5 -5 -7 -7 -6 -6 -6 -6 -7 -7 -6 -6 -5 -5
-8 -9 -8 -8 -8 -9 -9 -9 -9 -9 -9 -9 -9 -8 -9 -8 -7 -7 -6 -6 -6 -6 -6 -7 -4 -4 -5 -5 -5 -6 -6 -6 -6 -6 -6 -6 -6 -6 -7 -7 -7 -7 -7 -6
-9 -10 -9 -8 -9 -9 -9 -9 -9 -9 -9 -9 -8 -8 -8 -7 -7 -6 -6 -6 -6 -7 -7 -7 -5 -5 -5 -5 -5 -6 -6 -6 -6 -7 -7 -6 -6 -6 -6 -6 -6 -6 -6 -6
-10 -10 -9 -9 -9 -9 -9 -10 -9 -10 -9 -9 -8 -8 -8 -7 -7 -6 -6 -7 -6 -7 -7 -6 -6 -6 -6 -6 -6 -6 -6 -6 -6 -6 -6 -6 -6 -6 -6 -6 -6 -6 -6 -6
-11 -10 -9 -9 -10 -10 -10 -10 -10 -10 -9 -9 -9 -8 -8 -7 -7 -7 -7 -7 -6 -6 -6 -6 -6 -6 -6 -6 -6 -6 -6 -6 -6 -6 -6 -6 -6 -6 -6 -6 -6 -5 -5 -5
-11 -10 -10 -10 -10 -10 -10 -10 -10 -10 -10 -9 -9 -9 -8 -7 -7 -7 -7 -7 -7 -7 -6 -6 -6 -6 -6 -6 -6 -6 -6 -6 -6 -7 -7 -7 -7 -6 -6 -6 -6 -6 -6 -5

GFSNW_700_temp_084.txt.gz
Temp
-1 -2 -3 -4 -3 -2 -3 -2 -4 -4 -4 -5 -5 -6 -5 -4 -5 -4 -4 -4 -4 -3 -3 -4 -4 -4 -4 -4 -5 -6 -5 -5 -4 -5 -4 -4 -3 -3 -2 0 -3 -2 -1 -1
-0 -1 -3 -4 -3 -3 -3 -3 -4 -5 -5 -4 -6 -5 -5 -5 -5 -4 -4 -4 -3 -3 -3 -3 -4 -4 -4 -4 -3 -4 -4 -4 -4 -4 -3 -3 -3 -3 -2 -0 -0 -1 -3 -0
-0 -1 -3 -4 -4 -4 -3 -3 -4 -5 -5 -5 -6 -5 -5 -5 -5 -4 -4 -4 -3 -2 -3 -3 -3 -3 -3 -4 -3 -3 -3 -3 -2 -3 -2 -2 -3 -3 -2 -1 -1 -1 -1 0
0 -1 -3 -4 -4 -4 -4 -4 -5 -5 -5 -5 -6 -6 -6 -5 -5 -5 -4 -4 -4 -4 -3 -3 -3 -3 -3 -2 -3 -3 -3 -3 -2 -2 -1 -1 -0 -1 -2 -2 -1 -1 -0 0
0 -1 -2 -4 -4 -4 -4 -4 -5 -5 -5 -5 -6 -6 -6 -6 -5 -5 -5 -5 -5 -4 -4 -3 -3 -3 -3 -3 -2 -2 -2 -3 -2 -3 -3 -3 -2 -2 -1 -2 -2 -1 -1 0
0 -1 -2 -4 -4 -5 -4 -5 -5 -5 -6 -6 -6 -6 -6 -6 -6 -5 -5 -5 -5 -5 -4 -4 -4 -4 -3 -3 -2 -2 -2 -2 -2 -3 -4 -3 -3 -3 -2 -2 -2 -1 -1 -0
-0 -1 -2 -4 -5 -5 -5 -5 -5 -5 -6 -6 -6 -6 -6 -6 -6 -6 -5 -5 -5 -5 -4 -4 -4 -4 -4 -3 -3 -2 -2 -2 -2 -3 -3 -5 -3 -2 -2 -2 -2 -2 -2 -1
-0 -1 -2 -4 -5 -6 -5 -5 -6 -6 -6 -6 -7 -7 -6 -6 -6 -5 -5 -5 -5 -5 -4 -4 -4 -4 -4 -4 -3 -3 -2 -2 -2 -3 -3 -3 -3 -3 -3 -3 -3 -3 -2 -2
-1 -1 -2 -4 -6 -6 -6 -6 -6 -6 -6 -6 -6 -6 -6 -6 -6 -6 -5 -5 -5 -4 -4 -4 -4 -4 -4 -4 -4 -4 -3 -3 -2 -3 -3 -3 -3 -3 -3 -3 -3 -3 -3 -2
-1 -1 -2 -4 -6 -6 -6 -6 -6 -6 -7 -7 -7 -7 -6 -7 -6 -6 -5 -5 -5 -4 -4 -4 -4 -4 -4 -4 -4 -4 -4 -3 -3 -3 -3 -3 -3 -3 -3 -3 -2 -3 -3 -3
-2 -2 -3 -5 -6 -6 -7 -7 -7 -7 -6 -7 -7 -6 -6 -5 -6 -6 -6 -5 -5 -5 -4 -4 -4 -4 -4 -4 -4 -4 -4 -4 -3 -3 -3 -4 -3 -3 -3 -3 -3 -3 -3 -3
-2 -3 -3 -5 -6 -7 -7 -7 -7 -7 -7 -7 -7 -7 -8 -7 -6 -6 -6 -5 -6 -5 -5 -5 -4 -5 -5 -4 -4 -4 -4 -4 -4 -3 -3 -3 -3 -3 -3 -3 -3 -4 -3 -3
-2 -3 -4 -6 -7 -7 -7 -7 -7 -7 -7 -7 -8 -9 -9 -10 -7 -6 -6 -6 -5 -5 -5 -5 -5 -5 -5 -5 -5 -4 -4 -4 -4 -3 -3 -3 -3 -3 -3 -3 -3 -3 -4 -3
-3 -4 -5 -6 -7 -7 -7 -7 -8 -8 -9 -8 -8 -10 -10 -9 -8 -7 -6 -6 -6 -6 -6 -6 -5 -5 -5 -5 -5 -4 -4 -4 -4 -4 -3 -3 -4 -4 -4 -4 -4 -4 -4 -4
-3 -4 -4 -6 -7 -7 -7 -7 -9 -10 -10 -10 -9 -10 -10 -9 -8 -7 -6 -6 -6 -6 -7 -7 -6 -6 -5 -5 -5 -4 -4 -4 -4 -4 -4 -4 -4 -4 -4 -4 -4 -4 -4 -4
-3 -4 -5 -6 -7 -7 -7 -7 -9 -10 -10 -11 -10 -10 -11 -10 -8 -7 -7 -6 -6 -6 -7 -6 -6 -6 -6 -5 -5 -4 -4 -4 -4 -4 -4 -4 -4 -4 -4 -4 -4 -4 -4 -4
-3 -4 -5 -6 -7 -7 -7 -8 -9 -9 -10 -11 -10 -9 -10 -9 -8 -7 -7 -7 -7 -7 -7 -7 -6 -6 -6 -5 -4 -4 -4 -4 -4 -5 -5 -4 -4 -4 -5 -4 -4 -4 -4 -4
-3 -4 -5 -6 -6 -7 -7 -7 -8 -8 -8 -9 -9 -10 -9 -9 -9 -8 -8 -8 -8 -7 -7 -7 -6 -6 -6 -5 -4 -4 -4 -4 -4 -4 -4 -5 -5 -5 -5 -5 -5 -5 -4 -4
-3 -4 -4 -5 -6 -7 -7 -7 -7 -7 -8 -8 -9 -9 -9 -8 -8 -8 -8 -8 -8 -7 -7 -7 -7 -6 -5 -4 -4 -4 -4 -5 -5 -5 -5 -5 -5 -6 -6 -6 -6 -5 -5 -5
-4 -4 -5 -5 -6 -7 -7 -7 -7 -7 -7 -8 -8 -8 -9 -8 -8 -7 -7 -7 -7 -7 -7 -7 -7 -5 -4 -4 -4 -4 -5 -6 -6 -6 -6 -6 -6 -6 -7 -7 -7 -7 -7 -6
-4 -4 -5 -6 -7 -7 -8 -8 -8 -8 -8 -8 -9 -8 -8 -8 -8 -8 -7 -7 -7 -7 -6 -6 -6 -4 -3 -4 -4 -4 -4 -4 -5 -6 -6 -6 -7 -7 -7 -7 -7 -7 -7 -7
-4 -4 -5 -6 -7 -8 -8 -9 -9 -9 -9 -9 -9 -9 -8 -8 -8 -8 -7 -7 -7 -7 -7 -6 -6 -4 -4 -4 -4 -5 -5 -5 -5 -6 -7 -7 -7 -7 -7 -7 -7 -7 -6 -6
-5 -5 -7 -8 -8 -8 -9 -9 -9 -9 -9 -9 -9 -9 -8 -7 -8 -7 -7 -6 -7 -7 -7 -7 -4 -4 -5 -5 -5 -5 -6 -6 -6 -7 -7 -7 -7 -7 -7 -7 -8 -8 -7 -7
-6 -7 -8 -8 -9 -9 -9 -10 -10 -10 -9 -9 -9 -8 -9 -8 -8 -7 -7 -7 -7 -7 -8 -7 -6 -6 -5 -5 -6 -6 -6 -6 -6 -6 -7 -7 -7 -7 -7 -7 -7 -7 -6 -7
-7 -8 -8 -9 -9 -9 -10 -10 -10 -10 -10 -10 -9 -8 -8 -8 -8 -7 -7 -7 -7 -7 -7 -7 -6 -6 -6 -6 -6 -6 -6 -6 -6 -6 -6 -7 -7 -7 -7 -6 -6 -6 -6 -6
-9 -9 -9 -9 -10 -10 -10 -10 -10 -10 -10 -10 -9 -9 -9 -8 -7 -7 -7 -7 -7 -7 -7 -6 -6 -6 -6 -6 -6 -6 -6 -6 -6 -6 -6 -7 -7 -7 -7 -6 -6 -6 -6 -6
-10 -10 -10 -11 -11 -10 -11 -10 -11 -10 -10 -10 -10 -10 -9 -8 -8 -7 -7 -8 -8 -7 -7 -6 -6 -6 -6 -6 -6 -6 -6 -6 -6 -7 -7 -7 -7 -7 -7 -7 -7 -6 -6 -6

GFSNW_700_temp_087.txt.gz
Temp
1 1 -0 -1 -2 -3 -3 -3 -4 -4 -4 -5 -6 -6 -5 -5 -5 -5 -5 -4 -4 -4 -4 -4 -5 -4 -4 -5 -6 -6 -7 -7 -7 -6 -5 -4 -3 -4 -4 -3 -3 -2 -2 -1
1 1 -0 -1 -2 -3 -3 -3 -4 -4 -4 -4 -6 -5 -5 -5 -5 -4 -4 -4 -4 -4 -4 -4 -4 -4 -4 -4 -5 -5 -5 -7 -6 -5 -5 -5 -4 -3 -2 -3 -2 -1 -3 -0
1 1 -0 -1 -2 -3 -3 -4 -4 -5 -5 -5 -6 -6 -5 -5 -5 -4 -5 -4 -4 -3 -3 -4 -4 -4 -4 -4 -4 -5 -5 -5 -4 -4 -3 -4 -4 -3 -2 -2 -3 -1 -0 1
1 1 0 -1 -2 -4 -4 -4 -4 -5 -5 -6 -6 -7 -6 -6 -5 -5 -5 -4 -5 -5 -4 -4 -3 -4 -4 -4 -4 -4 -4 -4 -3 -2 -2 -2 -2 -2 -1 -2 -3 -1 -0 0
1 1 0 -1 -3 -4 -4 -4 -5 -5 -5 -6 -6 -6 -6 -6 -5 -5 -5 -5 -5 -5 -5 -5 -4 -4 -4 -3 -4 -4 -4 -3 -2 -3 -3 -3 -1 -1 -1 -2 -3 -2 -1 -0
1 1 0 -0 -2 -4 -4 -5 -5 -5 -5 -6 -6 -6 -6 -6 -6 -6 -6 -5 -5 -5 -5 -5 -4 -4 -4 -4 -3 -3 -3 -3 -2 -4 -4 -3 -4 -2 -2 -2 -2 -1 -1 -0
1 1 0 -0 -2 -4 -4 -5 -5 -5 -6 -6 -6 -7 -7 -6 -6 -6 -5 -5 -5 -5 -5 -5 -4 -4 -4 -4 -4 -3 -2 -2 -2 -4 -4 -5 -3 -2 -2 -2 -2 -1 -1 -1
1 1 0 -1 -2 -4 -5 -5 -5 -5 -5 -6 -6 -6 -6 -6 -6 -5 -5 -5 -5 -5 -5 -4 -4 -4 -4 -4 -4 -3 -3 -2 -2 -3 -3 -3 -3 -3 -2 -3 -2 -2 -2 -2
1 0 0 -1 -3 -5 -5 -5 -5 -6 -5 -6 -6 -6 -6 -6 -5 -6 -5 -5 -5 -5 -5 -4 -4 -4 -4 -4 -4 -3 -3 -3 -3 -3 -3 -3 -3 -3 -3 -3 -3 -2 -2 -2
0 -0 0 -0 -2 -5 -6 -5 -5 -6 -5 -6 -7 -7 -8 -7 -6 -6 -5 -5 -5 -5 -5 -4 -4 -4 -4 -4 -4 -4 -4 -3 -3 -3 -3 -3 -3 -3 -3 -4 -3 -2 -2 -3
-0 -1 -0 -1 -2 -5 -6 -6 -5 -6 -6 -6 -7 -7 -8 -8 -7 -6 -6 -6 -5 -5 -5 -5 -5 -5 -5 -4 -4 -4 -4 -4 -4 -3 -3 -4 -3 -3 -3 -3 -3 -3 -3 -4
-1 -1 -1 -1 -2 -4 -6 -6 -6 -5 -6 -7 -7 -8 -8 -9 -8 -6 -6 -6 -6 -6 -6 -5 -5 -5 -5 -5 -4 -4 -4 -4 -4 -4 -4 -3 -4 -4 -4 -3 -3 -3 -3 -4
-1 -1 -1 -2 -2 -4 -6 -6 -6 -7 -6 -7 -8 -9 -10 -10 -9 -8 -7 -6 -7 -7 -6 -6 -6 -5 -5 -5 -5 -4 -4 -4 -4 -4 -4 -4 -4 -4 -4 -4 -4 -4 -4 -4
-2 -2 -2 -2 -3 -4 -5 -6 -6 -7 -8 -8 -9 -10 -10 -11 -10 -8 -8 -6 -6 -7 -7 -6 -6 -6 -6 -5 -5 -5 -4 -4 -4 -4 -4 -4 -4 -4 -4 -4 -4 -4 -4 -4
-2 -2 -2 -2 -3 -4 -5 -5 -6 -7 -9 -10 -10 -11 -11 -10 -9 -8 -7 -7 -6 -6 -7 -7 -6 -6 -6 -5 -5 -4 -4 -4 -4 -4 -4 -4 -4 -4 -4 -4 -4 -4 -4 -4
-2 -2 -3 -3 -3 -4 -5 -5 -6 -7 -8 -9 -9 -10 -10 -10 -9 -7 -7 -7 -6 -6 -6 -7 -7 -6 -6 -6 -5 -4 -4 -4 -4 -4 -4 -4 -4 -4 -4 -4 -4 -4 -4 -4
-3 -3 -3 -3 -3 -4 -5 -6 -6 -7 -6 -7 -9 -9 -9 -9 -8 -8 -8 -7 -6 -6 -7 -7 -6 -6 -6 -6 -5 -4 -4 -4 -4 -4 -4 -4 -4 -4 -4 -5 -5 -5 -4 -4
-3 -3 -3 -3 -3 -4 -5 -5 -6 -6 -6 -8 -8 -8 -7 -8 -8 -8 -8 -7 -7 -7 -7 -7 -6 -6 -6 -5 -4 -4 -4 -4 -4 -4 -4 -4 -4 -4 -5 -5 -5 -5 -5 -5
-3 -3 -3 -3 -3 -3 -5 -6 -6 -7 -7 -8 -9 -9 -8 -7 -7 -7 -7 -8 -8 -7 -7 -7 -7 -7 -6 -5 -5 -4 -4 -4 -5 -5 -5 -5 -5 -5 -5 -5 -6 -7 -6 -5
-3 -3 -4 -3 -3 -4 -5 -6 -7 -6 -8 -8 -9 -9 -9 -8 -7 -7 -8 -8 -7 -8 -6 -7 -7 -5 -4 -5 -5 -5 -5 -5 -5 -5 -5 -5 -6 -6 -6 -7 -7 -7 -7 -7
-4 -4 -4 -4 -3 -5 -6 -7 -7 -7 -8 -8 -9 -8 -9 -8 -8 -8 -8 -7 -7 -7 -7 -7 -6 -5 -4 -3 -4 -4 -4 -4 -5 -5 -5 -7 -7 -7 -6 -7 -7 -7 -8 -8
-4 -4 -4 -4 -4 -7 -7 -7 -8 -8 -9 -9 -9 -8 -9 -8 -9 -8 -8 -7 -7 -7 -7 -7 -6 -5 -4 -4 -4 -4 -4 -4 -5 -5 -5 -7 -8 -8 -8 -7 -7 -7 -7 -7
-5 -4 -4 -4 -6 -7 -8 -8 -9 -9 -10 -10 -9 -9 -8 -8 -8 -8 -7 -7 -7 -7 -7 -7 -5 -5 -5 -5 -4 -4 -5 -5 -6 -6 -6 -7 -7 -8 -7 -8 -8 -8 -8 -8
-5 -5 -5 -5 -7 -7 -8 -9 -9 -9 -9 -10 -9 -9 -9 -8 -9 -8 -7 -7 -7 -7 -7 -6 -6 -6 -5 -5 -5 -5 -6 -6 -6 -6 -7 -7 -7 -7 -7 -7 -7 -7 -7 -7
-6 -5 -5 -6 -7 -8 -9 -10 -10 -10 -10 -10 -10 -9 -8 -9 -9 -8 -7 -7 -7 -7 -7 -7 -7 -6 -6 -6 -6 -6 -6 -6 -6 -6 -6 -6 -7 -7 -7 -7 -7 -7 -6 -6
-7 -6 -6 -7 -8 -9 -10 -10 -10 -10 -10 -10 -10 -9 -10 -9 -9 -8 -7 -7 -7 -8 -7 -7 -7 -7 -6 -6 -6 -6 -6 -6 -6 -6 -6 -6 -7 -7 -7 -7 -7 -7 -7 -7
-6 -6 -8 -9 -9 -10 -10 -11 -10 -10 -10 -11 -11 -10 -9 -9 -9 -8 -8 -9 -9 -8 -8 -7 -7 -6 -6 -6 -7 -7 -7 -7 -7 -6 -7 -7 -7 -7 -7 -6 -7 -7 -7 -7

GFSNW_700_temp_090.txt.gz
Temp
2 2 2 1 -1 -2 -3 -3 -3 -4 -5 -6 -7 -6 -6 -5 -5 -5 -4 -5 -5 -4 -4 -4 -6 -5 -5 -6 -7 -7 -7 -7 -7 -7 -5 -4 -4 -4 -3 -4 -4 -3 -3 -0
2 2 1 1 -0 -2 -3 -3 -4 -4 -4 -5 -6 -6 -6 -5 -5 -5 -5 -5 -5 -5 -4 -4 -4 -4 -5 -5 -5 -6 -6 -7 -7 -6 -6 -5 -5 -4 -3 -3 -3 -3 -4 -0
2 2 1 1 0 -2 -3 -3 -4 -4 -4 -5 -5 -6 -6 -5 -6 -5 -5 -5 -5 -4 -4 -4 -5 -4 -4 -5 -5 -6 -6 -6 -5 -6 -4 -5 -6 -4 -3 -3 -3 -3 -2 0
2 1 1 1 0 -2 -3 -4 -4 -4 -4 -5 -6 -7 -8 -6 -5 -6 -5 -5 -5 -5 -5 -5 -5 -5 -5 -5 -5 -6 -6 -6 -4 -4 -3 -2 -1 -2 -3 -4 -3 -2 -1 -0
1 2 1 1 -0 -2 -3 -4 -4 -4 -5 -5 -5 -6 -7 -6 -6 -5 -6 -6 -5 -5 -6 -6 -5 -5 -5 -5 -5 -5 -5 -5 -4 -4 -4 -4 -3 -3 -2 -1 -2 -2 -1 -1
2 2 1 1 0 -1 -3 -4 -4 -4 -5 -5 -5 -6 -6 -6 -6 -6 -6 -6 -6 -5 -5 -5 -5 -5 -5 -5 -5 -5 -4 -4 -4 -4 -4 -4 -4 -2 -2 -2 -2 -2 -1 -0
1 1 1 1 1 -1 -3 -4 -4 -4 -5 -5 -5 -5 -6 -6 -6 -6 -6 -5 -6 -5 -5 -5 -4 -5 -4 -5 -4 -4 -4 -4 -3 -4 -4 -5 -3 -3 -2 -2 -1 -1 -1 -2
1 1 1 1 1 -0 -3 -4 -4 -4 -5 -5 -6 -6 -6 -6 -6 -6 -6 -6 -5 -5 -5 -4 -4 -4 -4 -4 -4 -4 -3 -3 -3 -4 -4 -3 -2 -2 -1 -1 -1 -1 -2 -2
1 1 1 1 1 -0 -2 -4 -4 -5 -5 -5 -6 -6 -5 -5 -4 -5 -6 -6 -5 -5 -5 -5 -5 -5 -4 -4 -4 -4 -3 -3 -3 -3 -3 -3 -3 -3 -3 -3 -3 -2 -2 -2
1 1 0 0 0 -0 -2 -4 -4 -5 -5 -6 -6 -6 -6 -6 -6 -5 -5 -6 -5 -5 -5 -5 -5 -5 -5 -5 -5 -4 -4 -3 -3 -3 -3 -3 -3 -3 -3 -4 -2 -2 -2 -2
0 0 0 0 0 -0 -2 -4 -4 -5 -6 -6 -6 -7 -7 -7 -7 -7 -7 -6 -6 -6 -5 -5 -5 -5 -5 -5 -5 -5 -4 -4 -4 -4 -3 -4 -3 -4 -3 -3 -3 -3 -3 -3
-0 -0 -0 0 -0 -1 -2 -3 -4 -5 -6 -7 -8 -9 -8 -8 -7 -7 -7 -7 -7 -6 -6 -6 -6 -5 -5 -5 -5 -5 -4 -5 -4 -4 -4 -4 -4 -4 -4 -3 -3 -3 -3 -4
-1 -1 -1 -0 -0 -1 -1 -3 -4 -5 -5 -7 -8 -9 -9 -9 -9 -8 -7 -8 -7 -7 -7 -7 -6 -6 -6 -5 -5 -5 -5 -4 -4 -4 -4 -4 -4 -4 -4 -4 -4 -4 -4 -4
-1 -1 -1 -1 -1 -1 -1 -3 -4 -5 -5 -6 -8 -9 -10 -10 -10 -9 -8 -8 -7 -7 -7 -7 -7 -6 -6 -6 -6 -5 -5 -5 -4 -4 -4 -4 -4 -4 -4 -4 -4 -4 -4 -4
-2 -1 -1 -1 -1 -1 -2 -3 -4 -5 -5 -6 -7 -8 -9 -9 -9 -8 -8 -7 -7 -7 -7 -7 -7 -7 -7 -6 -5 -5 -5 -5 -5 -4 -4 -4 -4 -4 -4 -4 -4 -4 -4 -4
-2 -2 -2 -2 -2 -2 -2 -3 -4 -5 -5 -5 -6 -8 -9 -9 -8 -8 -7 -7 -7 -7 -7 -7 -7 -7 -7 -6 -5 -5 -5 -5 -5 -4 -4 -4 -5 -5 -4 -4 -4 -4 -4 -4
-2 -2 -2 -2 -2 -2 -3 -4 -4 -5 -5 -6 -6 -7 -8 -9 -8 -8 -7 -7 -7 -7 -7 -7 -7 -7 -7 -6 -5 -4 -5 -5 -5 -5 -5 -5 -5 -5 -5 -5 -5 -4 -4 -4
-2 -3 -3 -3 -2 -3 -3 -4 -5 -5 -6 -6 -7 -7 -7 -8 -8 -7 -7 -7 -7 -7 -8 -7 -6 -6 -6 -6 -4 -4 -5 -5 -5 -5 -5 -5 -5 -5 -5 -5 -5 -5 -5 -5
-3 -3 -3 -3 -3 -3 -3 -4 -5 -6 -6 -7 -7 -7 -7 -7 -7 -7 -8 -8 -8 -8 -9 -8 -7 -6 -5 -4 -4 -5 -5 -5 -5 -5 -5 -5 -5 -5 -5 -5 -5 -6 -6 -7
-3 -3 -3 -3 -3 -3 -4 -5 -5 -6 -7 -7 -7 -7 -7 -7 -7 -8 -8 -8 -8 -8 -7 -7 -8 -5 -4 -4 -4 -4 -5 -5 -5 -5 -5 -5 -5 -6 -6 -6 -7 -7 -7 -7
-4 -4 -4 -4 -3 -4 -4 -6 -6 -7 -7 -8 -7 -7 -7 -8 -7 -8 -8 -8 -8 -8 -7 -7 -7 -5 -4 -4 -4 -4 -4 -4 -4 -4 -4 -5 -6 -7 -7 -7 -7 -7 -7 -7
-4 -4 -4 -4 -4 -5 -5 -6 -6 -7 -8 -8 -8 -8 -8 -8 -8 -8 -9 -8 -8 -7 -7 -7 -7 -5 -5 -5 -4 -4 -4 -4 -4 -5 -5 -5 -7 -7 -8 -8 -8 -8 -8 -7
-4 -5 -5 -4 -4 -5 -5 -5 -6 -7 -8 -9 -9 -9 -9 -8 -8 -8 -8 -8 -7 -7 -7 -7 -6 -6 -6 -6 -5 -4 -5 -5 -5 -5 -6 -6 -6 -6 -7 -8 -8 -8 -8 -8
-5 -5 -5 -4 -5 -5 -5 -6 -7 -8 -9 -9 -9 -9 -9 -8 -9 -9 -8 -8 -7 -7 -8 -7 -6 -6 -6 -6 -5 -5 -5 -6 -6 -5 -6 -6 -6 -7 -7 -7 -7 -7 -7 -6
-6 -5 -5 -5 -5 -5 -6 -7 -8 -9 -9 -10 -9 -9 -9 -8 -9 -9 -8 -8 -7 -7 -8 -8 -7 -7 -7 -7 -7 -6 -6 -6 -6 -6 -6 -7 -7 -7 -7 -7 -7 -7 -7 -7
-6 -6 -5 -5 -6 -7 -8 -8 -9 -9 -10 -10 -10 -10 -9 -9 -10 -9 -8 -8 -9 -9 -8 -8 -8 -7 -7 -7 -7 -6 -7 -7 -6 -6 -7 -7 -7 -7 -6 -6 -7 -7 -7 -7
-7 -6 -6 -6 -7 -8 -9 -10 -10 -10 -10 -11 -11 -10 -9 -9 -10 -9 -9 -9 -9 -9 -9 -9 -9 -8 -7 -7 -7 -7 -7 -7 -7 -7 -7 -7 -7 -6 -6 -6 -6 -7 -7 -7

GFSNW_700_temp_093.txt.gz
Temp
2 2 2 2 1 -1 -1 -3 -3 -4 -4 -5 -5 -6 -6 -6 -6 -5 -5 -5 -5 -5 -5 -5 -5 -5 -6 -7 -7 -7 -8 -8 -8 -7 -6 -6 -6 -4 -4 -4 -4 -4 -4 -1
2 2 2 2 1 -0 -2 -3 -3 -4 -4 -4 -4 -5 -6 -6 -5 -5 -5 -5 -5 -5 -5 -5 -5 -5 -5 -6 -6 -6 -7 -7 -7 -7 -7 -6 -6 -5 -4 -3 -3 -3 -3 -1
2 2 2 2 1 0 -2 -3 -4 -5 -4 -4 -5 -5 -6 -6 -5 -6 -5 -6 -5 -6 -6 -5 -5 -5 -5 -6 -7 -7 -7 -7 -6 -6 -5 -4 -6 -5 -4 -3 -3 -2 -2 -1
2 2 2 2 1 0 -1 -3 -4 -5 -4 -5 -5 -5 -6 -5 -5 -6 -5 -6 -6 -6 -5 -5 -5 -5 -5 -6 -6 -6 -7 -6 -5 -4 -4 -5 -3 -2 -4 -3 -3 -2 0 -0
1 1 2 2 1 0 -1 -3 -4 -4 -4 -5 -5 -6 -6 -5 -5 -5 -6 -5 -5 -5 -5 -6 -5 -5 -5 -5 -6 -6 -6 -5 -5 -4 -4 -4 -5 -3 -2 -2 -2 -1 0 0
1 1 1 2 1 1 -1 -2 -3 -4 -5 -5 -5 -5 -5 -6 -6 -6 -6 -6 -5 -5 -5 -5 -5 -5 -5 -5 -5 -6 -6 -5 -5 -4 -4 -4 -4 -4 -4 -3 -3 -1 -0 1
1 1 1 1 1 1 -0 -2 -3 -4 -4 -5 -5 -6 -6 -6 -5 -5 -6 -5 -5 -5 -5 -5 -5 -5 -5 -5 -5 -5 -5 -5 -4 -5 -4 -5 -3 -3 -2 -2 -2 -1 -0 -0
1 1 1 1 1 1 -1 -2 -3 -4 -4 -5 -6 -6 -6 -6 -5 -5 -5 -5 -5 -5 -5 -4 -4 -4 -4 -5 -5 -5 -4 -4 -3 -4 -4 -3 -3 -3 -3 -2 -1 -1 -1 -2
1 1 1 1 1 1 -0 -2 -3 -4 -5 -6 -6 -6 -6 -6 -5 -5 -6 -5 -5 -5 -5 -5 -5 -5 -5 -4 -4 -4 -4 -4 -3 -3 -4 -4 -4 -3 -4 -4 -3 -2 -2 -2
1 1 1 1 1 1 -0 -1 -3 -4 -4 -6 -7 -7 -7 -6 -6 -6 -6 -6 -6 -6 -5 -5 -5 -5 -5 -5 -5 -4 -4 -4 -3 -4 -3 -4 -4 -4 -4 -3 -3 -2 -2 -2
0 0 1 1 1 0 0 -1 -2 -3 -3 -5 -7 -7 -7 -7 -7 -7 -7 -6 -6 -6 -5 -6 -6 -6 -5 -5 -5 -5 -5 -4 -4 -4 -4 -4 -4 -4 -4 -4 -3 -3 -3 -3
0 0 0 0 0 0 -0 -0 -2 -3 -3 -5 -7 -7 -8 -8 -8 -8 -7 -7 -7 -7 -7 -7 -6 -6 -6 -5 -5 -5 -5 -5 -5 -4 -4 -4 -4 -4 -4 -4 -3 -4 -4 -4
-0 0 0 0 0 -0 -0 -0 -1 -3 -4 -5 -6 -7 -8 -8 -8 -8 -7 -7 -7 -7 -7 -7 -7 -7 -6 -6 -5 -5 -5 -5 -5 -4 -4 -4 -4 -4 -4 -4 -4 -4 -4 -4
-1 -0 -0 -0 0 -0 -0 -1 -1 -2 -4 -5 -6 -6 -7 -7 -8 -7 -7 -7 -7 -7 -7 -7 -7 -7 -7 -6 -6 -5 -5 -5 -5 -5 -4 -4 -4 -4 -4 -4 -4 -4 -4 -4
-1 -1 -1 -0 -0 -0 -1 -1 -1 -2 -4 -4 -5 -6 -6 -7 -7 -7 -6 -6 -7 -7 -7 -7 -7 -7 -7 -6 -5 -5 -5 -5 -5 -5 -4 -4 -4 -4 -4 -4 -4 -4 -4 -4
-1 -1 -1 -1 -0 -1 -1 -1 -2 -2 -4 -4 -5 -6 -6 -7 -6 -6 -6 -6 -6 -7 -6 -7 -7 -7 -7 -6 -5 -5 -5 -5 -5 -5 -5 -5 -5 -5 -5 -5 -5 -5 -5 -5
-1 -2 -2 -0 -1 -1 -1 -2 -2 -3 -4 -5 -5 -6 -6 -6 -6 -6 -6 -6 -6 -7 -7 -6 -7 -6 -7 -6 -5 -5 -5 -5 -5 -5 -5 -5 -5 -5 -5 -5 -5 -5 -5 -5
-2 -2 -2 -1 -2 -2 -2 -2 -2 -2 -4 -5 -6 -6 -6 -6 -6 -6 -6 -6 -7 -7 -7 -7 -8 -8 -7 -6 -4 -5 -5 -5 -5 -5 -5 -5 -5 -5 -5 -5 -5 -5 -5 -5
-2 -3 -2 -2 -2 -2 -2 -2 -2 -3 -4 -5 -6 -7 -7 -7 -6 -6 -7 -8 -8 -8 -8 -8 -8 -8 -7 -5 -5 -5 -5 -5 -5 -5 -5 -5 -5 -5 -5 -5 -6 -6 -6 -7
-3 -3 -2 -2 -3 -2 -2 -2 -3 -4 -4 -6 -7 -7 -7 -7 -7 -7 -8 -8 -8 -8 -8 -9 -8 -8 -6 -6 -6 -6 -6 -5 -5 -5 -5 -5 -5 -6 -6 -6 -7 -7 -7 -7
-4 -4 -4 -3 -3 -3 -3 -4 -4 -4 -5 -6 -7 -7 -7 -7 -7 -7 -8 -8 -8 -8 -8 -8 -8 -7 -6 -6 -6 -6 -6 -5 -5 -5 -5 -5 -5 -6 -7 -8 -8 -8 -8 -8
-4 -5 -4 -4 -3 -3 -4 -4 -4 -5 -6 -6 -7 -7 -8 -7 -7 -7 -9 -8 -8 -8 -8 -8 -7 -7 -7 -6 -6 -6 -6 -6 -5 -5 -5 -5 -5 -6 -7 -7 -8 -8 -8 -8
-5 -6 -4 -4 -4 -4 -4 -4 -4 -5 -6 -7 -8 -8 -8 -8 -8 -8 -9 -9 -7 -8 -8 -7 -8 -7 -7 -7 -7 -6 -6 -6 -6 -5 -6 -6 -6 -6 -7 -7 -7 -7 -7 -7
-6 -6 -5 -4 -4 -4 -4 -4 -5 -6 -7 -8 -8 -8 -8 -8 -8 -8 -9 -8 -8 -8 -8 -8 -8 -8 -8 -8 -7 -7 -7 -7 -6 -6 -6 -6 -6 -7 -7 -7 -7 -7 -7 -7
-6 -6 -5 -4 -4 -4 -5 -5 -6 -7 -8 -8 -9 -9 -8 -8 -9 -9 -9 -9 -8 -8 -9 -9 -9 -8 -8 -7 -7 -7 -7 -7 -7 -7 -7 -7 -7 -7 -7 -7 -7 -7 -7 -7
-6 -6 -5 -4 -5 -5 -5 -5 -6 -7 -8 -9 -9 -9 -9 -9 -9 -10 -9 -9 -9 -9 -9 -9 -9 -9 -8 -7 -7 -7 -7 -7 -7 -7 -7 -7 -7 -7 -7 -7 -7 -7 -7 -7
-6 -6 -6 -5 -5 -6 -6 -7 -7 -8 -9 -9 -10 -10 -9 -10 -10 -9 -9 -9 -9 -9 -9 -9 -9 -9 -9 -8 -8 -7 -7 -7 -8 -7 -7 -7 -7 -7 -7 -6 -6 -7 -7 -7

GFSNW_700_temp_096.txt.gz
Temp
2 2 2 3 3 2 1 -1 -3 -4 -4 -5 -5 -5 -5 -5 -5 -6 -6 -6 -6 -5 -5 -5 -5 -6 -7 -7 -7 -8 -8 -8 -7 -7 -7 -6 -5 -5 -5 -4 -3 -4 -3 0
2 2 2 2 3 2 1 -1 -3 -4 -4 -5 -4 -5 -5 -5 -5 -5 -6 -6 -6 -6 -6 -5 -5 -5 -6 -7 -7 -7 -7 -7 -7 -7 -7 -7 -6 -5 -5 -4 -4 -4 -0 0
2 2 2 2 3 2 1 -1 -2 -4 -4 -4 -4 -5 -5 -5 -5 -6 -6 -6 -6 -6 -5 -5 -5 -5 -6 -6 -7 -7 -7 -6 -6 -4 -5 -6 -6 -5 -5 -4 -3 -2 -0 -1
2 2 2 2 2 2 1 -1 -2 -4 -4 -4 -4 -4 -5 -5 -5 -6 -5 -6 -6 -6 -5 -5 -5 -5 -6 -7 -6 -6 -6 -6 -6 -5 -5 -6 -6 -4 -3 -2 -3 -1 -1 -0
2 1 2 2 2 2 1 -0 -2 -3 -4 -4 -4 -5 -5 -5 -5 -6 -6 -5 -5 -6 -6 -5 -5 -5 -6 -6 -6 -7 -6 -6 -5 -4 -4 -5 -5 -5 -3 -2 -2 -2 -1 -0
1 1 1 2 2 2 1 -0 -2 -3 -4 -5 -5 -5 -5 -5 -5 -5 -6 -5 -5 -5 -5 -5 -5 -5 -5 -5 -5 -6 -6 -6 -5 -5 -4 -5 -5 -4 -4 -2 -0 -1 -1 -0
1 1 1 2 2 2 1 0 -1 -3 -4 -5 -5 -6 -5 -5 -5 -5 -5 -5 -5 -5 -5 -5 -5 -5 -5 -5 -5 -5 -5 -5 -5 -4 -4 -2 -3 -3 -3 -2 -1 -0 0 -0
1 1 1 1 2 2 1 0 -0 -2 -4 -5 -5 -6 -6 -6 -5 -5 -5 -5 -5 -4 -4 -5 -5 -5 -5 -5 -5 -5 -5 -5 -4 -3 -3 -3 -4 -3 -3 -3 -2 -1 -0 -1
1 0 1 1 2 1 1 0 0 -1 -3 -4 -5 -6 -6 -6 -6 -6 -5 -5 -4 -4 -4 -5 -5 -5 -5 -5 -5 -5 -5 -4 -4 -3 -3 -2 -4 -4 -4 -4 -4 -2 -2 -2
0 0 1 1 1 1 1 1 -0 -1 -2 -4 -4 -5 -6 -6 -6 -6 -6 -5 -5 -5 -5 -5 -6 -6 -5 -5 -5 -5 -5 -4 -4 -4 -3 -4 -4 -4 -4 -4 -3 -3 -2 -2
0 -0 0 1 1 1 1 1 0 -1 -2 -3 -4 -4 -5 -6 -7 -6 -6 -6 -5 -5 -5 -6 -7 -6 -6 -5 -5 -5 -5 -5 -5 -4 -4 -3 -4 -4 -4 -4 -3 -3 -3 -2
-0 -0 0 1 1 1 1 1 0 -1 -1 -3 -4 -4 -5 -6 -7 -7 -6 -6 -5 -5 -6 -7 -7 -7 -6 -6 -5 -5 -5 -5 -5 -5 -5 -4 -4 -4 -4 -4 -4 -4 -4 -4
-1 -0 -0 1 1 1 1 1 0 -0 -1 -3 -4 -4 -5 -5 -6 -6 -6 -6 -6 -6 -6 -6 -7 -7 -7 -7 -6 -5 -5 -5 -5 -4 -4 -4 -5 -4 -4 -4 -4 -4 -4 -4
-1 -1 -0 0 0 0 0 0 -0 -0 -2 -3 -4 -5 -5 -5 -6 -6 -6 -5 -5 -6 -6 -6 -7 -7 -7 -6 -6 -5 -5 -5 -5 -5 -5 -5 -5 -4 -4 -4 -4 -4 -4 -4
-1 -1 -1 -0 0 0 0 -0 -0 -0 -1 -2 -4 -4 -5 -5 -6 -5 -6 -5 -5 -5 -6 -6 -6 -6 -7 -6 -5 -5 -5 -5 -5 -5 -5 -5 -5 -5 -5 -4 -4 -4 -4 -4
-1 -1 -1 -1 -0 0 -0 -0 -1 -1 -2 -2 -3 -4 -5 -5 -6 -5 -6 -5 -6 -6 -6 -6 -6 -7 -6 -7 -6 -5 -5 -5 -5 -5 -5 -5 -5 -5 -5 -5 -5 -4 -4 -5
-1 -2 -2 -1 -0 -0 -0 -1 -1 -1 -2 -2 -4 -5 -5 -6 -6 -5 -6 -6 -6 -6 -6 -6 -6 -7 -7 -7 -6 -5 -6 -5 -5 -5 -5 -5 -5 -5 -5 -5 -5 -5 -5 -5
-2 -2 -2 -1 -1 -1 -1 -1 -1 -1 -2 -3 -4 -5 -5 -6 -6 -6 -6 -6 -6 -7 -7 -7 -7 -7 -8 -7 -6 -6 -6 -5 -5 -6 -6 -6 -5 -5 -5 -5 -5 -5 -5 -5
-2 -3 -2 -1 -2 -2 -2 -1 -1 -2 -2 -3 -4 -5 -6 -6 -6 -6 -6 -6 -7 -7 -7 -7 -8 -8 -8 -7 -7 -7 -6 -6 -6 -6 -6 -6 -6 -6 -5 -5 -5 -5 -6 -6
-3 -3 -2 -2 -3 -3 -2 -1 -2 -2 -3 -3 -4 -5 -5 -5 -6 -6 -7 -7 -8 -9 -8 -8 -8 -8 -8 -8 -7 -7 -6 -6 -6 -6 -6 -6 -6 -6 -7 -6 -6 -7 -7 -7
-4 -3 -3 -3 -4 -3 -3 -2 -2 -3 -3 -4 -4 -5 -5 -5 -5 -6 -7 -7 -8 -9 -8 -8 -8 -8 -7 -7 -7 -6 -6 -6 -6 -6 -6 -6 -6 -6 -7 -7 -7 -8 -8 -8
-4 -3 -4 -4 -5 -4 -3 -3 -3 -3 -4 -4 -5 -5 -5 -5 -6 -7 -7 -8 -8 -8 -8 -8 -8 -8 -7 -7 -7 -7 -7 -7 -7 -6 -6 -6 -6 -6 -6 -7 -7 -7 -7 -8
-4 -5 -5 -5 -5 -4 -4 -3 -3 -3 -4 -5 -5 -5 -5 -6 -7 -7 -8 -9 -8 -8 -8 -8 -8 -8 -8 -8 -7 -8 -7 -7 -7 -6 -6 -6 -6 -7 -7 -7 -7 -7 -7 -7
-5 -6 -6 -6 -5 -4 -3 -3 -4 -4 -4 -5 -5 -6 -6 -7 -7 -7 -8 -9 -9 -8 -8 -8 -9 -8 -8 -8 -8 -8 -7 -8 -7 -7 -7 -7 -7 -7 -7 -7 -7 -7 -7 -7
-6 -6 -7 -7 -5 -4 -4 -4 -4 -5 -5 -5 -5 -6 -7 -7 -8 -8 -8 -9 -9 -8 -9 -9 -8 -8 -8 -8 -8 -8 -8 -7 -7 -7 -7 -7 -7 -7 -7 -7 -7 -7 -7 -7
-7 -7 -7 -6 -5 -5 -4 -4 -5 -5 -5 -6 -6 -7 -8 -8 -8 -9 -8 -9 -8 -9 -9 -9 -8 -8 -8 -8 -8 -8 -8 -8 -8 -8 -7 -7 -7 -7 -7 -7 -7 -7 -7 -7
-7 -7 -7 -6 -5 -5 -5 -5 -6 -6 -6 -7 -7 -8 -8 -9 -9 -9 -9 -9 -9 -9 -9 -9 -9 -9 -8 -8 -8 -8 -8 -8 -8 -8 -8 -8 -8 -8 -7 -7 -7 -7 -7 -7

GFSNW_700_temp_099.txt.gz
Temp
2 2 2 2 3 3 3 1 -0 -2 -3 -3 -4 -5 -5 -5 -6 -6 -6 -6 -5 -5 -5 -5 -5 -6 -7 -7 -8 -8 -8 -7 -6 -6 -6 -6 -5 -4 -4 -3 -1 -1 -2 0
2 2 2 2 2 3 3 1 -1 -2 -3 -4 -5 -5 -6 -5 -5 -6 -6 -6 -6 -6 -5 -5 -5 -6 -6 -7 -8 -7 -7 -6 -6 -6 -6 -6 -5 -5 -4 -4 -3 -2 -1 1
2 2 2 2 2 2 2 1 -0 -2 -3 -4 -4 -5 -5 -5 -5 -5 -6 -6 -6 -5 -5 -6 -5 -6 -6 -6 -8 -7 -7 -6 -5 -3 -4 -5 -5 -5 -4 -4 -3 -1 1 -0
1 1 2 2 2 2 2 1 -0 -1 -3 -4 -4 -5 -5 -5 -5 -5 -5 -6 -6 -5 -5 -5 -6 -6 -6 -6 -6 -6 -7 -7 -5 -5 -6 -5 -5 -4 -4 -3 -3 -3 -1 -0
1 1 1 2 2 2 2 2 1 -1 -3 -4 -4 -5 -5 -5 -5 -5 -6 -6 -6 -5 -6 -6 -6 -6 -5 -6 -6 -6 -6 -6 -6 -5 -5 -5 -5 -4 -4 -3 -3 -3 -2 -1
0 1 1 2 2 2 2 2 1 -1 -3 -4 -5 -5 -5 -5 -5 -5 -5 -5 -5 -6 -5 -5 -5 -5 -5 -5 -6 -6 -6 -6 -5 -4 -4 -4 -4 -4 -4 -3 -2 -1 -2 -1
-0 1 1 1 2 2 2 2 1 -0 -2 -4 -5 -6 -5 -5 -5 -4 -5 -5 -5 -5 -5 -5 -5 -5 -5 -5 -5 -6 -6 -5 -5 -4 -4 -2 -3 -2 -3 -2 -2 -2 -2 -1
-0 1 1 1 2 2 2 2 1 0 -2 -3 -4 -5 -5 -5 -4 -4 -5 -5 -5 -5 -4 -5 -5 -5 -4 -4 -5 -5 -5 -5 -4 -4 -2 -3 -3 -2 -3 -3 -1 -0 0 -1
-1 0 1 1 1 2 2 2 1 0 -1 -2 -3 -5 -5 -5 -5 -5 -5 -5 -4 -4 -4 -5 -4 -4 -4 -4 -5 -5 -5 -5 -5 -3 -2 -1 -4 -3 -3 -3 -3 -2 -1 -1
-2 -0 1 0 1 1 2 2 1 0 -0 -1 -3 -4 -4 -5 -5 -5 -5 -5 -5 -5 -5 -6 -6 -5 -5 -4 -4 -5 -5 -5 -4 -3 -2 -3 -4 -3 -4 -4 -3 -3 -2 -1
-2 -0 0 0 1 1 2 2 1 0 -0 -1 -2 -2 -3 -5 -5 -5 -5 -5 -5 -5 -5 -6 -6 -6 -6 -5 -5 -5 -5 -4 -3 -3 -2 -3 -4 -4 -4 -4 -3 -3 -2 -2
-2 -1 -0 -0 1 1 1 1 1 1 0 -1 -2 -3 -3 -4 -5 -5 -5 -5 -5 -5 -5 -6 -6 -6 -7 -6 -5 -5 -5 -5 -5 -5 -5 -4 -5 -4 -4 -4 -4 -3 -3 -3
-2 -1 -1 -0 1 1 1 1 1 0 0 -1 -2 -3 -3 -4 -4 -5 -4 -5 -5 -5 -5 -5 -6 -6 -6 -6 -5 -6 -6 -5 -5 -5 -4 -5 -5 -4 -4 -4 -4 -4 -4 -4
-2 -1 -1 -0 0 1 1 1 0 0 -0 -1 -2 -3 -4 -4 -4 -4 -4 -4 -5 -5 -5 -5 -6 -6 -5 -6 -6 -5 -6 -5 -6 -5 -5 -5 -4 -4 -4 -4 -4 -4 -4 -4
-2 -1 -1 -1 -0 0 0 0 -0 -0 -0 -1 -2 -3 -4 -4 -4 -4 -4 -5 -5 -5 -5 -6 -6 -6 -6 -5 -5 -5 -5 -6 -6 -5 -5 -5 -5 -5 -4 -4 -4 -4 -4 -5
-2 -2 -1 -1 -1 -0 0 0 -1 -1 -1 -2 -2 -3 -4 -4 -4 -4 -5 -5 -5 -5 -5 -6 -6 -6 -7 -7 -6 -6 -5 -5 -6 -5 -5 -5 -5 -5 -5 -5 -5 -5 -5 -5
-2 -2 -2 -1 -1 -0 -0 -0 -1 -1 -1 -2 -2 -3 -3 -4 -4 -5 -5 -5 -5 -5 -6 -6 -6 -7 -7 -7 -7 -6 -6 -6 -6 -6 -5 -5 -5 -5 -5 -5 -5 -5 -5 -5
-3 -2 -2 -2 -1 -1 -1 -1 -1 -2 -2 -2 -2 -3 -3 -4 -4 -4 -5 -5 -5 -6 -6 -7 -7 -7 -8 -8 -7 -7 -6 -6 -6 -6 -6 -6 -6 -6 -6 -6 -5 -5 -5 -5
-3 -3 -2 -2 -2 -2 -1 -2 -2 -2 -2 -3 -3 -3 -3 -4 -4 -5 -5 -5 -5 -6 -6 -7 -7 -8 -8 -8 -7 -8 -7 -6 -6 -6 -6 -6 -6 -6 -6 -6 -6 -6 -6 -6
-3 -3 -2 -2 -2 -2 -2 -2 -2 -2 -3 -3 -3 -3 -3 -3 -4 -4 -5 -6 -6 -8 -7 -8 -9 -9 -7 -7 -7 -7 -6 -6 -6 -6 -6 -6 -6 -6 -6 -6 -6 -6 -7 -7
-4 -3 -3 -2 -3 -3 -3 -3 -3 -3 -3 -3 -4 -3 -3 -4 -4 -4 -5 -6 -7 -9 -8 -8 -8 -8 -7 -7 -7 -7 -6 -6 -6 -5 -6 -6 -6 -6 -6 -6 -7 -7 -8 -8
-4 -3 -3 -3 -3 -4 -4 -4 -3 -3 -3 -3 -4 -4 -4 -4 -4 -5 -6 -7 -7 -8 -8 -8 -8 -7 -6 -7 -7 -7 -7 -7 -7 -6 -6 -7 -6 -6 -6 -6 -7 -7 -7 -7
-5 -4 -4 -4 -4 -5 -5 -4 -3 -3 -3 -3 -4 -4 -4 -4 -5 -5 -6 -7 -8 -8 -9 -8 -8 -7 -7 -7 -7 -7 -7 -7 -7 -7 -7 -6 -6 -6 -6 -6 -6 -7 -7 -7
-5 -6 -5 -5 -5 -5 -5 -4 -3 -3 -3 -4 -4 -4 -4 -5 -5 -6 -7 -8 -8 -9 -8 -8 -8 -8 -8 -8 -7 -7 -7 -7 -7 -7 -7 -7 -7 -6 -7 -7 -7 -7 -7 -7
-7 -5 -5 -5 -5 -5 -5 -4 -4 -4 -4 -4 -4 -4 -5 -6 -6 -7 -8 -8 -9 -9 -8 -8 -8 -8 -8 -8 -8 -8 -8 -7 -7 -7 -7 -7 -7 -7 -7 -7 -7 -7 -7 -7
-6 -6 -6 -5 -6 -6 -5 -4 -4 -4 -5 -5 -5 -5 -6 -7 -7 -8 -7 -8 -8 -8 -8 -8 -8 -8 -8 -8 -8 -8 -8 -8 -7 -7 -7 -7 -7 -8 -7 -7 -7 -7 -7 -7
-8 -7 -6 -6 -7 -7 -7 -6 -5 -5 -5 -6 -6 -6 -6 -7 -8 -8 -8 -7 -7 -8 -9 -9 -9 -9 -9 -9 -9 -9 -9 -9 -8 -8 -8 -8 -8 -8 -8 -8 -8 -8 -7 -7

GFSNW_700_temp_102.txt.gz
Temp
2 2 2 2 2 2 3 2 1 -1 -2 -3 -3 -6 -6 -6 -6 -6 -6 -6 -5 -5 -5 -5 -6 -7 -8 -7 -7 -7 -7 -6 -6 -6 -6 -5 -5 -4 -4 -3 -3 -2 -2 -1
1 1 1 2 2 2 2 2 1 -1 -2 -3 -5 -5 -6 -5 -5 -6 -6 -6 -6 -5 -5 -5 -5 -6 -6 -6 -7 -7 -7 -6 -6 -6 -5 -5 -5 -4 -4 -4 -4 -2 -3 -1
1 1 0 2 2 2 2 2 1 -1 -2 -3 -4 -4 -5 -6 -5 -6 -6 -6 -6 -5 -5 -5 -6 -6 -6 -6 -8 -7 -7 -6 -6 -6 -5 -5 -5 -4 -4 -4 -4 -3 -3 -1
0 1 -0 2 2 2 2 2 1 -0 -1 -3 -4 -4 -5 -5 -6 -6 -6 -6 -6 -6 -6 -6 -6 -6 -6 -6 -5 -6 -6 -6 -5 -5 -5 -5 -5 -4 -4 -4 -4 -4 -3 -1
-1 0 -0 1 1 2 2 2 1 0 -2 -3 -4 -4 -5 -5 -5 -5 -6 -6 -5 -6 -6 -6 -6 -6 -6 -6 -6 -6 -6 -6 -6 -5 -4 -5 -5 -5 -4 -4 -4 -4 -3 -2
-2 -2 1 1 1 2 2 2 1 0 -1 -2 -4 -4 -5 -5 -5 -5 -5 -5 -5 -6 -6 -5 -5 -5 -5 -5 -6 -6 -6 -6 -5 -4 -4 -4 -4 -3 -3 -3 -4 -4 -4 -2
-3 -2 0 1 1 1 2 2 2 0 -1 -2 -3 -4 -5 -5 -5 -4 -5 -5 -5 -5 -5 -5 -5 -5 -5 -5 -5 -5 -5 -5 -5 -4 -4 -4 -4 -3 -3 -3 -3 -3 -2 -2
-3 -3 -1 -0 1 1 2 2 2 1 0 -1 -3 -4 -4 -5 -5 -4 -4 -4 -5 -5 -4 -5 -5 -5 -5 -5 -5 -5 -5 -6 -5 -4 -4 -3 -4 -3 -3 -3 -3 -3 -2 -2
-1 -2 -0 -1 0 1 1 2 1 1 0 -1 -1 -3 -4 -5 -4 -5 -4 -4 -4 -4 -4 -5 -4 -4 -4 -5 -4 -5 -5 -5 -6 -5 -4 -3 -4 -3 -3 -3 -3 -3 -3 -3
-1 -2 -1 -1 1 1 1 1 1 1 1 -0 -1 -2 -3 -4 -5 -4 -4 -4 -4 -5 -6 -6 -5 -5 -5 -5 -5 -5 -5 -5 -5 -4 -4 -4 -3 -4 -3 -3 -4 -3 -3 -2
-1 -3 -1 -0 0 1 1 1 1 1 1 0 -1 -2 -2 -4 -4 -4 -4 -5 -4 -5 -6 -6 -6 -6 -6 -5 -5 -5 -5 -4 -4 -3 -3 -5 -4 -4 -4 -4 -4 -3 -3 -3
-3 -3 -2 -0 0 0 0 1 1 1 1 0 -1 -1 -2 -3 -4 -4 -4 -4 -4 -4 -4 -5 -7 -7 -7 -6 -5 -5 -5 -5 -4 -5 -5 -5 -4 -4 -4 -4 -4 -4 -4 -4
-1 -3 -1 -0 0 0 0 1 1 1 -0 -0 -1 -2 -2 -3 -3 -4 -4 -4 -4 -4 -5 -5 -5 -6 -6 -6 -6 -5 -6 -5 -5 -5 -5 -5 -4 -4 -4 -4 -4 -4 -4 -4
-1 -3 -1 -0 -0 0 0 0 0 0 0 -0 -1 -2 -3 -3 -4 -4 -4 -4 -4 -4 -5 -5 -5 -5 -6 -6 -6 -6 -6 -6 -6 -6 -5 -5 -5 -4 -5 -5 -5 -4 -5 -4
-2 -4 -1 -1 -0 -0 -0 0 0 0 0 -0 -2 -3 -3 -4 -4 -4 -4 -4 -4 -4 -5 -5 -5 -5 -5 -6 -6 -6 -6 -6 -6 -6 -5 -5 -5 -5 -5 -5 -5 -5 -4 -4
-2 -2 -2 -1 -1 -1 -1 -0 0 -0 -0 -1 -2 -2 -3 -3 -3 -4 -4 -4 -4 -4 -5 -5 -5 -6 -6 -6 -7 -6 -6 -6 -6 -6 -6 -5 -5 -5 -5 -5 -5 -5 -5 -5
-5 -2 -2 -2 -1 -1 -0 -0 -0 -1 -1 -1 -2 -2 -3 -3 -3 -4 -4 -4 -4 -5 -5 -5 -6 -6 -6 -7 -7 -7 -6 -6 -6 -6 -6 -6 -5 -5 -5 -5 -5 -5 -5 -5
-4 -3 -2 -2 -2 -1 -1 -1 -1 -1 -1 -1 -2 -2 -3 -3 -3 -4 -4 -4 -4 -5 -5 -5 -6 -6 -7 -8 -8 -8 -7 -7 -6 -6 -6 -6 -6 -6 -6 -6 -6 -6 -6 -6
-5 -3 -3 -3 -2 -2 -1 -1 -2 -2 -2 -2 -2 -2 -2 -2 -3 -3 -4 -4 -5 -5 -5 -6 -6 -7 -7 -6 -6 -7 -7 -6 -6 -6 -6 -6 -6 -7 -6 -6 -6 -6 -6 -6
-5 -4 -3 -3 -3 -2 -2 -2 -2 -2 -2 -3 -2 -2 -2 -2 -3 -3 -4 -5 -5 -6 -7 -7 -7 -8 -6 -6 -7 -7 -7 -7 -6 -6 -6 -6 -6 -6 -6 -6 -6 -6 -6 -7
-5 -4 -4 -3 -3 -3 -3 -3 -4 -3 -3 -3 -3 -3 -3 -3 -3 -4 -4 -5 -5 -8 -8 -8 -8 -8 -6 -6 -7 -7 -7 -6 -6 -6 -6 -6 -6 -6 -6 -5 -5 -5 -6 -7
-5 -4 -4 -3 -3 -3 -4 -4 -4 -3 -3 -3 -3 -3 -3 -3 -3 -4 -5 -5 -6 -8 -8 -8 -8 -6 -7 -7 -7 -7 -7 -7 -6 -7 -7 -7 -7 -6 -7 -6 -5 -5 -6 -6
-5 -5 -4 -3 -4 -4 -5 -4 -4 -4 -3 -3 -3 -3 -4 -4 -4 -4 -5 -6 -7 -8 -9 -8 -8 -7 -7 -7 -7 -7 -7 -7 -7 -7 -7 -7 -7 -7 -6 -6 -6 -5 -6 -6
-5 -4 -4 -5 -5 -5 -4 -4 -4 -4 -3 -3 -3 -4 -4 -4 -4 -5 -6 -7 -7 -9 -9 -8 -6 -7 -7 -7 -7 -7 -7 -7 -7 -7 -7 -7 -7 -7 -7 -7 -7 -7 -6 -6
-5 -6 -6 -6 -5 -4 -4 -4 -5 -5 -4 -4 -4 -4 -4 -4 -5 -5 -6 -6 -8 -9 -8 -6 -7 -7 -8 -8 -8 -8 -8 -8 -8 -7 -7 -7 -7 -7 -8 -8 -7 -7 -7 -7
-7 -7 -6 -6 -5 -5 -5 -5 -6 -5 -5 -5 -5 -4 -4 -5 -5 -6 -6 -6 -6 -6 -6 -7 -8 -8 -8 -8 -8 -9 -9 -8 -8 -8 -8 -8 -8 -8 -8 -8 -8 -8 -8 -8
-8 -8 -6 -5 -5 -5 -5 -6 -6 -6 -5 -5 -5 -5 -5 -5 -6 -6 -6 -5 -6 -7 -7 -8 -9 -9 -9 -9 -9 -9 -9 -9 -9 -9 -9 -9 -9 -8 -8 -9 -9 -8 -8 -8

GFSNW_700_temp_105.txt.gz
Temp
1 -0 1 1 1 2 2 1 0 -0 -2 -2 -3 -3 -5 -5 -6 -6 -6 -6 -6 -6 -5 -6 -7 -8 -8 -7 -7 -7 -7 -6 -6 -6 -5 -5 -5 -4 -4 -3 -4 -4 -3 -3
0 0 1 0 1 2 2 1 1 -0 -1 -2 -3 -4 -5 -5 -6 -6 -6 -6 -6 -6 -6 -6 -6 -6 -6 -6 -7 -7 -7 -7 -6 -6 -5 -5 -5 -4 -4 -4 -3 -4 -4 -3
1 -1 1 0 1 2 1 1 1 -0 -1 -3 -3 -4 -5 -4 -5 -6 -6 -6 -6 -5 -6 -6 -6 -6 -6 -6 -6 -6 -6 -6 -6 -6 -5 -5 -5 -4 -4 -4 -4 -4 -4 -2
-0 -1 0 -1 1 2 1 1 1 0 -1 -2 -3 -4 -5 -5 -5 -6 -6 -6 -6 -6 -6 -6 -7 -6 -6 -6 -6 -6 -6 -5 -6 -5 -5 -5 -5 -5 -4 -4 -4 -4 -4 -3
-0 0 -0 -1 1 2 1 1 1 0 -1 -2 -3 -4 -5 -4 -5 -6 -6 -6 -5 -7 -6 -7 -6 -6 -6 -6 -6 -5 -6 -5 -5 -4 -4 -5 -5 -5 -4 -4 -4 -3 -4 -3
-0 -1 -1 -1 1 1 1 1 1 0 -1 -2 -3 -3 -4 -4 -5 -5 -5 -5 -5 -6 -6 -6 -6 -5 -5 -6 -6 -5 -5 -5 -6 -5 -4 -5 -4 -4 -4 -4 -4 -4 -4 -3
-0 -1 -1 -1 1 1 1 1 1 0 -1 -2 -3 -4 -4 -4 -5 -5 -5 -5 -5 -5 -5 -5 -5 -5 -5 -5 -5 -5 -5 -5 -5 -4 -4 -5 -5 -4 -4 -4 -4 -4 -5 -4
-1 -2 -2 -0 1 1 1 1 1 0 0 -1 -2 -3 -4 -4 -4 -4 -5 -5 -5 -5 -5 -5 -5 -5 -5 -5 -5 -5 -5 -6 -5 -5 -4 -4 -5 -4 -4 -3 -4 -4 -5 -4
-1 -3 -3 -3 0 0 1 1 1 1 0 0 -2 -3 -3 -4 -4 -4 -4 -5 -5 -5 -4 -5 -5 -4 -5 -5 -5 -5 -5 -5 -5 -5 -4 -3 -5 -4 -4 -4 -4 -4 -3 -3
-1 -2 -3 -1 -1 0 1 1 1 1 1 0 -1 -2 -3 -3 -4 -4 -5 -5 -5 -5 -5 -6 -5 -5 -5 -5 -5 -5 -5 -5 -5 -4 -4 -4 -5 -4 -4 -4 -4 -3 -3 -3
-1 -1 -2 -2 -0 -0 0 1 0 1 1 0 -0 -1 -2 -3 -4 -4 -4 -5 -5 -5 -6 -6 -7 -6 -6 -5 -5 -5 -5 -5 -5 -4 -4 -5 -4 -4 -4 -4 -4 -4 -3 -3
-1 -3 -2 -2 -1 -0 0 1 0 0 0 1 0 -0 -2 -2 -4 -4 -4 -4 -4 -4 -4 -5 -6 -7 -7 -6 -5 -5 -5 -5 -5 -5 -5 -5 -5 -4 -4 -5 -5 -4 -4 -4
-2 -2 -4 -2 -1 -1 -0 0 -0 0 0 -0 -0 -1 -2 -2 -3 -3 -4 -4 -4 -4 -4 -4 -5 -7 -7 -7 -6 -6 -6 -6 -5 -6 -5 -5 -5 -5 -5 -5 -4 -5 -5 -4
-2 -2 -4 -2 -1 -1 -0 -0 -1 -0 -0 -0 -1 -1 -2 -2 -3 -3 -4 -4 -4 -4 -4 -4 -4 -5 -6 -7 -6 -6 -6 -6 -6 -6 -6 -6 -5 -5 -5 -4 -5 -5 -5 -5
-2 -2 -4 -2 -2 -1 -1 -1 -1 -1 -1 -0 -1 -1 -2 -2 -3 -3 -4 -4 -4 -4 -4 -4 -4 -5 -6 -6 -6 -6 -7 -6 -6 -6 -6 -6 -5 -5 -5 -5 -5 -5 -5 -5
-2 -3 -4 -3 -2 -1 -1 -1 -1 -0 -0 -1 -1 -2 -2 -2 -3 -3 -4 -4 -4 -4 -4 -4 -5 -5 -5 -6 -7 -7 -7 -6 -6 -6 -6 -6 -5 -5 -5 -5 -5 -5 -5 -5
-3 -3 -5 -4 -2 -1 -1 -1 -1 -0 -0 -1 -1 -2 -2 -2 -3 -3 -3 -4 -4 -4 -4 -5 -5 -5 -5 -6 -7 -6 -7 -7 -6 -6 -6 -6 -6 -6 -6 -6 -5 -5 -5 -5
-3 -3 -4 -4 -2 -2 -2 -1 -1 -1 -1 -1 -1 -2 -2 -2 -2 -3 -3 -3 -4 -4 -4 -4 -5 -5 -5 -5 -5 -6 -8 -7 -7 -7 -6 -6 -6 -5 -6 -6 -6 -6 -6 -6
-4 -5 -3 -4 -3 -2 -2 -2 -2 -1 -2 -1 -1 -2 -1 -2 -2 -3 -3 -3 -4 -4 -4 -5 -5 -5 -4 -5 -6 -6 -7 -7 -7 -7 -7 -7 -6 -6 -6 -6 -6 -6 -6 -6
-5 -5 -4 -3 -5 -3 -3 -3 -3 -3 -3 -2 -2 -2 -2 -2 -2 -3 -3 -4 -4 -5 -5 -5 -6 -5 -5 -5 -6 -6 -7 -7 -6 -6 -6 -6 -6 -6 -6 -6 -6 -6 -6 -6
-6 -5 -4 -4 -4 -4 -4 -3 -4 -4 -3 -3 -2 -2 -2 -3 -2 -3 -3 -3 -4 -6 -7 -7 -8 -5 -5 -6 -6 -6 -7 -7 -6 -6 -6 -6 -6 -6 -6 -6 -6 -7 -7 -6
-5 -6 -4 -4 -4 -4 -3 -4 -5 -4 -3 -3 -3 -3 -3 -3 -3 -3 -4 -4 -4 -7 -8 -8 -8 -5 -5 -6 -6 -7 -7 -7 -7 -7 -7 -7 -7 -6 -7 -7 -6 -7 -7 -7
-7 -6 -4 -4 -4 -4 -4 -4 -4 -4 -3 -2 -2 -3 -3 -3 -3 -4 -4 -4 -6 -6 -8 -8 -6 -6 -6 -7 -7 -7 -7 -7 -7 -7 -7 -7 -7 -7 -7 -7 -7 -7 -7 -7
-8 -6 -5 -3 -3 -4 -4 -3 -3 -3 -3 -3 -3 -4 -3 -3 -4 -4 -4 -6 -6 -8 -9 -6 -5 -5 -6 -7 -7 -7 -7 -8 -8 -8 -8 -8 -8 -7 -7 -8 -7 -8 -7 -7
-7 -6 -4 -4 -4 -4 -4 -3 -3 -4 -4 -3 -4 -4 -4 -4 -4 -4 -5 -5 -6 -6 -5 -5 -6 -6 -7 -7 -8 -8 -8 -8 -8 -8 -8 -8 -8 -8 -8 -8 -8 -8 -8 -8
-7 -6 -5 -4 -5 -4 -4 -5 -5 -5 -5 -4 -4 -4 -4 -4 -4 -5 -5 -5 -4 -4 -5 -6 -7 -8 -8 -8 -9 -9 -9 -9 -9 -9 -9 -9 -9 -9 -9 -9 -9 -9 -9 -9
-7 -6 -5 -5 -5 -4 -5 -5 -5 -5 -5 -5 -5 -4 -4 -5 -5 -5 -5 -4 -4 -5 -6 -7 -8 -8 -9 -9 -9 -9 -9 -9 -9 -9 -9 -9 -9 -9 -9 -10 -10 -10 -10 -10

GFSNW_700_temp_111.txt.gz
Temp
-2 -3 -3 -2 -2 -3 -3 -1 -1 -2 -3 -3 -4 -4 -5 -5 -7 -7 -6 -6 -6 -6 -7 -6 -7 -7 -6 -7 -7 -7 -7 -7 -7 -6 -5 -5 -4 -4 -4 -3 -4 -5 -4 -4
-3 -3 -3 -3 -3 -1 -1 -1 -1 -2 -3 -3 -4 -4 -5 -6 -7 -7 -6 -6 -6 -7 -7 -6 -6 -6 -6 -6 -6 -6 -7 -6 -6 -6 -5 -5 -5 -5 -4 -3 -4 -5 -6 -4
-2 -2 -3 -2 -3 -3 -2 -1 -1 -2 -3 -3 -4 -4 -5 -6 -6 -7 -7 -7 -7 -7 -6 -7 -6 -6 -6 -6 -6 -6 -6 -6 -6 -8 -6 -6 -5 -5 -4 -4 -3 -4 -5 -3
-2 -2 -2 -2 -2 -2 -1 -1 -1 -1 -1 -3 -3 -4 -5 -5 -6 -5 -5 -6 -7 -7 -6 -7 -7 -6 -5 -5 -6 -6 -6 -6 -6 -5 -5 -5 -5 -4 -4 -4 -4 -4 -4 -4
-3 -2 -2 -3 -2 -2 -1 -1 -1 -1 -2 -2 -3 -4 -5 -5 -5 -5 -5 -5 -6 -7 -7 -6 -7 -7 -6 -5 -5 -5 -5 -5 -5 -5 -5 -5 -5 -5 -4 -4 -4 -4 -4 -4
-3 -3 -3 -5 -4 -2 -1 -1 -1 -1 -2 -3 -3 -4 -4 -4 -5 -5 -5 -4 -5 -7 -7 -7 -7 -6 -7 -5 -5 -5 -5 -5 -5 -5 -5 -5 -4 -5 -4 -4 -4 -4 -4 -4
-3 -3 -3 -2 -5 -4 -2 -2 -2 -2 -2 -2 -3 -4 -4 -4 -4 -4 -4 -4 -4 -5 -6 -6 -6 -6 -6 -4 -5 -5 -6 -6 -6 -5 -5 -6 -5 -5 -4 -4 -4 -4 -3 -3
-3 -4 -3 -3 -4 -3 -3 -2 -2 -2 -2 -2 -3 -4 -4 -4 -4 -4 -5 -4 -5 -5 -5 -5 -5 -6 -6 -6 -6 -6 -6 -6 -6 -5 -5 -5 -5 -5 -5 -4 -4 -4 -3 -3
-3 -4 -4 -2 -3 -3 -3 -2 -2 -2 -2 -2 -2 -4 -4 -4 -4 -4 -4 -4 -5 -5 -6 -6 -5 -5 -6 -6 -6 -6 -7 -6 -6 -5 -5 -6 -5 -5 -5 -5 -5 -4 -3 -3
-4 -3 -3 -3 -3 -4 -3 -2 -2 -2 -2 -2 -2 -3 -3 -4 -4 -4 -4 -4 -5 -5 -5 -6 -6 -6 -6 -6 -6 -6 -6 -6 -6 -6 -5 -5 -5 -5 -4 -5 -5 -5 -4 -3
-2 -4 -4 -3 -3 -3 -2 -2 -2 -2 -1 -2 -2 -3 -3 -4 -3 -4 -4 -5 -5 -5 -5 -5 -5 -6 -5 -6 -6 -6 -5 -5 -5 -5 -5 -5 -5 -5 -5 -5 -4 -4 -4 -3
-3 -4 -4 -3 -3 -3 -2 -1 -1 -1 -1 -2 -2 -3 -3 -4 -4 -4 -3 -4 -4 -4 -4 -4 -5 -5 -5 -5 -5 -6 -5 -5 -5 -5 -5 -5 -5 -6 -5 -4 -4 -4 -4 -4
-3 -4 -4 -3 -3 -2 -2 -1 -2 -1 -1 -1 -2 -2 -3 -3 -3 -3 -4 -4 -4 -4 -4 -4 -4 -4 -5 -5 -5 -5 -6 -5 -5 -5 -6 -5 -5 -6 -6 -5 -5 -4 -5 -5
-3 -4 -4 -4 -2 -2 -2 -1 -1 -2 -2 -1 -1 -2 -2 -3 -3 -3 -3 -4 -4 -4 -4 -4 -4 -4 -4 -5 -5 -5 -5 -5 -6 -5 -6 -5 -6 -5 -6 -5 -5 -5 -5 -5
-3 -4 -4 -4 -3 -3 -3 -2 -2 -3 -2 -2 -1 -2 -2 -2 -3 -3 -3 -3 -4 -4 -4 -4 -4 -4 -4 -4 -5 -4 -4 -5 -5 -5 -5 -5 -6 -5 -5 -5 -5 -5 -5 -5
-3 -4 -4 -5 -3 -3 -2 -2 -2 -2 -2 -2 -2 -2 -1 -2 -2 -3 -3 -3 -3 -4 -4 -4 -4 -4 -4 -5 -5 -4 -4 -5 -5 -5 -5 -6 -6 -6 -5 -5 -5 -5 -5 -6
-3 -4 -4 -4 -3 -3 -3 -3 -2 -3 -2 -2 -2 -1 -1 -1 -2 -2 -2 -2 -3 -3 -3 -3 -4 -4 -4 -4 -4 -4 -4 -5 -5 -5 -5 -6 -6 -5 -5 -6 -6 -5 -6 -6
-4 -4 -4 -4 -5 -3 -3 -3 -3 -3 -3 -3 -2 -1 -2 -1 -1 -2 -2 -2 -2 -3 -3 -3 -3 -4 -4 -3 -3 -3 -4 -4 -5 -5 -6 -6 -6 -6 -6 -6 -6 -6 -6 -6
-5 -4 -4 -5 -6 -4 -3 -4 -3 -3 -3 -3 -2 -1 -1 -1 -1 -2 -2 -2 -3 -3 -3 -3 -4 -4 -3 -3 -3 -3 -4 -4 -5 -5 -6 -6 -6 -6 -6 -6 -6 -6 -6 -6
-6 -5 -6 -5 -6 -5 -5 -4 -4 -3 -4 -3 -2 -1 -1 -1 -1 -2 -2 -2 -2 -3 -3 -4 -4 -2 -2 -2 -3 -4 -4 -5 -5 -6 -6 -6 -6 -6 -6 -6 -6 -6 -7 -7
-6 -6 -6 -6 -6 -7 -6 -5 -4 -4 -4 -3 -2 -2 -2 -2 -2 -2 -2 -2 -2 -2 -4 -4 -3 -1 -1 -2 -3 -3 -4 -5 -5 -6 -6 -6 -6 -7 -7 -7 -7 -7 -7 -7
-5 -6 -6 -6 -7 -8 -7 -5 -4 -4 -3 -3 -2 -2 -2 -2 -2 -3 -2 -2 -2 -3 -5 -5 -2 -0 -1 -2 -3 -4 -4 -5 -5 -6 -6 -6 -7 -7 -7 -7 -7 -8 -8 -8
-7 -7 -6 -7 -8 -7 -5 -5 -4 -4 -3 -2 -1 -2 -4 -3 -3 -3 -2 -2 -3 -4 -4 -3 -1 -1 -2 -3 -4 -4 -5 -5 -6 -6 -6 -6 -7 -7 -7 -7 -8 -8 -8 -8
-7 -7 -7 -6 -6 -6 -5 -4 -3 -2 -1 -2 -2 -3 -4 -4 -4 -3 -2 -3 -4 -5 -5 -1 -1 -2 -3 -4 -4 -5 -5 -6 -6 -6 -6 -7 -7 -7 -8 -8 -8 -9 -9 -9
-7 -8 -7 -5 -5 -4 -4 -4 -3 -2 -2 -1 -2 -4 -4 -4 -3 -3 -3 -3 -4 -4 -2 -2 -3 -3 -4 -5 -5 -5 -6 -6 -7 -6 -6 -7 -7 -8 -8 -9 -9 -9 -10 -10
-8 -8 -6 -5 -4 -4 -4 -3 -3 -3 -2 -3 -4 -5 -4 -4 -3 -3 -3 -3 -3 -3 -3 -3 -4 -4 -5 -5 -6 -6 -7 -7 -7 -7 -7 -8 -8 -8 -9 -9 -10 -10 -10 -10
-8 -7 -6 -5 -4 -3 -3 -3 -3 -4 -3 -3 -4 -4 -3 -3 -3 -3 -3 -3 -3 -3 -4 -4 -5 -5 -6 -6 -6 -7 -7 -8 -8 -8 -9 -9 -9 -9 -9 -9 -10 -10 -10 -11

GFSNW_700_temp_114.txt.gz
Temp
-5 -5 -3 -4 -4 -4 -4 -5 -4 -4 -4 -5 -5 -5 -6 -7 -7 -6 -6 -6 -6 -7 -7 -8 -6 -6 -6 -6 -7 -7 -6 -6 -6 -5 -5 -5 -5 -5 -5 -4 -5 -6 -4 -4
-4 -2 -1 -3 -4 -3 -4 -4 -4 -4 -4 -4 -4 -5 -6 -7 -7 -7 -7 -7 -7 -7 -7 -7 -6 -6 -6 -6 -6 -6 -6 -6 -5 -5 -5 -5 -5 -5 -4 -4 -4 -6 -6 -4
-3 -3 -3 -3 -4 -3 -4 -4 -4 -4 -4 -4 -4 -5 -5 -6 -7 -7 -7 -6 -7 -7 -7 -7 -6 -5 -6 -6 -6 -6 -6 -6 -6 -7 -7 -6 -5 -5 -4 -3 -3 -5 -5 -4
-3 -3 -3 -3 -4 -5 -4 -5 -3 -2 -2 -3 -4 -5 -5 -5 -5 -6 -7 -6 -7 -7 -6 -7 -7 -6 -6 -5 -5 -5 -5 -6 -6 -6 -6 -5 -5 -5 -4 -3 -4 -4 -4 -4
-3 -3 -3 -3 -5 -3 -4 -4 -3 -2 -2 -3 -4 -5 -5 -5 -5 -5 -6 -6 -6 -7 -6 -7 -7 -7 -7 -6 -5 -5 -6 -6 -5 -5 -5 -5 -5 -5 -4 -4 -4 -4 -3 -3
-3 -4 -3 -3 -5 -4 -4 -4 -3 -3 -3 -3 -4 -4 -5 -4 -5 -5 -5 -6 -5 -7 -7 -7 -7 -7 -7 -4 -5 -5 -5 -5 -5 -6 -5 -5 -4 -5 -4 -4 -4 -4 -3 -3
-2 -3 -3 -3 -4 -4 -5 -4 -4 -3 -3 -4 -4 -5 -4 -4 -5 -5 -5 -5 -6 -5 -5 -6 -6 -7 -6 -5 -5 -5 -5 -6 -6 -5 -5 -7 -6 -5 -5 -5 -4 -4 -4 -3
-2 -4 -4 -4 -4 -5 -4 -4 -4 -4 -4 -4 -4 -4 -4 -4 -5 -5 -5 -5 -5 -5 -5 -5 -6 -6 -6 -6 -6 -6 -7 -6 -5 -5 -6 -5 -6 -6 -5 -5 -5 -4 -4 -3
-2 -3 -3 -3 -4 -4 -3 -3 -4 -4 -4 -3 -4 -4 -4 -4 -4 -5 -5 -5 -5 -5 -6 -6 -6 -6 -6 -6 -6 -7 -7 -7 -6 -5 -6 -7 -5 -6 -5 -5 -5 -4 -4 -3
-2 -3 -3 -4 -3 -2 -3 -3 -4 -3 -4 -3 -4 -4 -3 -3 -4 -4 -4 -5 -5 -5 -5 -5 -6 -5 -5 -6 -6 -7 -6 -6 -6 -6 -6 -6 -5 -5 -5 -5 -5 -4 -3 -3
-2 -3 -3 -4 -4 -3 -3 -3 -3 -3 -3 -3 -3 -3 -3 -3 -4 -4 -4 -5 -5 -5 -5 -5 -5 -5 -5 -5 -5 -5 -5 -5 -5 -5 -5 -6 -5 -5 -5 -5 -5 -4 -4 -4
-3 -3 -3 -4 -4 -4 -3 -3 -3 -3 -3 -3 -3 -3 -3 -3 -4 -4 -4 -4 -4 -4 -5 -4 -5 -5 -5 -5 -5 -5 -5 -5 -5 -5 -5 -5 -5 -5 -5 -5 -5 -5 -5 -5
-2 -3 -3 -4 -4 -4 -3 -3 -3 -3 -3 -3 -3 -2 -3 -3 -3 -4 -4 -4 -4 -4 -4 -4 -4 -4 -4 -5 -5 -5 -5 -5 -5 -5 -5 -5 -5 -5 -5 -5 -6 -5 -5 -5
-3 -3 -3 -4 -5 -3 -3 -3 -3 -3 -3 -3 -2 -2 -2 -3 -3 -3 -4 -4 -4 -4 -4 -4 -4 -4 -4 -4 -4 -4 -4 -5 -5 -5 -5 -5 -5 -5 -5 -5 -5 -5 -5 -4
-3 -3 -3 -4 -4 -4 -3 -2 -3 -3 -3 -2 -2 -2 -2 -2 -3 -3 -3 -4 -4 -4 -4 -4 -4 -4 -4 -4 -4 -4 -3 -4 -4 -5 -5 -5 -5 -5 -5 -5 -5 -5 -5 -6
-3 -3 -3 -4 -4 -5 -3 -3 -2 -3 -2 -2 -2 -2 -2 -2 -2 -3 -3 -3 -3 -4 -4 -4 -4 -3 -4 -4 -4 -3 -3 -4 -4 -4 -5 -5 -5 -6 -5 -5 -5 -5 -5 -5
-5 -5 -4 -4 -5 -4 -3 -3 -2 -3 -3 -3 -2 -2 -1 -1 -2 -2 -3 -3 -3 -3 -3 -3 -3 -3 -4 -3 -2 -2 -3 -3 -4 -4 -4 -5 -5 -5 -5 -5 -5 -5 -5 -5
-6 -5 -5 -4 -6 -5 -4 -4 -3 -2 -3 -3 -2 -1 -1 -1 -1 -2 -2 -2 -2 -3 -3 -3 -3 -3 -3 -2 -1 -2 -2 -3 -4 -5 -5 -5 -5 -5 -5 -5 -6 -6 -6 -6
-6 -6 -5 -5 -5 -5 -4 -4 -4 -3 -4 -4 -2 -2 -0 -1 -1 -1 -2 -2 -2 -2 -2 -3 -3 -2 -1 -0 -1 -2 -2 -3 -4 -4 -5 -5 -5 -6 -6 -6 -6 -6 -6 -6
-6 -6 -6 -6 -6 -6 -6 -5 -4 -4 -4 -4 -2 -2 -1 -1 -1 -1 -2 -2 -2 -3 -2 -3 -3 -0 -0 -1 -1 -1 -2 -3 -4 -4 -5 -5 -5 -6 -6 -6 -6 -6 -6 -6
-6 -7 -6 -6 -5 -6 -8 -5 -5 -5 -5 -4 -2 -2 -2 -2 -1 -2 -2 -2 -2 -2 -3 -3 -2 0 1 -0 -1 -2 -2 -3 -4 -4 -5 -5 -6 -6 -7 -7 -7 -7 -7 -7
-6 -7 -7 -6 -6 -7 -8 -6 -5 -4 -3 -3 -2 -2 -2 -2 -2 -2 -2 -2 -1 -2 -4 -4 -2 1 0 -0 -1 -2 -3 -3 -4 -5 -5 -5 -6 -6 -6 -7 -7 -7 -7 -7
-7 -8 -7 -7 -6 -6 -6 -6 -4 -4 -4 -2 -1 -2 -2 -3 -3 -3 -2 -2 -3 -4 -4 -2 -0 0 -0 -1 -2 -2 -3 -4 -4 -5 -5 -5 -5 -6 -6 -6 -7 -7 -7 -8
-8 -8 -7 -7 -6 -5 -4 -4 -3 -3 -2 -1 -2 -1 -3 -3 -3 -3 -2 -3 -3 -3 -4 -1 -0 -0 -1 -2 -2 -3 -4 -4 -5 -5 -5 -6 -6 -6 -7 -7 -7 -8 -9 -10
-9 -8 -7 -6 -5 -4 -4 -3 -3 -3 -3 -2 -1 -3 -3 -4 -3 -3 -2 -3 -3 -2 -1 -1 -1 -1 -2 -3 -3 -4 -4 -5 -5 -6 -6 -6 -6 -7 -7 -8 -8 -9 -9 -9
-8 -8 -7 -5 -5 -4 -4 -3 -2 -3 -3 -2 -3 -4 -4 -4 -3 -3 -2 -3 -2 -1 -1 -1 -2 -3 -3 -4 -4 -5 -5 -5 -6 -6 -6 -7 -7 -8 -8 -9 -9 -9 -9 -10
-8 -7 -6 -6 -5 -4 -3 -3 -3 -3 -3 -2 -3 -3 -3 -3 -3 -3 -3 -2 -1 -1 -2 -2 -3 -3 -4 -4 -5 -5 -5 -6 -6 -7 -7 -8 -9 -9 -9 -9 -9 -10 -11 -12

GFSNW_700_temp_117.txt.gz
Temp
-3 -4 -3 -4 -3 -5 -4 -4 -5 -5 -5 -6 -6 -7 -7 -7 -7 -7 -6 -7 -6 -7 -7 -6 -6 -6 -6 -6 -7 -6 -6 -6 -6 -5 -5 -5 -5 -5 -5 -5 -5 -6 -4 -4
-2 -2 -3 -3 -4 -4 -4 -4 -4 -6 -5 -6 -6 -7 -7 -7 -8 -7 -7 -7 -7 -7 -7 -6 -6 -6 -6 -6 -6 -6 -6 -6 -5 -4 -4 -4 -5 -5 -4 -4 -4 -6 -4 -3
-3 -3 -4 -3 -3 -4 -4 -4 -4 -5 -6 -5 -6 -6 -6 -7 -7 -7 -7 -7 -7 -7 -7 -6 -6 -6 -5 -5 -5 -5 -6 -6 -6 -7 -6 -6 -5 -4 -3 -4 -4 -5 -5 -4
-1 -2 -3 -3 -4 -4 -4 -3 -4 -4 -5 -5 -6 -6 -6 -6 -6 -7 -8 -7 -7 -7 -7 -7 -8 -6 -5 -5 -5 -5 -5 -6 -6 -6 -6 -6 -5 -5 -5 -4 -4 -4 -5 -4
-2 -2 -2 -3 -4 -3 -3 -3 -4 -5 -4 -5 -5 -5 -5 -6 -6 -6 -6 -7 -7 -7 -7 -7 -7 -6 -4 -4 -5 -5 -5 -6 -5 -6 -6 -5 -5 -4 -4 -5 -4 -4 -4 -4
-1 -1 -2 -3 -3 -3 -4 -3 -4 -5 -5 -4 -5 -5 -5 -6 -6 -5 -5 -7 -6 -7 -7 -7 -7 -6 -4 -5 -5 -5 -5 -5 -5 -5 -5 -5 -4 -5 -5 -5 -5 -4 -4 -5
0 -0 -1 -2 -3 -3 -3 -3 -3 -4 -5 -5 -5 -5 -5 -5 -6 -5 -5 -6 -6 -6 -6 -7 -7 -7 -5 -5 -5 -5 -5 -5 -5 -5 -5 -7 -6 -5 -5 -5 -5 -5 -5 -4
-2 -2 -2 -2 -3 -2 -4 -2 -3 -4 -4 -4 -5 -5 -5 -5 -5 -5 -5 -5 -6 -5 -6 -6 -7 -7 -6 -6 -5 -5 -6 -5 -5 -6 -6 -6 -5 -5 -5 -4 -4 -4 -4 -4
-4 -3 -2 -2 -3 -2 -4 -3 -3 -3 -4 -4 -4 -5 -5 -5 -5 -5 -4 -5 -5 -5 -5 -6 -6 -6 -6 -6 -6 -7 -7 -7 -6 -5 -6 -7 -5 -5 -5 -5 -5 -5 -4 -3
-4 -4 -2 -1 -2 -3 -3 -3 -2 -3 -4 -4 -4 -4 -5 -5 -5 -4 -4 -5 -5 -5 -5 -5 -5 -5 -5 -5 -5 -7 -7 -7 -7 -6 -6 -5 -5 -5 -5 -5 -5 -5 -4 -4
-4 -4 -3 -1 -1 -2 -3 -3 -2 -3 -3 -3 -4 -4 -5 -5 -4 -4 -4 -5 -5 -5 -5 -5 -4 -5 -5 -5 -5 -5 -5 -5 -5 -5 -5 -6 -5 -5 -5 -5 -5 -5 -4 -4
-5 -5 -4 -3 -2 -2 -4 -3 -2 -2 -3 -3 -4 -4 -4 -4 -4 -4 -4 -4 -4 -4 -4 -4 -4 -4 -4 -4 -4 -5 -5 -5 -5 -4 -4 -4 -5 -5 -6 -6 -5 -5 -5 -4
-4 -5 -4 -3 -2 -3 -4 -3 -2 -2 -3 -3 -3 -3 -4 -4 -4 -4 -4 -4 -4 -4 -4 -4 -4 -4 -4 -4 -4 -4 -4 -4 -4 -4 -4 -4 -4 -4 -5 -5 -5 -6 -6 -5
-5 -5 -5 -4 -4 -4 -4 -3 -2 -2 -2 -2 -2 -3 -3 -3 -3 -3 -4 -4 -4 -4 -4 -4 -4 -4 -4 -4 -4 -3 -4 -4 -4 -4 -4 -4 -4 -4 -4 -4 -5 -5 -5 -5
-4 -4 -5 -6 -6 -5 -4 -3 -3 -2 -2 -2 -2 -2 -2 -3 -3 -3 -3 -3 -4 -4 -4 -4 -4 -4 -4 -4 -3 -3 -3 -3 -3 -3 -4 -4 -4 -4 -4 -5 -5 -5 -4 -4
-4 -4 -5 -6 -6 -5 -4 -4 -3 -3 -2 -2 -2 -2 -2 -2 -2 -3 -3 -3 -4 -4 -4 -4 -4 -4 -4 -4 -3 -1 -2 -3 -3 -3 -4 -4 -4 -4 -4 -5 -5 -5 -5 -5
-5 -5 -5 -6 -7 -6 -4 -4 -3 -2 -2 -2 -2 -2 -1 -2 -2 -2 -3 -3 -3 -3 -3 -3 -3 -3 -4 -3 -1 -1 -1 -2 -3 -3 -4 -4 -5 -5 -5 -5 -5 -5 -5 -5
-4 -5 -5 -6 -7 -6 -5 -4 -4 -3 -3 -3 -3 -2 -1 -2 -2 -2 -2 -2 -3 -3 -3 -2 -2 -3 -3 -1 0 -0 -1 -1 -2 -3 -3 -4 -4 -5 -5 -5 -5 -5 -5 -6
-5 -6 -6 -6 -7 -6 -7 -6 -4 -4 -4 -4 -3 -2 -0 -1 -1 -2 -2 -2 -3 -3 -2 -2 -3 -2 -1 0 0 -0 -1 -1 -2 -2 -3 -4 -4 -4 -5 -5 -6 -6 -6 -6
-5 -5 -7 -6 -6 -7 -7 -7 -5 -5 -5 -5 -3 -2 -1 -1 -1 -1 -2 -2 -2 -2 -2 -2 -2 0 1 0 -0 -0 -1 -1 -2 -2 -3 -4 -4 -5 -5 -6 -6 -6 -7 -6
-7 -7 -7 -7 -6 -7 -8 -7 -6 -5 -5 -4 -3 -2 -2 -2 -1 -2 -2 -2 -2 -2 -2 -3 -2 1 2 1 1 -0 -1 -1 -2 -2 -3 -4 -4 -5 -5 -6 -6 -6 -7 -7
-7 -9 -7 -7 -7 -7 -7 -8 -7 -5 -4 -3 -2 -1 -2 -2 -2 -2 -2 -2 -1 -2 -3 -3 -1 2 2 1 1 0 -1 -2 -2 -2 -3 -4 -4 -5 -5 -6 -6 -6 -6 -7
-10 -9 -8 -7 -7 -7 -7 -7 -5 -5 -4 -3 -2 -1 -2 -2 -2 -3 -2 -1 -2 -3 -3 -2 0 1 1 1 1 -0 -1 -2 -2 -3 -3 -4 -5 -5 -5 -5 -6 -6 -6 -7
-10 -9 -8 -8 -7 -6 -6 -5 -5 -4 -3 -2 -2 -0 -2 -2 -3 -2 -2 -2 -3 -3 -3 -0 1 1 1 0 -0 -1 -2 -2 -3 -4 -4 -4 -5 -5 -6 -6 -6 -7 -7 -8
-10 -9 -8 -8 -6 -5 -5 -5 -5 -4 -4 -2 -1 -2 -2 -2 -3 -3 -2 -2 -2 -2 0 1 0 -0 -0 -0 -2 -2 -3 -3 -4 -4 -5 -5 -5 -6 -7 -8 -8 -8 -8 -9
-10 -9 -8 -7 -6 -5 -5 -5 -4 -4 -4 -2 -3 -4 -4 -3 -3 -3 -2 -2 -1 -0 1 0 0 -0 -1 -2 -2 -3 -3 -4 -4 -5 -5 -5 -6 -7 -8 -9 -9 -9 -9 -9
-10 -9 -8 -7 -6 -5 -5 -4 -3 -4 -4 -3 -3 -3 -2 -2 -3 -3 -2 -1 -0 0 0 -0 -1 -1 -2 -3 -3 -4 -4 -5 -5 -5 -5 -6 -7 -8 -9 -9 -9 -10 -10 -10

GFSNW_700_temp_123.txt.gz
Temp
-4 -3 -3 -4 -3 -2 -2 -3 -2 -3 -3 -4 -5 -7 -6 -6 -7 -6 -6 -7 -6 -6 -6 -5 -5 -6 -6 -6 -5 -7 -7 -7 -6 -5 -5 -5 -4 -4 -5 -3 -3 -3 -3 -4
-4 -4 -4 -4 -4 -3 -3 -2 -2 -3 -3 -4 -6 -6 -6 -7 -7 -7 -7 -7 -6 -6 -6 -6 -5 -5 -6 -5 -5 -6 -6 -5 -4 -3 -3 -4 -4 -4 -4 -4 -3 -4 -2 -4
-5 -4 -3 -3 -3 -3 -3 -3 -2 -3 -3 -4 -6 -7 -7 -7 -7 -7 -6 -6 -6 -6 -6 -5 -6 -7 -5 -5 -5 -5 -5 -5 -5 -4 -6 -5 -5 -5 -4 -3 -4 -4 -4 -4
-4 -5 -4 -3 -3 -3 -2 -2 -2 -2 -3 -4 -4 -5 -7 -7 -7 -6 -6 -6 -6 -6 -6 -5 -6 -5 -5 -4 -5 -5 -5 -5 -5 -5 -5 -5 -5 -5 -4 -4 -4 -4 -4 -4
-5 -5 -4 -4 -3 -3 -2 -2 -1 -2 -2 -3 -4 -4 -5 -7 -6 -6 -5 -6 -5 -6 -6 -6 -5 -4 -4 -4 -4 -4 -5 -5 -5 -4 -4 -5 -5 -4 -5 -4 -4 -4 -4 -4
-5 -5 -5 -5 -4 -3 -3 -2 -2 -2 -2 -3 -4 -4 -4 -5 -5 -5 -5 -4 -5 -6 -5 -4 -3 -3 -3 -4 -4 -4 -4 -5 -4 -3 -4 -4 -3 -5 -4 -4 -5 -5 -4 -4
-1 -4 -5 -5 -5 -4 -3 -3 -3 -2 -2 -3 -3 -3 -3 -4 -4 -4 -4 -4 -4 -4 -4 -3 -3 -3 -3 -3 -4 -3 -4 -5 -4 -4 -2 -2 -5 -5 -4 -5 -5 -5 -4 -4
1 -1 -3 -5 -4 -3 -3 -3 -4 -3 -2 -3 -3 -3 -3 -4 -4 -4 -4 -4 -4 -4 -3 -4 -4 -5 -5 -4 -3 -3 -3 -5 -4 -3 -3 -4 -5 -4 -5 -5 -4 -4 -4 -4
0 -0 -1 -3 -4 -4 -3 -3 -4 -4 -3 -3 -3 -3 -3 -3 -4 -4 -4 -4 -4 -4 -4 -6 -5 -3 -4 -4 -5 -3 -3 -3 -4 -4 -2 -1 -4 -4 -4 -4 -5 -3 -3 -3
0 -0 -0 -1 -3 -4 -4 -3 -3 -4 -4 -3 -3 -3 -3 -3 -3 -4 -4 -4 -4 -4 -6 -6 -4 -3 -4 -4 -4 -4 -4 -4 -3 -3 -3 -3 -3 -3 -3 -3 -4 -3 -3 -3
-0 -0 -1 -1 -1 -3 -5 -4 -4 -3 -4 -4 -3 -3 -3 -3 -3 -4 -4 -5 -5 -4 -5 -5 -4 -5 -4 -4 -3 -3 -4 -4 -3 -4 -3 -2 -2 -3 -4 -4 -4 -3 -2 -2
-1 -0 -1 -2 -2 -1 -4 -5 -4 -4 -3 -4 -4 -3 -3 -3 -3 -3 -4 -4 -4 -5 -5 -5 -4 -5 -4 -4 -3 -3 -3 -3 -3 -3 -3 -2 -2 -2 -2 -2 -2 -2 -3 -3
-1 -1 -1 -1 -2 -2 -2 -4 -5 -5 -3 -3 -3 -3 -3 -3 -3 -3 -4 -4 -4 -4 -4 -4 -4 -4 -4 -4 -4 -3 -2 -2 -2 -2 -2 -2 -2 -2 -2 -3 -3 -3 -3 -3
-1 -1 -1 -2 -3 -3 -3 -2 -3 -4 -4 -3 -3 -3 -3 -3 -3 -3 -3 -3 -4 -4 -5 -5 -4 -4 -3 -4 -3 -3 -3 -2 -2 -2 -2 -2 -2 -2 -2 -3 -3 -3 -3 -3
-2 -1 -2 -2 -2 -3 -4 -4 -3 -4 -4 -4 -3 -4 -3 -3 -3 -3 -3 -3 -4 -4 -5 -5 -5 -4 -4 -3 -3 -0 0 -0 -1 -2 -2 -2 -2 -2 -2 -3 -3 -3 -3 -3
-2 -2 -2 -3 -3 -3 -5 -4 -5 -5 -4 -4 -3 -3 -3 -3 -3 -3 -3 -4 -4 -4 -4 -4 -4 -3 -4 -4 -2 1 1 1 -0 -0 -1 -2 -2 -2 -2 -2 -3 -3 -3 -3
-3 -3 -3 -3 -3 -4 -5 -5 -5 -5 -5 -4 -4 -3 -2 -2 -2 -3 -3 -4 -4 -4 -4 -4 -4 -3 -4 -3 0 2 1 1 1 0 -0 -1 -1 -2 -2 -2 -3 -3 -3 -3
-4 -4 -4 -4 -4 -5 -6 -6 -6 -6 -6 -5 -5 -4 -2 -2 -3 -3 -3 -4 -4 -4 -4 -3 -3 -3 -3 -1 3 3 2 2 1 1 0 -0 -1 -1 -2 -2 -2 -2 -3 -3
-5 -5 -5 -6 -6 -6 -6 -6 -6 -6 -7 -7 -6 -4 -3 -2 -2 -3 -4 -4 -5 -5 -4 -3 -3 -2 -0 3 3 2 2 2 1 1 1 0 -0 -1 -1 -2 -2 -2 -3 -3
-6 -6 -6 -7 -7 -6 -7 -7 -7 -7 -7 -7 -6 -5 -4 -3 -3 -3 -5 -4 -5 -4 -3 -3 -2 1 4 3 2 2 2 2 1 1 1 0 -0 -1 -1 -2 -2 -2 -3 -3
-6 -6 -6 -6 -8 -8 -8 -8 -7 -7 -6 -6 -5 -5 -4 -3 -3 -4 -5 -4 -4 -4 -2 -3 -2 3 5 4 3 2 2 1 1 1 1 0 -0 -1 -1 -2 -2 -3 -3 -4
-7 -7 -9 -9 -10 -9 -9 -8 -7 -6 -6 -5 -5 -3 -3 -4 -4 -4 -5 -4 -3 -3 -4 -3 -1 4 4 4 4 3 3 2 1 0 0 -0 -1 -1 -2 -3 -3 -4 -4 -4
-9 -11 -11 -10 -10 -10 -9 -8 -6 -7 -5 -5 -5 -4 -4 -5 -5 -5 -4 -3 -3 -4 -3 -1 1 3 4 4 4 3 3 2 1 0 -0 -1 -1 -2 -3 -3 -4 -4 -4 -4
-11 -11 -10 -10 -9 -9 -8 -6 -5 -5 -5 -5 -4 -4 -5 -6 -6 -5 -4 -4 -4 -4 -3 -1 1 2 3 3 2 2 2 2 1 0 -1 -2 -2 -3 -3 -4 -4 -5 -5 -5
-11 -11 -10 -10 -9 -7 -6 -5 -6 -6 -6 -6 -5 -4 -5 -6 -6 -5 -4 -3 -2 -3 -0 0 1 2 2 2 2 2 1 1 0 -1 -2 -2 -3 -3 -4 -4 -5 -5 -5 -6
-11 -10 -10 -9 -8 -8 -8 -7 -6 -7 -6 -6 -5 -6 -6 -7 -7 -5 -4 -3 -3 -1 0 2 2 2 2 2 1 1 0 -0 -1 -2 -2 -3 -3 -4 -4 -5 -5 -6 -6 -7
-11 -11 -11 -10 -9 -9 -8 -8 -7 -7 -7 -6 -7 -6 -6 -6 -6 -5 -4 -3 -3 -2 -1 0 1 1 2 2 1 1 -0 -1 -2 -3 -3 -3 -4 -4 -5 -5 -6 -6 -7 -8

GFSNW_700_temp_126.txt.gz
Temp
-4 -4 -4 -5 -5 -4 -5 -4 -4 -3 -4 -3 -4 -5 -6 -7 -6 -5 -6 -6 -6 -6 -6 -5 -5 -5 -5 -5 -5 -7 -7 -6 -6 -3 -5 -4 -4 -4 -4 -4 -4 -3 -3 -4
-3 -4 -4 -4 -4 -4 -3 -3 -3 -3 -3 -6 -4 -5 -5 -6 -6 -6 -6 -6 -6 -6 -6 -6 -5 -4 -4 -5 -5 -5 -6 -5 -4 -3 -3 -4 -4 -4 -2 -3 -4 -4 -4 -4
-2 -1 -2 -3 -4 -4 -3 -4 -3 -3 -3 -3 -5 -5 -5 -5 -5 -5 -5 -5 -6 -6 -5 -5 -5 -5 -4 -4 -5 -5 -5 -5 -5 -5 -5 -5 -5 -4 -3 -3 -4 -4 -4 -4
-3 -3 -3 -2 -3 -4 -4 -4 -4 -3 -3 -3 -3 -3 -4 -4 -5 -4 -4 -5 -6 -6 -6 -5 -5 -4 -4 -4 -4 -4 -4 -5 -5 -5 -5 -4 -4 -5 -4 -4 -4 -4 -4 -4
-2 -2 -4 -4 -3 -3 -3 -3 -3 -3 -3 -2 -3 -4 -3 -3 -4 -4 -5 -5 -5 -5 -6 -6 -5 -4 -4 -4 -4 -4 -4 -4 -4 -4 -4 -4 -4 -5 -5 -5 -4 -4 -4 -4
-2 -2 -1 -2 -3 -3 -3 -2 -3 -3 -4 -3 -3 -4 -4 -3 -3 -3 -4 -4 -5 -5 -4 -3 -3 -3 -3 -3 -4 -4 -4 -4 -4 -3 -3 -3 -3 -5 -5 -5 -5 -4 -4 -4
-2 -3 -3 -1 -2 -3 -3 -2 -2 -3 -4 -3 -3 -3 -3 -3 -3 -3 -3 -4 -4 -3 -3 -3 -3 -3 -3 -3 -3 -4 -4 -5 -4 -4 -2 -5 -4 -4 -4 -5 -5 -4 -4 -4
-1 -2 -3 -3 -1 -2 -2 -3 -2 -2 -3 -4 -4 -4 -3 -3 -3 -3 -3 -4 -3 -3 -3 -3 -3 -3 -3 -3 -3 -3 -3 -4 -4 -3 -3 -4 -4 -4 -5 -5 -4 -4 -4 -4
0 -1 -2 -3 -3 -2 -2 -3 -3 -3 -3 -3 -4 -4 -4 -3 -3 -3 -3 -3 -4 -4 -3 -4 -5 -4 -4 -4 -4 -3 -3 -4 -4 -3 -3 -3 -3 -3 -3 -3 -4 -3 -3 -3
-0 -1 -1 -2 -3 -3 -3 -2 -3 -3 -3 -3 -3 -4 -4 -4 -4 -3 -3 -3 -4 -4 -5 -6 -5 -3 -4 -4 -4 -3 -3 -3 -3 -3 -3 -3 -2 -2 -3 -3 -3 -2 -2 -2
-0 -1 -1 -2 -3 -3 -3 -3 -3 -4 -4 -3 -3 -3 -3 -4 -5 -4 -3 -4 -3 -4 -4 -5 -4 -4 -4 -3 -3 -3 -3 -3 -3 -3 -3 -3 -2 -2 -2 -2 -2 -2 -2 -2
-1 -1 -1 -1 -2 -4 -3 -3 -3 -2 -3 -4 -3 -3 -2 -3 -5 -5 -4 -4 -4 -4 -4 -5 -5 -4 -4 -4 -3 -2 -2 -2 -3 -2 -2 -1 -1 -1 -2 -2 -2 -2 -2 -2
-1 -1 -1 -1 -2 -3 -3 -4 -4 -3 -2 -2 -3 -3 -2 -3 -3 -4 -4 -4 -4 -5 -5 -5 -5 -4 -4 -4 -3 -3 -2 -2 -2 -2 -2 -2 -2 -1 -1 -1 -1 -2 -2 -2
-2 -1 -1 -1 -1 -2 -3 -4 -4 -4 -4 -3 -3 -3 -3 -3 -3 -4 -4 -4 -4 -5 -5 -5 -5 -5 -4 -4 -3 -3 -2 -2 -1 -1 -1 -1 -1 -2 -2 -2 -2 -2 -2 -2
-2 -2 -2 -2 -2 -2 -3 -3 -4 -4 -4 -4 -3 -2 -2 -2 -3 -3 -3 -4 -4 -5 -5 -5 -5 -5 -4 -4 -3 1 1 1 -0 -0 -0 -1 -1 -1 -2 -2 -3 -3 -3 -3
-3 -2 -2 -2 -2 -3 -3 -3 -3 -4 -5 -5 -5 -3 -2 -2 -2 -2 -3 -3 -4 -5 -5 -5 -5 -4 -5 -5 -3 2 2 2 1 1 -0 -0 -1 -1 -2 -2 -2 -3 -3 -3
-3 -3 -3 -2 -2 -3 -3 -4 -4 -5 -5 -6 -5 -3 -2 -1 -1 -1 -2 -3 -3 -4 -5 -4 -4 -4 -5 -5 -1 3 1 1 1 1 0 -0 -0 -1 -2 -2 -2 -3 -3 -3
-3 -4 -3 -3 -3 -3 -3 -4 -6 -6 -6 -6 -6 -4 -3 -2 -1 -1 -2 -3 -4 -4 -4 -4 -3 -4 -4 -2 4 3 2 1 2 1 1 1 0 -1 -1 -1 -2 -2 -2 -3
-4 -4 -4 -4 -4 -3 -3 -5 -6 -7 -7 -7 -7 -5 -4 -3 -2 -2 -3 -4 -4 -4 -4 -3 -4 -3 -2 2 3 3 3 3 2 2 1 1 1 0 -0 -1 -1 -2 -2 -2
-4 -5 -5 -5 -4 -4 -5 -7 -7 -7 -7 -8 -6 -6 -5 -4 -3 -3 -3 -5 -4 -4 -3 -4 -3 1 3 3 2 2 2 2 2 2 2 1 1 0 0 -1 -1 -1 -2 -2
-5 -5 -5 -6 -6 -6 -8 -7 -8 -7 -7 -6 -4 -5 -5 -5 -6 -5 -4 -5 -4 -4 -4 -4 -3 3 5 4 3 3 3 2 2 1 1 1 1 1 0 -1 -1 -1 -2 -2
-6 -7 -7 -7 -8 -9 -9 -9 -8 -7 -6 -5 -4 -4 -3 -5 -6 -6 -5 -7 -5 -3 -5 -5 -2 2 3 3 4 4 3 3 2 1 1 1 0 0 -0 -1 -1 -2 -2 -3
-8 -10 -10 -9 -9 -9 -10 -10 -8 -5 -5 -3 -4 -4 -4 -5 -6 -7 -6 -7 -5 -5 -4 -3 -1 1 2 3 3 3 4 3 2 2 0 -0 -0 -0 -1 -1 -2 -2 -3 -3
-10 -10 -11 -9 -8 -9 -7 -4 -4 -4 -5 -5 -6 -5 -5 -5 -7 -7 -7 -6 -5 -5 -5 -2 -1 0 1 2 2 2 3 3 3 2 0 -1 -1 -1 -2 -2 -2 -3 -3 -4
-10 -10 -10 -9 -8 -7 -6 -6 -5 -5 -6 -6 -7 -6 -6 -6 -7 -7 -7 -6 -5 -4 -2 -1 -1 -0 0 1 2 1 1 2 1 1 -0 -1 -1 -2 -2 -2 -3 -3 -4 -4
-11 -11 -9 -8 -8 -8 -8 -7 -7 -7 -7 -7 -8 -7 -7 -8 -7 -6 -6 -5 -4 -2 -1 -0 -0 -1 0 1 0 1 1 1 0 -0 -1 -2 -2 -2 -3 -3 -3 -4 -4 -4
-11 -11 -10 -10 -9 -9 -9 -9 -8 -8 -9 -8 -8 -9 -8 -6 -7 -6 -6 -5 -4 -3 -1 -1 -1 -1 -1 -0 0 -0 0 0 -0 -1 -2 -2 -3 -3 -3 -4 -4 -4 -4 -5

GFSNW_700_temp_132.txt.gz
Temp
-0 -0 -0 -1 -1 -1 -1 -2 -3 -4 -4 -4 -4 -5 -5 -5 -5 -5 -5 -5 -5 -4 -4 -4 -4 -4 -4 -4 -5 -5 -6 -6 -5 -3 -4 -4 -4 -4 -4 -4 -4 -4 -4 -4
-0 -0 -1 -0 0 -1 -1 -2 -3 -3 -3 -4 -4 -5 -5 -5 -5 -4 -4 -5 -5 -5 -5 -4 -4 -4 -4 -4 -5 -4 -5 -5 -5 -3 -3 -4 -4 -4 -4 -3 -4 -4 -4 -4
0 -0 -1 -1 -1 -1 -1 -1 -2 -3 -3 -3 -4 -5 -5 -5 -5 -5 -4 -5 -5 -5 -5 -5 -4 -4 -4 -4 -4 -4 -4 -5 -5 -5 -5 -5 -5 -4 -4 -4 -4 -4 -4 -4
1 0 -1 -1 -1 -1 -0 -1 -2 -2 -3 -4 -3 -4 -5 -4 -5 -4 -4 -5 -5 -5 -5 -5 -4 -3 -4 -4 -4 -4 -4 -4 -4 -4 -4 -4 -5 -4 -4 -4 -4 -4 -4 -4
1 1 0 -1 -1 -1 -1 -1 -1 -1 -2 -3 -4 -3 -4 -4 -4 -4 -4 -4 -4 -4 -5 -5 -4 -4 -4 -4 -4 -4 -4 -4 -4 -2 -3 -4 -4 -4 -4 -4 -4 -4 -3 -4
1 1 1 0 -0 -1 -1 -1 -1 -1 -1 -1 -2 -3 -3 -3 -3 -4 -4 -4 -4 -4 -4 -4 -3 -3 -4 -3 -4 -5 -5 -4 -4 -2 -3 -3 -3 -3 -4 -4 -4 -4 -5 -4
2 1 1 0 -0 -1 -2 -2 -2 -1 -2 -2 -2 -2 -2 -3 -3 -3 -4 -4 -4 -4 -3 -3 -3 -3 -3 -3 -3 -4 -5 -5 -5 -4 -3 -6 -2 -2 -3 -4 -4 -4 -4 -4
2 2 1 1 0 -0 -1 -2 -2 -2 -2 -2 -2 -2 -2 -2 -2 -2 -3 -3 -3 -3 -3 -3 -2 -3 -3 -3 -3 -3 -5 -5 -5 -5 -4 -2 -1 -2 -2 -3 -3 -2 -3 -3
1 1 1 1 0 0 -0 -1 -1 -2 -2 -2 -2 -2 -1 -2 -3 -3 -2 -2 -2 -3 -3 -3 -4 -4 -4 -4 -3 -3 -3 -5 -5 -4 -4 -6 -2 -1 -2 -2 -1 -2 -2 -2
0 1 1 1 1 1 0 -1 -1 -1 -2 -2 -2 -3 -3 -2 -2 -2 -3 -3 -3 -3 -3 -4 -4 -4 -4 -4 -4 -4 -4 -4 -5 -4 -4 -2 -2 -1 -2 -2 -1 -1 -1 -2
-0 0 0 0 0 0 0 -0 -1 -1 -1 -2 -2 -2 -3 -3 -2 -2 -3 -4 -3 -3 -3 -4 -5 -5 -4 -4 -3 -4 -4 -4 -3 -4 -4 -4 -1 -2 -2 -1 -1 -1 -1 -1
-1 -0 -0 -0 0 0 0 -0 -1 -1 -1 -1 -2 -2 -2 -3 -2 -2 -2 -3 -4 -3 -3 -3 -4 -4 -4 -4 -4 -3 -4 -3 -3 -3 -1 -1 -1 -1 -2 -1 -1 -1 -1 -1
-1 -1 -1 -1 -1 -0 -0 -0 -0 -1 -1 -1 -1 -2 -2 -2 -2 -3 -2 -3 -3 -4 -4 -4 -5 -4 -4 -4 -4 -3 -2 -3 -3 -3 -1 -1 -1 -1 -1 -2 -1 -1 -1 -2
-1 -1 -1 -1 -1 -1 -1 -1 -1 -1 -2 -1 -1 -1 -2 -2 -2 -3 -2 -3 -3 -4 -4 -5 -5 -4 -4 -3 -3 -3 -2 -2 -1 -0 -0 -1 -1 -1 -1 -2 -2 -2 -2 -2
-3 -2 -2 -2 -1 -1 -1 -1 -1 -1 -2 -2 -1 -0 -1 -1 -1 -2 -3 -2 -3 -3 -4 -5 -5 -4 -4 -3 -3 2 -0 0 0 2 1 -0 -1 -1 -1 -1 -2 -2 -2 -2
-3 -2 -3 -2 -2 -2 -2 -2 -2 -2 -2 -3 -2 0 -0 -1 -0 -1 -2 -3 -3 -4 -4 -3 -4 -4 -5 -4 -1 4 2 1 1 2 1 2 0 -0 -0 -1 -1 -1 -1 -2
-3 -3 -3 -3 -3 -3 -3 -3 -3 -3 -3 -4 -3 -1 -1 -0 -1 -2 -2 -2 -2 -2 -3 -3 -3 -3 -5 -4 2 4 2 2 2 1 1 2 1 1 -1 -1 -1 -1 -1 -1
-3 -3 -4 -3 -3 -3 -3 -3 -3 -4 -4 -5 -4 -1 -1 -1 -2 -2 -2 -3 -3 -2 -3 -2 -3 -5 -5 -1 4 3 3 3 2 2 2 2 1 1 0 -0 -0 -1 -1 -1
-3 -3 -4 -4 -3 -3 -3 -4 -4 -5 -6 -6 -4 -2 -3 -2 -3 -3 -4 -4 -5 -4 -3 -3 -4 -4 -3 2 2 2 2 2 2 2 2 2 2 1 1 0 -0 -0 -0 -1
-3 -3 -4 -4 -4 -4 -5 -5 -5 -5 -5 -6 -2 -2 -3 -3 -3 -4 -5 -6 -5 -5 -4 -4 -4 -2 1 1 0 0 1 1 2 3 2 2 2 2 1 1 -0 -1 -1 -1
-3 -4 -4 -4 -5 -6 -6 -6 -5 -4 -5 -3 -1 -1 -1 -4 -4 -5 -6 -6 -5 -6 -5 -5 -5 -3 1 0 -0 -0 -0 0 1 2 2 2 1 1 0 0 -0 -1 -1 -2
-3 -4 -5 -5 -6 -7 -7 -7 -5 -3 -3 -2 -2 -2 -3 -3 -4 -6 -7 -6 -6 -6 -6 -6 -4 -2 -0 -1 -1 -0 -1 -1 -1 0 2 1 1 1 1 1 -0 -1 -2 -2
-4 -5 -6 -6 -7 -8 -8 -6 -3 -2 -1 -2 -3 -3 -4 -4 -5 -6 -6 -7 -7 -7 -6 -5 -3 -3 -3 -2 -3 -2 -2 -1 -1 -0 1 1 0 -0 -0 0 -0 -1 -2 -2
-6 -6 -6 -7 -6 -6 -3 -2 -2 -2 -3 -3 -4 -5 -5 -5 -6 -6 -7 -7 -7 -7 -6 -5 -3 -3 -2 -3 -3 -3 -3 -2 -1 -1 -0 0 0 -1 -1 -1 -1 -2 -2 -3
-6 -6 -5 -6 -4 -4 -3 -2 -3 -3 -4 -5 -5 -6 -7 -7 -7 -7 -7 -7 -7 -6 -4 -4 -4 -4 -3 -3 -2 -3 -3 -3 -3 -2 -1 -1 -1 -2 -3 -2 -2 -2 -3 -3
-6 -6 -5 -4 -5 -5 -4 -4 -4 -4 -5 -6 -7 -7 -8 -8 -8 -8 -7 -7 -6 -5 -4 -4 -4 -4 -4 -4 -4 -5 -4 -3 -3 -3 -4 -2 -2 -3 -4 -3 -3 -4 -4 -4
-7 -7 -5 -5 -6 -6 -5 -6 -6 -6 -7 -6 -8 -8 -7 -8 -9 -8 -7 -6 -5 -5 -5 -6 -6 -6 -6 -6 -6 -6 -5 -5 -4 -5 -4 -4 -4 -5 -5 -4 -4 -5 -5 -5

GFSNW_700_temp_135.txt.gz
Temp
-1 -1 -1 -1 -1 -0 -1 -1 -1 -1 -2 -1 -2 -3 -4 -4 -3 -4 -4 -5 -5 -5 -5 -4 -4 -4 -4 -5 -5 -5 -6 -6 -5 -3 -4 -4 -5 -4 -5 -4 -4 -4 -4 -4
-0 -1 -1 -1 -1 -0 -1 -1 -1 -1 -1 -2 -1 -2 -3 -4 -4 -4 -4 -4 -4 -5 -5 -5 -4 -4 -4 -5 -5 -5 -5 -5 -6 -3 -3 -4 -5 -5 -4 -4 -4 -4 -4 -4
1 0 0 0 -0 -1 -1 -1 -1 -2 -2 -2 -2 -2 -2 -3 -3 -3 -4 -3 -3 -4 -4 -5 -4 -4 -3 -4 -5 -5 -5 -5 -5 -5 -4 -5 -5 -5 -4 -4 -5 -5 -4 -4
1 1 1 1 -0 -0 -0 -1 -1 -2 -2 -3 -2 -2 -3 -2 -3 -3 -3 -3 -4 -4 -3 -3 -4 -4 -4 -3 -5 -4 -5 -4 -5 -4 -3 -4 -4 -5 -4 -4 -4 -4 -4 -4
1 1 1 1 0 -0 -1 -1 -1 -1 -2 -2 -2 -2 -2 -3 -3 -2 -3 -3 -3 -3 -4 -4 -3 -3 -4 -3 -4 -4 -4 -5 -5 -2 -3 -4 -3 -4 -4 -4 -3 -4 -4 -4
1 1 1 1 0 -1 -1 -1 -1 -1 -2 -2 -3 -3 -3 -3 -3 -3 -3 -3 -3 -3 -3 -3 -3 -3 -3 -3 -3 -4 -4 -5 -5 -3 -3 -2 -2 -3 -3 -3 -3 -4 -4 -4
1 1 1 1 1 0 -1 -1 -2 -2 -2 -2 -2 -3 -3 -3 -3 -3 -3 -3 -3 -3 -3 -2 -2 -2 -3 -3 -3 -4 -4 -5 -6 -5 -3 -5 -1 -2 -2 -3 -3 -3 -4 -4
1 1 1 0 1 1 -0 -1 -1 -2 -2 -2 -2 -2 -2 -2 -3 -3 -3 -3 -3 -3 -3 -3 -2 -2 -3 -3 -3 -4 -4 -5 -5 -5 -5 -2 -0 -1 -2 -2 -1 -2 -2 -3
1 0 0 0 0 0 0 -0 -1 -1 -2 -2 -2 -2 -3 -2 -2 -3 -3 -3 -3 -3 -3 -3 -3 -3 -4 -3 -3 -4 -4 -5 -6 -6 -5 -7 -1 -1 -2 -2 -1 -1 -2 -2
1 1 0 0 -0 -0 -0 -0 -0 -1 -1 -1 -2 -3 -3 -3 -3 -2 -3 -3 -4 -4 -4 -4 -4 -4 -3 -4 -3 -3 -4 -4 -5 -5 -5 -2 -0 -1 -1 -1 -1 -1 -1 -1
-0 0 0 -0 -0 -0 -1 -1 -1 -1 -1 -1 -1 -2 -2 -3 -3 -3 -3 -3 -3 -4 -4 -4 -4 -4 -4 -4 -3 -3 -3 -3 -4 -5 -5 -4 -1 -1 -1 -1 -1 -1 -1 -1
-1 -1 -1 -1 -1 -0 -1 -1 -1 -1 -1 -1 -1 -1 -2 -2 -2 -2 -3 -3 -4 -4 -4 -4 -5 -4 -4 -4 -3 -3 -3 -1 -2 -3 -1 -0 -1 -1 -1 -1 -1 -1 -1 -1
-1 -1 -1 -1 -1 -1 -1 -1 -1 -1 -0 -0 -0 -1 -1 -2 -2 -3 -3 -3 -3 -4 -4 -4 -5 -4 -4 -4 -3 -3 -2 -3 -2 -2 0 -0 -0 -1 -1 -1 -1 -1 -1 -1
-2 -2 -1 -2 -1 -1 -2 -1 -1 -1 -1 -1 -0 -1 -1 -1 -2 -2 -3 -3 -3 -4 -4 -5 -5 -4 -4 -4 -3 -2 -3 -2 -2 -1 1 -0 0 -1 0 -1 -1 -1 -1 -1
-2 -3 -3 -2 -2 -1 -2 -2 -2 -2 -2 -1 -1 -1 -0 -0 -1 -1 -1 -2 -2 -2 -3 -4 -4 -4 -4 -3 -3 2 2 2 1 0 0 1 1 -0 -0 -0 -0 -1 -1 -2
-1 -2 -3 -2 -2 -2 -2 -2 -2 -2 -3 -3 -2 -1 0 -0 -0 -0 -1 -1 -2 -2 -3 -3 -3 -4 -5 -3 -0 4 2 1 1 1 1 1 1 0 0 -1 -1 -1 -1 -2
-1 -2 -2 -2 -3 -3 -3 -3 -3 -3 -4 -4 -3 -1 0 1 -0 -1 -2 -2 -2 -3 -3 -2 -2 -3 -5 -4 1 2 1 1 1 1 2 3 2 1 1 0 -0 -1 -1 -1
-1 -2 -2 -2 -2 -2 -2 -3 -4 -4 -4 -4 -3 -2 -1 -1 -1 -2 -2 -2 -3 -3 -3 -2 -2 -3 -5 -1 2 1 0 1 1 1 1 2 2 2 1 1 1 1 0 -0
-2 -2 -3 -3 -3 -3 -3 -4 -4 -4 -4 -5 -4 -2 -2 -2 -2 -2 -3 -3 -4 -4 -3 -3 -4 -3 -1 1 1 0 0 0 1 -0 0 2 2 1 2 2 2 1 0 -0
-3 -3 -3 -3 -3 -3 -4 -4 -4 -4 -4 -5 -2 -2 -3 -3 -3 -4 -5 -5 -5 -4 -4 -4 -4 0 1 -1 0 0 0 0 0 1 2 1 2 1 1 1 1 0 0 -1
-4 -4 -4 -4 -4 -4 -5 -5 -5 -4 -4 -3 -1 -1 -1 -3 -4 -4 -5 -5 -5 -5 -5 -5 -4 -2 -1 -0 0 -0 -1 -1 -1 -1 -0 1 1 1 1 0 -0 -0 -0 -0
-2 -4 -4 -5 -5 -6 -6 -6 -5 -3 -2 -1 -0 -1 -1 -2 -3 -5 -6 -6 -6 -5 -7 -7 -5 -1 -1 -1 -1 -1 -1 -1 -2 -1 0 -0 0 1 1 0 0 -0 -1 -1
-4 -5 -6 -6 -6 -6 -7 -6 -3 -1 -1 -0 -1 -1 -2 -3 -4 -5 -5 -6 -7 -7 -7 -5 -2 -2 -2 -3 -3 -3 -3 -3 -3 -2 -1 -0 -0 1 1 1 0 -1 -1 -1
-5 -6 -6 -6 -5 -5 -3 -2 -1 -0 -1 -2 -2 -3 -4 -4 -5 -6 -6 -7 -6 -7 -7 -4 -2 -3 -3 -3 -3 -3 -3 -3 -3 -3 -3 -2 -1 -0 0 -0 -1 -1 -1 -1
-6 -6 -5 -4 -4 -3 -2 -2 -3 -3 -3 -4 -4 -4 -5 -5 -6 -6 -6 -7 -6 -6 -4 -3 -4 -4 -4 -4 -4 -4 -4 -4 -3 -4 -3 -3 -3 -2 -1 -1 -2 -2 -2 -3
-6 -5 -4 -3 -3 -4 -4 -3 -3 -4 -4 -6 -7 -6 -6 -6 -7 -7 -6 -7 -5 -4 -4 -4 -4 -4 -4 -4 -4 -5 -5 -5 -6 -5 -4 -4 -3 -3 -3 -3 -3 -4 -4 -4
-7 -5 -4 -5 -5 -5 -4 -4 -5 -5 -5 -6 -7 -7 -6 -6 -7 -8 -7 -5 -3 -4 -5 -5 -5 -6 -6 -6 -6 -6 -6 -6 -7 -6 -6 -5 -4 -4 -4 -4 -4 -5 -5 -6

GFSNW_700_temp_138.txt.gz
Temp
-0 -0 -1 -1 -1 -0 -1 -1 -2 -1 -1 -1 -1 -1 -1 -1 -2 -2 -3 -3 -3 -3 -3 -3 -4 -5 -5 -5 -5 -5 -5 -5 -4 -3 -3 -4 -4 -5 -5 -5 -4 -4 -4 -3
1 0 0 -0 -0 0 -0 -1 -1 -1 -1 -1 -1 -1 -1 -2 -3 -2 -2 -2 -3 -4 -4 -3 -3 -4 -4 -5 -5 -5 -5 -5 -5 -3 -3 -4 -4 -4 -5 -5 -4 -4 -5 -4
1 1 1 0 0 0 0 -0 -1 -1 -1 -1 -2 -2 -2 -2 -2 -3 -3 -3 -3 -3 -3 -4 -3 -3 -3 -4 -4 -5 -5 -5 -5 -5 -4 -5 -4 -3 -5 -5 -5 -5 -5 -4
1 2 1 1 0 0 0 0 -0 -1 -1 -2 -2 -3 -3 -3 -3 -2 -3 -3 -3 -3 -3 -3 -3 -4 -4 -3 -3 -4 -5 -4 -5 -4 -3 -3 -3 -3 -4 -4 -4 -5 -5 -4
1 1 1 1 1 -0 -0 -0 -0 -1 -1 -2 -2 -2 -3 -3 -3 -3 -3 -3 -4 -4 -4 -4 -3 -4 -4 -4 -3 -4 -4 -4 -5 -2 -3 -4 -3 -2 -3 -3 -4 -4 -4 -4
2 1 1 1 1 0 -1 -1 -1 -1 -1 -1 -2 -2 -3 -3 -3 -3 -3 -4 -4 -4 -4 -4 -4 -3 -3 -4 -3 -4 -5 -5 -5 -3 -3 -3 -2 -1 -2 -2 -3 -4 -4 -4
2 1 1 1 1 1 0 -0 -1 -1 -1 -2 -2 -2 -2 -3 -3 -3 -3 -3 -4 -4 -4 -3 -3 -3 -3 -3 -4 -4 -5 -5 -5 -4 -3 -5 -1 -1 -2 -2 -2 -3 -3 -3
1 2 1 1 1 1 0 -0 -1 -1 -1 -2 -2 -2 -2 -2 -3 -3 -3 -4 -3 -3 -4 -3 -2 -2 -2 -3 -4 -4 -4 -6 -5 -6 -5 -1 -0 -0 -1 -2 -1 -2 -3 -3
1 1 1 1 1 0 0 0 -0 -0 -1 -1 -2 -2 -2 -2 -3 -3 -3 -3 -3 -4 -3 -4 -4 -3 -3 -3 -4 -4 -4 -6 -6 -6 -5 -7 -0 -1 -1 -1 -1 -1 -2 -2
0 0 0 1 1 0 0 -0 -0 -0 -0 -1 -1 -2 -2 -2 -3 -3 -3 -3 -3 -4 -4 -4 -4 -4 -4 -3 -3 -4 -4 -5 -6 -6 -6 -2 -0 -1 -1 -1 -1 -1 -1 -2
-0 -0 -0 -0 0 0 0 -0 -0 -0 -0 -1 -1 -1 -2 -1 -2 -2 -2 -3 -3 -3 -4 -4 -4 -4 -4 -4 -2 -3 -3 -3 -4 -5 -6 -4 -0 -0 -1 -1 -1 -1 -1 -1
0 -0 -0 -0 -0 0 0 -0 -1 -0 -0 -0 -0 -0 -0 -1 -1 -2 -2 -2 -3 -3 -3 -4 -4 -4 -4 -4 -4 -2 -3 -2 -2 -2 1 1 0 -0 -1 -1 -1 -1 -1 -1
0 -0 -1 -1 -1 -0 0 -0 -1 -1 -0 0 0 0 0 -0 -1 -1 -2 -2 -3 -3 -3 -4 -5 -4 -4 -4 -3 -3 -2 -2 -3 -2 1 0 -0 -0 0 -1 -0 -0 -1 -1
0 -0 -1 -2 -2 -1 -1 0 0 -1 -1 -0 0 0 0 -0 -0 -1 -1 -3 -3 -4 -4 -5 -4 -4 -4 -3 -4 -3 -3 -3 -2 -1 1 0 1 1 1 0 1 0 -0 -1
-0 -0 -1 -2 -2 -2 -1 -1 -1 -1 -1 -1 -1 -1 0 1 1 -0 -1 -2 -2 -3 -3 -4 -4 -3 -3 -3 -3 2 1 -0 -0 -0 -1 -1 0 1 1 0 0 1 1 0
-0 -0 -0 -1 -2 -2 -2 -1 -1 -2 -2 -1 -2 -1 0 0 0 -0 -1 -1 -1 -2 -3 -3 -3 -2 -4 -3 -1 3 0 -0 -1 -0 -0 -1 -1 -0 -1 -0 -1 -0 0 0
0 -0 -1 -1 -2 -2 -2 -2 -2 -3 -3 -2 -2 -2 -0 1 1 1 -0 -1 -2 -3 -3 -2 -2 -2 -4 -4 1 1 -0 -0 -0 -1 -1 0 -0 -0 -1 0 0 0 -0 -0
-1 -2 -2 -1 -2 -2 -2 -3 -3 -3 -3 -3 -2 -1 -0 0 -0 -1 -2 -2 -3 -3 -3 -2 -2 -3 -4 -0 2 0 -0 -0 1 -0 -0 0 1 0 -1 -1 -1 0 0 -1
-1 -2 -3 -2 -2 -2 -2 -3 -4 -4 -3 -5 -3 -1 -1 -1 -1 -2 -3 -3 -3 -3 -3 -2 -4 -2 0 3 1 0 -0 0 1 1 0 -0 -0 -0 -0 0 0 0 1 -0
-2 -3 -3 -3 -2 -2 -3 -4 -5 -5 -3 -3 -1 -0 -2 -2 -3 -3 -4 -4 -4 -4 -3 -3 -3 1 2 1 1 1 1 0 -0 0 -0 -1 -1 -1 -0 1 0 1 0 -0
-3 -3 -4 -3 -3 -3 -4 -5 -5 -5 -4 -2 1 1 1 -2 -4 -5 -5 -5 -5 -5 -4 -4 -3 1 1 1 0 0 -0 -0 -1 -1 -1 -0 -0 -0 -0 -0 -0 -0 0 -0
-2 -3 -4 -4 -5 -5 -5 -6 -5 -4 -3 -1 1 1 1 -0 -2 -5 -6 -5 -5 -4 -6 -5 -3 -0 -0 -0 -0 -1 -1 -1 -1 -2 -2 -2 -2 -1 -1 -0 -0 -0 -1 -1
-4 -5 -5 -6 -5 -5 -6 -6 -4 -2 -1 0 1 -0 -1 -2 -3 -6 -5 -4 -5 -5 -5 -4 -0 -0 -1 -1 -1 -2 -2 -2 -2 -3 -3 -3 -3 -2 -2 -1 -1 -1 -1 -1
-5 -6 -6 -6 -4 -4 -1 -1 -0 -1 -0 0 -0 -1 -3 -4 -4 -5 -5 -6 -6 -6 -5 -2 0 -1 -2 -2 -2 -2 -2 -2 -3 -3 -3 -3 -3 -3 -2 -2 -2 -1 -2 -3
-6 -6 -5 -3 -2 -1 -2 -0 -2 -1 -2 -2 -2 -3 -4 -5 -4 -5 -6 -6 -5 -5 -1 -0 -1 -1 -2 -2 -2 -3 -3 -4 -4 -4 -4 -4 -4 -4 -3 -3 -3 -3 -3 -3
-6 -6 -5 -3 -2 -2 -3 -2 -2 -2 -3 -4 -5 -5 -7 -7 -5 -5 -5 -6 -4 -1 -1 -1 -1 -2 -3 -3 -4 -4 -4 -4 -5 -5 -5 -5 -6 -6 -5 -4 -4 -4 -3 -4
-7 -6 -5 -4 -4 -3 -3 -2 -3 -3 -4 -4 -5 -6 -5 -6 -7 -6 -6 -3 -0 -1 -2 -3 -3 -4 -4 -5 -5 -5 -6 -6 -6 -6 -7 -6 -7 -7 -6 -7 -6 -6 -5 -5

GFSNW_700_temp_141.txt.gz
Temp
2 2 1 1 1 1 1 1 -0 0 0 0 0 -0 -1 -1 -2 -2 -3 -3 -3 -3 -3 -3 -4 -4 -4 -4 -4 -4 -4 -4 -4 -3 -3 -3 -4 -4 -5 -5 -5 -5 -5 -3
2 2 2 1 1 1 1 1 0 0 0 -0 -0 -1 -1 -2 -2 -3 -3 -3 -3 -4 -4 -4 -4 -4 -4 -4 -4 -4 -4 -4 -4 -3 -3 -4 -4 -4 -4 -5 -5 -5 -5 -4
2 2 2 2 1 1 1 1 1 -0 -0 -0 -1 -1 -1 -2 -2 -3 -3 -3 -3 -4 -4 -4 -4 -4 -4 -5 -4 -5 -5 -4 -4 -4 -3 -4 -5 -3 -4 -5 -5 -5 -4 -4
1 1 2 2 2 1 1 1 0 0 -0 -1 -1 -1 -2 -2 -3 -3 -3 -3 -4 -4 -3 -4 -4 -4 -4 -4 -5 -5 -5 -5 -4 -3 -3 -3 -2 -3 -3 -4 -4 -5 -3 -4
1 1 1 2 2 2 1 0 0 -0 -0 -1 -1 -1 -1 -2 -2 -3 -3 -3 -3 -4 -4 -4 -4 -3 -4 -5 -5 -5 -5 -5 -5 -2 -2 -3 -2 -2 -2 -2 -3 -3 -3 -3
1 1 1 1 2 2 1 1 0 -0 -1 -1 -1 -1 -1 -1 -2 -2 -2 -3 -3 -3 -4 -4 -4 -4 -3 -4 -5 -5 -6 -5 -6 -3 -3 -2 -1 -1 -2 -2 -2 -3 -3 -2
1 1 1 1 1 1 1 1 1 0 -0 -1 -1 -1 -1 -1 -1 -2 -3 -3 -3 -3 -3 -3 -3 -3 -3 -3 -4 -5 -6 -6 -6 -5 -3 -5 0 0 -1 -1 -1 -1 -1 -1
0 1 1 0 0 1 1 1 1 0 0 0 -1 -1 -1 -2 -2 -2 -2 -2 -3 -3 -3 -3 -2 -2 -3 -3 -3 -4 -5 -7 -7 -6 -6 -1 -0 0 -0 -1 -1 -1 -1 -1
1 0 0 0 0 -0 0 0 0 0 0 0 0 -0 -1 -1 -2 -2 -2 -2 -2 -3 -3 -4 -4 -3 -3 -4 -4 -4 -5 -6 -7 -7 -7 -7 -0 -1 -1 -1 -0 -1 -1 -1
1 0 -0 0 0 0 -0 -0 0 0 0 0 0 -0 -0 -1 -1 -2 -2 -2 -2 -3 -3 -4 -4 -4 -3 -3 -4 -4 -4 -6 -7 -8 -7 -2 0 -1 -1 -1 -0 -1 -1 -1
1 0 -0 -1 -0 0 0 -0 -0 0 0 0 0 0 -0 -0 -1 -2 -2 -3 -2 -3 -4 -4 -4 -4 -4 -3 -3 -3 -4 -4 -5 -6 -8 -4 1 -0 -1 -1 -1 -2 -1 -1
1 0 0 -1 -1 -0 0 0 0 -0 -0 0 0 0 0 1 -0 -1 -2 -3 -4 -3 -4 -4 -4 -4 -4 -4 -3 -2 -3 -2 -2 -2 0 0 -0 -1 -2 -1 -1 -2 -2 -2
0 1 0 0 -1 -1 -1 -0 0 0 -0 0 1 0 0 0 -0 -1 -1 -2 -3 -3 -4 -4 -5 -4 -4 -4 -3 -3 -2 -3 -3 -3 -0 -0 -1 -2 -2 -2 -1 -2 -2 -2
1 0 0 -0 -0 -1 -1 -1 -1 -0 0 0 0 1 1 0 -0 -1 -1 -1 -2 -3 -3 -5 -4 -4 -4 -4 -4 -2 -2 -2 -1 -1 0 -0 -0 -1 -1 -1 0 -0 -1 -1
0 0 0 -0 -0 -0 -1 -1 -1 -1 -0 1 1 1 1 1 1 -0 -0 -0 -1 -2 -2 -3 -3 -3 -3 -3 -3 2 1 -1 -1 -0 -0 1 1 1 0 -1 -1 -1 -1 -0
0 -0 0 -0 -1 -1 -1 -2 -2 -1 -1 -1 1 1 2 1 1 1 -0 -1 -1 -1 -2 -2 -2 -2 -4 -3 -0 3 1 0 1 0 0 1 0 1 0 1 0 0 -0 -1
-0 -1 -1 -1 -1 -2 -2 -3 -2 -2 -2 -2 -1 1 2 2 2 1 1 0 -0 -1 -2 -1 -2 -2 -4 -3 1 2 1 0 1 1 2 2 0 1 0 0 1 1 0 0
-1 -1 -1 -2 -2 -2 -2 -2 -3 -3 -3 -3 -2 0 1 1 1 1 0 -1 -2 -2 -2 -1 -1 -2 -3 -0 3 2 2 1 1 0 1 2 2 1 0 0 0 0 1 1
-2 -2 -3 -3 -3 -3 -1 -2 -4 -4 -4 -4 -2 -1 -1 0 1 -0 -1 -2 -3 -3 -2 -1 -3 -2 1 4 2 1 1 1 1 0 0 0 1 1 1 1 0 1 1 1
-2 -2 -3 -3 -4 -3 -3 -4 -5 -6 -5 -5 -2 -1 -1 -1 -1 -2 -3 -4 -3 -4 -3 -2 -3 3 4 3 3 2 2 1 0 1 0 -0 -0 -1 -0 -0 -0 -0 -0 0
-3 -3 -3 -4 -4 -4 -4 -4 -5 -6 -6 -3 -0 1 -0 -2 -3 -4 -5 -5 -5 -5 -4 -3 -2 4 4 3 3 2 2 1 1 1 -0 -0 -0 -0 -0 -1 -2 -1 -1 -1
-3 -3 -3 -4 -5 -5 -5 -5 -5 -5 -3 -2 -0 1 1 -1 -3 -5 -6 -6 -5 -4 -6 -5 -1 4 3 2 2 1 1 0 -0 -0 -1 -1 -1 -2 -2 -3 -2 -2 -2 -2
-4 -5 -6 -6 -6 -5 -6 -5 -5 -4 -2 -0 1 1 -1 -2 -3 -5 -5 -6 -5 -6 -6 -4 1 2 2 2 1 1 0 -0 -0 -1 -1 -2 -2 -2 -3 -3 -3 -3 -3 -2
-5 -6 -7 -6 -5 -4 -2 -2 -2 -3 -1 -0 0 -0 -2 -3 -4 -5 -5 -6 -6 -6 -6 -1 2 2 1 0 0 -1 -1 -2 -2 -2 -2 -3 -3 -3 -3 -3 -4 -3 -4 -3
-6 -6 -6 -5 -2 -2 -3 -3 -2 -3 -3 -2 -2 -2 -3 -4 -5 -5 -6 -6 -5 -5 -1 0 0 0 0 -0 -1 -2 -2 -3 -3 -3 -3 -4 -4 -4 -5 -5 -5 -6 -5 -5
-7 -6 -6 -3 -2 -2 -3 -3 -3 -2 -2 -4 -5 -5 -6 -6 -5 -5 -5 -5 -3 -1 -0 -1 -2 -2 -2 -2 -3 -3 -4 -4 -4 -4 -5 -5 -5 -6 -6 -6 -6 -7 -7 -6
-7 -7 -5 -4 -2 -2 -3 -2 -2 -4 -5 -5 -5 -6 -5 -5 -5 -6 -4 -2 -1 -1 -3 -3 -4 -3 -3 -4 -4 -5 -5 -5 -5 -6 -6 -6 -6 -7 -7 -7 -8 -8 -8 -7

GFSNW_700_temp_144.txt.gz
Temp
2 2 2 2 2 2 2 2 1 1 1 1 1 1 0 -0 -1 -1 -2 -2 -2 -2 -3 -3 -3 -3 -3 -4 -4 -4 -4 -4 -4 -3 -3 -3 -4 -4 -5 -5 -4 -4 -4 -3
2 2 2 2 2 2 2 2 1 1 1 1 0 0 -0 -1 -1 -2 -2 -3 -3 -3 -3 -3 -3 -3 -3 -3 -4 -4 -5 -5 -5 -3 -3 -3 -4 -4 -5 -6 -6 -5 -4 -2
2 2 2 2 2 2 2 2 1 1 0 0 -0 -1 -1 -1 -2 -2 -2 -2 -3 -3 -3 -3 -3 -4 -4 -4 -4 -4 -4 -4 -5 -3 -3 -4 -5 -5 -4 -6 -6 -4 -4 -2
2 2 2 2 2 2 2 1 1 1 1 0 -0 -1 -1 -2 -2 -2 -2 -2 -3 -3 -4 -4 -4 -4 -4 -4 -4 -4 -5 -5 -4 -3 -3 -3 -2 -2 -3 -4 -4 -5 -2 -2
1 1 2 2 2 2 2 2 1 1 1 1 0 -0 -1 -1 -2 -2 -2 -3 -3 -3 -3 -4 -4 -4 -4 -5 -5 -5 -5 -5 -4 -2 -2 -3 -2 -1 -1 -1 -2 -2 -2 -1
1 1 1 1 2 2 2 2 2 1 1 0 0 -0 -1 -1 -1 -2 -2 -3 -3 -3 -3 -4 -4 -4 -4 -5 -5 -6 -7 -5 -6 -4 -2 -2 -0 1 -0 -1 -1 -1 -2 -1
1 1 1 1 1 1 1 1 2 1 1 1 0 -0 -0 -1 -1 -2 -2 -2 -3 -3 -3 -3 -2 -3 -3 -3 -4 -5 -6 -6 -7 -6 -3 -1 0 -0 -0 -0 -0 -0 -0 -1
1 1 1 1 1 1 1 1 1 1 1 1 1 0 -0 -1 -1 -2 -2 -2 -2 -2 -3 -2 -2 -3 -3 -3 -3 -4 -5 -6 -7 -7 -7 -2 0 0 -0 -1 0 -0 -1 -1
1 1 1 1 1 0 0 1 0 1 1 1 1 1 0 -0 -1 -1 -2 -2 -2 -2 -3 -3 -3 -3 -3 -4 -3 -3 -4 -6 -7 -8 -7 -3 -0 -0 -1 -1 -1 -1 -1 -1
1 1 1 0 0 1 0 0 0 -0 0 1 1 1 1 1 0 -1 -1 -1 -1 -2 -2 -3 -3 -4 -3 -4 -4 -3 -4 -5 -8 -8 -8 -3 1 -0 -1 -2 -1 -1 -2 -2
0 0 1 1 0 0 0 -0 -1 -1 0 0 1 0 0 1 1 0 -1 -2 -1 -2 -2 -3 -3 -3 -3 -3 -2 -3 -3 -4 -5 -8 -8 -4 0 -1 -2 -2 -2 -2 -2 -2
1 1 0 0 0 0 -0 -0 -1 -1 -0 0 0 1 1 1 1 1 0 -1 -2 -2 -2 -3 -3 -3 -4 -3 -3 -2 -3 -1 -2 -2 1 1 0 -1 -1 -0 -1 -1 -1 -1
0 0 0 0 0 0 -0 -0 -1 -0 -0 1 1 1 1 1 1 1 0 0 -1 -1 -2 -3 -4 -3 -3 -4 -2 -2 -1 -2 -3 -2 1 1 -0 -0 0 1 1 1 1 1
0 0 0 -0 0 0 0 -0 -1 -1 0 1 1 1 1 1 1 0 0 0 -0 -1 -2 -2 -3 -4 -3 -3 -2 -2 -1 -1 -0 1 2 1 1 1 0 0 0 1 1 1
1 0 -0 -0 -0 0 0 -1 -1 -1 -1 -0 1 1 1 1 1 1 0 -0 0 -0 -2 -2 -1 -2 -4 -3 -2 3 3 2 1 2 1 1 0 -0 -0 0 0 -0 0 1
-0 -1 -0 -1 -1 -1 -1 -0 -1 -1 -2 -1 -0 1 2 1 1 1 -0 -1 -1 -0 -1 -1 -2 -1 -3 -3 0 5 3 2 2 2 1 2 0 0 0 0 0 1 1 0
-1 -1 -1 -1 -1 -1 -1 -2 -1 -1 -2 -3 -2 0 2 2 2 1 1 1 0 -1 -1 -0 -1 -1 -4 -2 1 5 2 2 2 2 2 2 1 1 1 1 1 1 0 0
-1 -1 -1 -2 -2 -2 -1 -1 -2 -3 -4 -4 -4 -1 0 2 1 -0 -0 -1 -1 -1 -1 -1 -0 -2 -2 -1 6 3 3 3 3 2 1 1 1 1 0 0 -0 -1 -1 -1
-2 -2 -2 -3 -3 -3 -1 -2 -2 -4 -5 -5 -5 -2 -1 0 1 -0 -1 -2 -3 -4 -3 -1 -3 -2 2 7 4 3 2 2 2 1 1 1 1 1 0 -0 -1 -1 -1 -1
-2 -3 -3 -3 -4 -3 -3 -4 -4 -5 -5 -6 -5 -3 -2 -1 -1 -2 -4 -4 -4 -4 -3 -3 -3 1 5 5 4 3 2 2 2 2 1 0 1 0 -0 -1 -1 -1 -2 -2
-3 -3 -3 -3 -4 -4 -4 -5 -5 -6 -6 -5 -3 -2 -1 -1 -3 -4 -5 -5 -5 -5 -4 -4 -3 -0 5 3 3 3 3 2 2 2 1 1 0 0 -1 -1 -2 -2 -2 -2
-3 -3 -4 -4 -5 -6 -5 -5 -5 -5 -4 -4 -2 0 0 -3 -3 -5 -6 -5 -5 -4 -6 -6 -3 1 3 3 3 3 2 2 1 1 0 0 -0 -1 -1 -2 -3 -3 -3 -3
-4 -5 -5 -6 -6 -5 -5 -4 -5 -5 -3 -2 -1 -0 -1 -3 -5 -6 -6 -5 -5 -6 -6 -4 1 2 2 2 1 1 1 1 0 -1 -1 -1 -1 -2 -3 -3 -3 -4 -4 -4
-6 -6 -6 -6 -5 -4 -2 0 1 -1 -2 -2 -1 -1 -2 -4 -5 -6 -5 -5 -6 -6 -5 -1 2 1 1 1 0 0 0 -0 -1 -2 -2 -3 -3 -3 -3 -4 -4 -4 -5 -5
-6 -6 -6 -6 -3 -2 -1 -2 -1 -0 -2 -3 -3 -3 -4 -5 -6 -6 -5 -6 -5 -5 -0 1 1 1 -0 -0 -0 -1 -1 -2 -2 -3 -3 -4 -3 -4 -4 -5 -5 -5 -6 -6
-7 -7 -6 -5 -3 -2 -2 -2 -2 -2 -2 -4 -5 -5 -6 -6 -6 -5 -4 -4 -2 0 0 -1 -2 -1 -1 -2 -2 -2 -3 -3 -4 -4 -4 -5 -5 -5 -5 -6 -6 -6 -6 -7
-8 -7 -6 -5 -4 -4 -4 -3 -2 -2 -4 -5 -5 -5 -5 -5 -6 -5 -4 -1 1 0 -0 -2 -2 -3 -3 -3 -4 -4 -4 -4 -5 -5 -5 -6 -6 -6 -6 -6 -7 -7 -7 -8

GFSNW_700_temp_147.txt.gz
Temp
2 2 2 3 2 2 2 2 2 1 2 1 1 1 0 0 -0 -0 -1 -1 -1 -2 -2 -2 -3 -3 -3 -3 -3 -4 -4 -4 -4 -3 -2 -3 -3 -4 -4 -4 -3 -4 -4 -2
2 2 2 2 2 2 2 2 1 1 1 1 1 0 0 -0 -1 -1 -1 -1 -2 -2 -2 -3 -3 -3 -3 -3 -3 -4 -4 -5 -4 -3 -3 -3 -3 -4 -4 -5 -5 -4 -3 -1
1 1 2 2 2 2 2 2 1 1 1 1 0 -0 -0 -0 -1 -1 -2 -2 -2 -2 -3 -3 -3 -3 -3 -3 -3 -3 -4 -5 -5 -2 -2 -4 -5 -5 -5 -5 -6 -3 -3 -0
1 1 1 2 2 2 2 2 1 1 1 1 1 0 -1 -1 -1 -1 -2 -2 -2 -3 -3 -4 -4 -3 -4 -3 -3 -4 -4 -5 -5 -5 -3 -4 -3 -2 -4 -5 -4 -5 -0 -1
1 1 1 1 1 2 1 2 1 1 1 0 0 0 -0 -1 -1 -2 -1 -2 -3 -3 -3 -4 -4 -4 -5 -5 -4 -4 -5 -4 -5 -4 -4 -2 -2 -1 -2 -3 -3 -3 -1 -0
1 1 1 1 1 1 1 1 1 1 1 1 0 -0 0 -0 -1 -1 -2 -2 -2 -3 -3 -3 -3 -3 -3 -4 -5 -6 -6 -6 -6 -5 -4 -4 -2 1 1 -0 -1 -1 -3 -1
1 1 1 1 1 1 1 1 1 1 1 1 0 0 -0 -0 -1 -1 -1 -2 -2 -2 -2 -2 -2 -2 -2 -3 -3 -5 -7 -7 -7 -6 -4 -1 0 1 1 -0 0 -0 -0 -0
1 1 1 1 1 1 1 1 1 1 1 1 1 0 -0 -0 -0 -0 -0 -1 -2 -2 -2 -2 -3 -4 -3 -2 -3 -3 -5 -8 -7 -6 -5 -1 1 1 0 0 1 -0 -1 -1
1 1 1 1 1 1 1 0 0 1 1 1 1 1 0 -0 -0 -0 -0 -0 -1 -1 -2 -2 -4 -3 -3 -4 -3 -3 -4 -6 -7 -6 -6 -2 -0 1 0 -0 -0 0 -0 -0
1 1 1 1 1 1 1 0 0 0 1 1 1 1 1 -0 -1 -1 -0 -0 -0 -1 -1 -2 -4 -3 -2 -3 -4 -3 -3 -5 -7 -7 -7 -3 1 1 -0 -1 0 -0 0 -0
1 1 1 1 0 0 0 0 -0 -0 0 1 1 1 0 0 0 -1 -1 -1 -0 -0 -1 -2 -2 -2 -3 -2 -2 -2 -2 -4 -6 -7 -6 -4 2 1 0 0 -1 -1 -0 -0
1 1 0 0 -0 0 -0 0 0 -0 -0 -0 0 1 1 1 0 -0 0 -1 -1 -1 -1 -1 -2 -2 -2 -2 -3 -1 -2 -1 -3 -1 2 2 2 1 1 0 0 0 -0 -0
1 1 -1 -0 -0 -0 -0 0 -0 -0 0 1 1 1 1 1 1 0 0 0 -1 -1 -2 -3 -3 -2 -2 -3 -1 -1 0 -1 -1 -1 3 2 1 1 1 0 1 1 1 0
2 1 -1 -1 -0 -1 -0 -0 0 -0 -0 0 1 1 1 1 1 0 -0 -1 -1 -1 -3 -3 -3 -3 -2 -1 -1 -0 -0 -1 1 2 4 2 2 2 2 2 1 1 1 1
2 1 -1 -2 -2 -1 -0 -0 0 -0 -1 -0 1 1 1 1 1 1 0 -0 -1 -1 -2 -3 -3 -2 -3 -1 -1 4 4 4 3 4 3 2 2 2 2 1 1 1 2 1
1 0 -1 -2 -2 -1 -1 -1 -1 -1 -1 -1 -1 1 2 1 2 1 2 1 -0 -2 -2 -1 -2 -1 -3 -4 -1 5 5 4 3 4 3 3 2 1 2 2 1 1 1 1
0 -0 -2 -1 -2 -1 -2 -2 -2 -2 -2 -2 -3 -1 2 2 2 1 1 0 0 -1 -2 -1 -1 -0 -3 -3 1 5 4 4 3 3 3 4 2 2 2 2 1 1 1 0
0 -1 -2 -2 -2 -3 -1 -1 -2 -3 -4 -5 -5 -3 -1 1 1 1 1 -0 -1 -1 -2 -2 -1 -3 -2 1 7 6 4 4 4 4 3 3 1 1 1 1 1 1 1 1
-1 -2 -2 -3 -4 -3 -1 -2 -3 -3 -5 -6 -6 -5 -3 -1 0 -0 -1 -1 -2 -3 -3 -3 -4 -4 -2 6 5 4 3 3 3 2 2 2 2 1 0 1 0 0 0 0
-3 -3 -3 -3 -3 -3 -3 -3 -4 -5 -5 -5 -5 -6 -4 -2 -1 -2 -2 -3 -3 -3 -3 -4 -4 0 4 4 3 3 2 1 1 2 2 1 1 1 0 0 0 -0 -1 -1
-4 -4 -4 -3 -3 -4 -4 -4 -5 -5 -6 -5 -4 -3 -2 -2 -4 -4 -5 -5 -4 -5 -4 -5 -3 0 4 5 4 4 3 3 2 2 2 2 1 0 -0 -0 -1 -1 -2 -2
-5 -4 -4 -4 -4 -5 -5 -5 -5 -5 -5 -4 -2 -1 -1 -2 -3 -6 -6 -6 -5 -3 -5 -7 -2 1 3 3 3 3 2 3 2 2 2 1 1 -0 -1 -1 -2 -2 -2 -3
-5 -6 -5 -5 -5 -5 -6 -5 -5 -4 -3 -1 -1 -1 -1 -2 -4 -7 -6 -6 -5 -6 -6 -4 0 2 2 2 2 2 2 1 1 1 1 1 -0 -1 -2 -2 -2 -3 -3 -4
-6 -6 -6 -6 -5 -4 -3 -2 -1 -1 -2 -2 -2 -2 -2 -2 -5 -6 -6 -6 -6 -7 -5 0 3 2 1 1 0 1 1 0 0 -0 0 -0 -1 -2 -3 -3 -4 -4 -4 -5
-8 -7 -6 -6 -3 -3 -3 -3 -2 -2 -3 -3 -3 -3 -4 -4 -6 -6 -6 -6 -5 -3 0 2 1 1 1 0 -0 0 -1 -1 -1 -1 -1 -2 -2 -2 -3 -4 -4 -5 -5 -6
-10 -8 -7 -5 -5 -4 -4 -4 -3 -4 -4 -5 -5 -5 -6 -6 -6 -6 -4 -4 -3 0 2 1 1 0 0 -0 -1 -1 -2 -2 -3 -3 -2 -3 -3 -4 -4 -5 -5 -6 -6 -6
-11 -9 -8 -8 -7 -6 -6 -5 -5 -6 -6 -6 -6 -7 -5 -5 -6 -6 -4 -2 0 0 0 -1 -2 -3 -2 -2 -3 -3 -3 -4 -4 -4 -4 -4 -4 -5 -5 -5 -6 -7 -7 -7

GFSNW_700_temp_150.txt.gz
Temp
1 1 2 2 3 3 2 2 2 2 2 1 1 1 1 0 0 0 -1 -1 -2 -2 -2 -2 -2 -2 -2 -3 -3 -3 -4 -4 -3 -3 -3 -3 -3 -4 -4 -4 -4 -4 -4 -3
1 1 1 2 2 2 2 2 2 2 2 2 1 0 0 -0 -0 -0 -0 -1 -2 -2 -2 -3 -3 -3 -3 -3 -3 -3 -4 -5 -3 -3 -3 -3 -3 -3 -4 -5 -5 -5 -4 -1
1 1 1 1 1 2 2 2 2 1 1 1 1 0 0 -0 -1 -1 -1 -1 -2 -2 -3 -3 -3 -3 -3 -3 -3 -4 -4 -4 -3 -2 -1 -3 -4 -4 -5 -5 -5 -4 -3 1
1 1 1 1 1 1 1 2 1 1 1 1 1 1 0 -0 -0 -1 -1 -1 -1 -2 -2 -4 -5 -4 -4 -3 -3 -3 -4 -4 -4 -4 -3 -3 -3 -2 -3 -5 -4 -5 0 -1
1 1 1 1 1 1 1 1 1 1 1 1 1 1 0 -0 -0 -1 -0 -1 -1 -2 -2 -3 -3 -5 -5 -5 -4 -4 -4 -4 -4 -3 -3 -4 -3 -1 -1 -1 -3 -4 -2 -0
2 2 1 1 1 1 1 1 1 1 1 1 0 0 0 0 -0 -1 -1 -1 -2 -2 -2 -2 -2 -2 -3 -4 -5 -6 -7 -6 -6 -5 -3 -3 -1 2 2 1 1 0 -2 1
2 2 2 1 1 1 1 1 1 1 1 1 0 0 -0 0 0 -0 -0 -1 -1 -1 -2 -2 -2 -2 -2 -2 -3 -4 -5 -7 -7 -6 -4 -6 1 2 2 2 1 1 1 1
2 1 1 1 0 1 1 1 1 1 1 1 1 -0 -0 -0 -0 0 0 -0 -1 -1 -2 -2 -2 -2 -2 -2 -2 -3 -4 -6 -7 -6 -6 -1 2 2 1 1 2 1 1 -0
2 2 2 2 1 0 1 1 1 0 0 1 1 1 0 -0 -0 0 -0 -0 -0 -1 -1 -2 -3 -3 -2 -3 -2 -2 -3 -5 -7 -6 -7 -6 1 1 1 0 1 2 1 0
2 2 2 2 1 0 -0 0 0 0 0 1 0 0 0 0 -0 -1 -0 -0 -0 -1 -1 -2 -3 -3 -2 -2 -3 -2 -3 -6 -7 -8 -7 -2 2 2 0 -0 1 1 0 0
2 2 2 2 2 0 -1 -0 -0 -0 0 0 0 1 -0 0 0 -0 -0 -1 -0 -1 -1 -2 -2 -2 -2 -1 -1 -1 -1 -1 -4 -8 -7 -3 2 2 1 1 1 1 0 0
2 2 2 2 2 1 -0 -1 -0 -0 -0 0 -0 0 1 1 1 0 0 -1 -1 -1 -1 -2 -2 -2 -2 -1 -1 -1 -1 1 -0 -0 3 3 3 2 2 1 1 1 1 1
2 1 1 1 2 1 -0 -1 -1 -0 -0 0 1 0 0 1 1 0 0 0 -1 -1 -2 -2 -3 -3 -3 -2 -1 -1 -0 -1 -1 0 5 3 2 2 2 2 1 1 2 1
1 2 1 1 0 0 -2 -1 -1 -1 -1 -0 1 0 1 1 0 0 -0 -0 -1 -1 -2 -3 -3 -2 -2 -2 -1 -0 0 0 2 2 5 3 4 3 3 2 2 2 2 2
1 1 0 0 -0 -3 -2 -1 -1 -1 -1 -1 -0 1 1 1 0 1 1 0 -1 -2 -2 -2 -2 -2 -3 -2 -1 2 3 3 2 3 3 3 3 3 3 2 2 2 2 2
-0 0 0 0 -2 -3 -2 -2 -0 -1 -1 -2 -2 -0 0 0 1 0 1 1 1 0 -1 -0 -1 -0 -3 -5 -1 5 5 4 4 3 3 3 3 4 3 2 2 2 2 2
-0 0 0 -1 -3 -2 -2 -2 -1 -2 -2 -3 -4 -4 -0 1 1 0 0 0 -0 -1 -2 -1 -0 0 -2 -3 2 7 4 3 2 3 2 3 3 2 2 2 2 2 1 1
0 -1 -1 -3 -3 -3 -2 -1 -1 -2 -3 -4 -5 -5 -4 -1 -0 -1 -1 -1 -1 -1 -3 -3 -2 -3 -2 0 7 4 4 2 3 3 3 3 3 4 3 2 2 2 1 1
-1 -1 -2 -4 -3 -3 -3 -2 -3 -3 -4 -6 -6 -6 -4 -4 -1 -0 -1 -1 -2 -2 -3 -2 -4 -4 -2 6 5 5 5 3 1 1 2 2 2 2 2 2 1 1 0 1
-4 -3 -4 -4 -4 -3 -3 -3 -4 -5 -5 -5 -5 -6 -5 -3 -3 -3 -4 -4 -4 -3 -3 -4 -3 1 3 4 4 4 4 5 4 3 3 3 3 2 1 0 0 0 -0 -0
-6 -7 -5 -5 -4 -4 -4 -4 -5 -5 -5 -5 -5 -3 -2 -3 -4 -5 -5 -5 -5 -5 -3 -4 -3 0 4 3 4 4 3 3 3 2 2 2 2 3 2 1 -0 -1 -1 -1
-8 -7 -6 -5 -5 -5 -5 -4 -5 -5 -5 -5 -4 -2 -2 -2 -4 -6 -6 -6 -6 -3 -5 -6 -3 4 3 2 1 2 2 2 2 1 1 2 2 2 1 -0 -1 -1 -1 -2
-8 -7 -6 -6 -5 -5 -6 -5 -4 -4 -4 -4 -3 -2 -2 -3 -4 -7 -6 -6 -6 -6 -5 -3 0 4 2 1 1 1 1 1 -0 -0 0 0 1 1 1 0 -1 -1 -2 -2
-9 -8 -8 -7 -5 -6 -5 -5 -5 -4 -5 -4 -4 -4 -4 -4 -5 -6 -6 -7 -7 -7 -5 -1 2 2 1 1 1 1 1 -0 -1 -1 -1 -1 -2 -1 -1 -1 -1 -2 -3 -3
-10 -8 -7 -6 -5 -5 -5 -5 -5 -5 -5 -6 -5 -5 -6 -6 -6 -6 -7 -7 -6 -3 -1 0 1 -0 0 -0 -1 -1 -1 -2 -3 -3 -3 -3 -3 -3 -2 -2 -2 -3 -4 -4
-12 -10 -8 -6 -6 -5 -5 -6 -6 -6 -6 -6 -6 -6 -7 -7 -7 -7 -7 -6 -3 -1 -1 -1 -1 -1 -1 -2 -4 -4 -4 -4 -4 -4 -4 -4 -5 -4 -5 -4 -4 -4 -4 -6
-12 -9 -7 -7 -7 -6 -5 -6 -7 -7 -8 -8 -8 -8 -7 -7 -7 -7 -6 -4 -2 -2 -3 -3 -3 -3 -4 -4 -5 -5 -4 -4 -5 -4 -5 -5 -5 -5 -5 -7 -6 -5 -6 -7